<?xml version="1.0" encoding="UTF-8" standalone="no" ?>
<gpx xmlns="http://www.topografix.com/GPX/1/1" xmlns:xsi="http://www.w3.org/2001/XMLSchema-instance" xsi:schemaLocation="http://www.topografix.com/GPX/1/1 http://www.topografix.com/GPX/1/1/gpx.xsd" version="1.1" creator="VisuGPX - https://www.visugpx.com">
  <metadata>
    <name>La mercurey 2014 50km</name>
    <desc><![CDATA[attention ! deux erreurs de parcours , le balisage manquait de visibilité .]]></desc>
  </metadata>
  <trk>
    <name><![CDATA[2014-03-23 07:55]]></name>
    <desc><![CDATA[<h1>OruxMaps</h1><br /><hr align="center" width="480" style="height: 2px; width: 517px"/><h2>Nom: 2014-03-23 07:55</h2><br /><p>Temps de départ: 03/23/2014 07:56</p><p>Temps d'arrivée: 03/23/2014 12:04</p><p>Distance: 50 km (04:07)</p><p>Temps déplacement: 03:36</p><p>Vitesse moyenne: 12,1 km/h</p><p>Vitesse moyenne: 13,8 km/h</p><p>Vitess Max.: 178 km/h</p><p>Altitude minimale: 162 m</p><p>Altitude maximale: 442 m</p><p>Vitesse d'élévation: 663,1 m/h</p><p>Vitesse de descente: -1280,6 m/h</p><p>Gain Altitude: 1603 m</p><p>Perte Altitude: -1611 m</p><p>Temps d'élévation: 02:25</p><p>Temps de descente: 01:15</p><hr align="center" width="480" style="height: 2px; width: 517px"/>]]></desc>
    <trkseg>
      <trkpt lat="46.83254" lon="4.72101">
        <ele>193.99</ele>
        <time>2014-03-23T06:56:36Z</time>
      </trkpt>
      <trkpt lat="46.83261" lon="4.72073">
        <ele>185.5</ele>
        <time>2014-03-23T06:59:33Z</time>
      </trkpt>
      <trkpt lat="46.83268" lon="4.72047">
        <ele>185.69</ele>
        <time>2014-03-23T06:59:40Z</time>
      </trkpt>
      <trkpt lat="46.83275" lon="4.72019">
        <ele>186.17</ele>
        <time>2014-03-23T06:59:46Z</time>
      </trkpt>
      <trkpt lat="46.83283" lon="4.71993">
        <ele>186.97</ele>
        <time>2014-03-23T06:59:52Z</time>
      </trkpt>
      <trkpt lat="46.83293" lon="4.71968">
        <ele>187.54</ele>
        <time>2014-03-23T06:59:57Z</time>
      </trkpt>
      <trkpt lat="46.83307" lon="4.71943">
        <ele>187.67</ele>
        <time>2014-03-23T07:00:02Z</time>
      </trkpt>
      <trkpt lat="46.83319" lon="4.7192">
        <ele>188.05</ele>
        <time>2014-03-23T07:00:07Z</time>
      </trkpt>
      <trkpt lat="46.83332" lon="4.71896">
        <ele>188.18</ele>
        <time>2014-03-23T07:00:12Z</time>
      </trkpt>
      <trkpt lat="46.83344" lon="4.71871">
        <ele>188.43</ele>
        <time>2014-03-23T07:00:17Z</time>
      </trkpt>
      <trkpt lat="46.83355" lon="4.71846">
        <ele>188.14</ele>
        <time>2014-03-23T07:00:22Z</time>
      </trkpt>
      <trkpt lat="46.83368" lon="4.71823">
        <ele>186.97</ele>
        <time>2014-03-23T07:00:27Z</time>
      </trkpt>
      <trkpt lat="46.8338" lon="4.71801">
        <ele>186.15</ele>
        <time>2014-03-23T07:00:32Z</time>
      </trkpt>
      <trkpt lat="46.83394" lon="4.7178">
        <ele>186.32</ele>
        <time>2014-03-23T07:00:37Z</time>
      </trkpt>
      <trkpt lat="46.83407" lon="4.7176">
        <ele>187.22</ele>
        <time>2014-03-23T07:00:42Z</time>
      </trkpt>
      <trkpt lat="46.83427" lon="4.71749">
        <ele>186.8</ele>
        <time>2014-03-23T07:00:51Z</time>
      </trkpt>
      <trkpt lat="46.83446" lon="4.71745">
        <ele>186.8</ele>
        <time>2014-03-23T07:00:56Z</time>
      </trkpt>
      <trkpt lat="46.83466" lon="4.71738">
        <ele>187.02</ele>
        <time>2014-03-23T07:01:02Z</time>
      </trkpt>
      <trkpt lat="46.83485" lon="4.71733">
        <ele>187.86</ele>
        <time>2014-03-23T07:01:06Z</time>
      </trkpt>
      <trkpt lat="46.83504" lon="4.71725">
        <ele>187.27</ele>
        <time>2014-03-23T07:01:10Z</time>
      </trkpt>
      <trkpt lat="46.83523" lon="4.71721">
        <ele>186.9</ele>
        <time>2014-03-23T07:01:14Z</time>
      </trkpt>
      <trkpt lat="46.83544" lon="4.7172">
        <ele>187.32</ele>
        <time>2014-03-23T07:01:18Z</time>
      </trkpt>
      <trkpt lat="46.83563" lon="4.71728">
        <ele>188.98</ele>
        <time>2014-03-23T07:01:22Z</time>
      </trkpt>
      <trkpt lat="46.83581" lon="4.71737">
        <ele>191.59</ele>
        <time>2014-03-23T07:01:27Z</time>
      </trkpt>
      <trkpt lat="46.83599" lon="4.71733">
        <ele>196.12</ele>
        <time>2014-03-23T07:01:39Z</time>
      </trkpt>
      <trkpt lat="46.83615" lon="4.71716">
        <ele>198.7</ele>
        <time>2014-03-23T07:01:43Z</time>
      </trkpt>
      <trkpt lat="46.83634" lon="4.71723">
        <ele>201.18</ele>
        <time>2014-03-23T07:01:48Z</time>
      </trkpt>
      <trkpt lat="46.83651" lon="4.71731">
        <ele>201.75</ele>
        <time>2014-03-23T07:01:51Z</time>
      </trkpt>
      <trkpt lat="46.83667" lon="4.71746">
        <ele>201.25</ele>
        <time>2014-03-23T07:01:55Z</time>
      </trkpt>
      <trkpt lat="46.83689" lon="4.71753">
        <ele>199.79</ele>
        <time>2014-03-23T07:01:59Z</time>
      </trkpt>
      <trkpt lat="46.83709" lon="4.71763">
        <ele>198.53</ele>
        <time>2014-03-23T07:02:03Z</time>
      </trkpt>
      <trkpt lat="46.83728" lon="4.71774">
        <ele>197.4</ele>
        <time>2014-03-23T07:02:07Z</time>
      </trkpt>
      <trkpt lat="46.83745" lon="4.71786">
        <ele>196.4</ele>
        <time>2014-03-23T07:02:11Z</time>
      </trkpt>
      <trkpt lat="46.83765" lon="4.718">
        <ele>195.92</ele>
        <time>2014-03-23T07:02:16Z</time>
      </trkpt>
      <trkpt lat="46.83785" lon="4.71812">
        <ele>195.24</ele>
        <time>2014-03-23T07:02:21Z</time>
      </trkpt>
      <trkpt lat="46.83805" lon="4.71826">
        <ele>195.6</ele>
        <time>2014-03-23T07:02:26Z</time>
      </trkpt>
      <trkpt lat="46.83822" lon="4.71839">
        <ele>197.58</ele>
        <time>2014-03-23T07:02:31Z</time>
      </trkpt>
      <trkpt lat="46.83839" lon="4.71849">
        <ele>199.2</ele>
        <time>2014-03-23T07:02:36Z</time>
      </trkpt>
      <trkpt lat="46.83858" lon="4.71856">
        <ele>200.57</ele>
        <time>2014-03-23T07:02:41Z</time>
      </trkpt>
      <trkpt lat="46.83877" lon="4.71866">
        <ele>203.89</ele>
        <time>2014-03-23T07:02:47Z</time>
      </trkpt>
      <trkpt lat="46.83893" lon="4.71881">
        <ele>206.37</ele>
        <time>2014-03-23T07:02:52Z</time>
      </trkpt>
      <trkpt lat="46.83909" lon="4.71892">
        <ele>209.04</ele>
        <time>2014-03-23T07:02:57Z</time>
      </trkpt>
      <trkpt lat="46.83928" lon="4.71901">
        <ele>212.34</ele>
        <time>2014-03-23T07:03:03Z</time>
      </trkpt>
      <trkpt lat="46.83949" lon="4.71908">
        <ele>213.63</ele>
        <time>2014-03-23T07:03:09Z</time>
      </trkpt>
      <trkpt lat="46.83969" lon="4.71916">
        <ele>216.37</ele>
        <time>2014-03-23T07:03:15Z</time>
      </trkpt>
      <trkpt lat="46.83988" lon="4.71918">
        <ele>218.01</ele>
        <time>2014-03-23T07:03:20Z</time>
      </trkpt>
      <trkpt lat="46.84007" lon="4.71919">
        <ele>219.37</ele>
        <time>2014-03-23T07:03:25Z</time>
      </trkpt>
      <trkpt lat="46.84028" lon="4.71925">
        <ele>217.97</ele>
        <time>2014-03-23T07:03:30Z</time>
      </trkpt>
      <trkpt lat="46.84048" lon="4.71929">
        <ele>220.16</ele>
        <time>2014-03-23T07:03:36Z</time>
      </trkpt>
      <trkpt lat="46.84066" lon="4.71924">
        <ele>220.55</ele>
        <time>2014-03-23T07:03:41Z</time>
      </trkpt>
      <trkpt lat="46.84084" lon="4.71921">
        <ele>223.01</ele>
        <time>2014-03-23T07:03:47Z</time>
      </trkpt>
      <trkpt lat="46.84104" lon="4.71925">
        <ele>226.31</ele>
        <time>2014-03-23T07:03:56Z</time>
      </trkpt>
      <trkpt lat="46.84123" lon="4.71928">
        <ele>226.72</ele>
        <time>2014-03-23T07:04:05Z</time>
      </trkpt>
      <trkpt lat="46.84141" lon="4.71933">
        <ele>222.49</ele>
        <time>2014-03-23T07:04:15Z</time>
      </trkpt>
      <trkpt lat="46.84161" lon="4.71934">
        <ele>221.16</ele>
        <time>2014-03-23T07:04:23Z</time>
      </trkpt>
      <trkpt lat="46.8418" lon="4.71938">
        <ele>220.63</ele>
        <time>2014-03-23T07:04:29Z</time>
      </trkpt>
      <trkpt lat="46.842" lon="4.71943">
        <ele>221.04</ele>
        <time>2014-03-23T07:04:36Z</time>
      </trkpt>
      <trkpt lat="46.84218" lon="4.71948">
        <ele>221.46</ele>
        <time>2014-03-23T07:04:43Z</time>
      </trkpt>
      <trkpt lat="46.84239" lon="4.71952">
        <ele>223.09</ele>
        <time>2014-03-23T07:04:51Z</time>
      </trkpt>
      <trkpt lat="46.84257" lon="4.71954">
        <ele>225.03</ele>
        <time>2014-03-23T07:04:58Z</time>
      </trkpt>
      <trkpt lat="46.84275" lon="4.7196">
        <ele>228.77</ele>
        <time>2014-03-23T07:05:05Z</time>
      </trkpt>
      <trkpt lat="46.84295" lon="4.71963">
        <ele>230.42</ele>
        <time>2014-03-23T07:05:13Z</time>
      </trkpt>
      <trkpt lat="46.84276" lon="4.71959">
        <ele>232.33</ele>
        <time>2014-03-23T07:05:42Z</time>
      </trkpt>
      <trkpt lat="46.84254" lon="4.71955">
        <ele>231.86</ele>
        <time>2014-03-23T07:05:46Z</time>
      </trkpt>
      <trkpt lat="46.84229" lon="4.71949">
        <ele>231.59</ele>
        <time>2014-03-23T07:05:49Z</time>
      </trkpt>
      <trkpt lat="46.8421" lon="4.71945">
        <ele>230.47</ele>
        <time>2014-03-23T07:05:51Z</time>
      </trkpt>
      <trkpt lat="46.8419" lon="4.71941">
        <ele>229.26</ele>
        <time>2014-03-23T07:05:53Z</time>
      </trkpt>
      <trkpt lat="46.8417" lon="4.71938">
        <ele>228.19</ele>
        <time>2014-03-23T07:05:55Z</time>
      </trkpt>
      <trkpt lat="46.84148" lon="4.71937">
        <ele>226.62</ele>
        <time>2014-03-23T07:05:58Z</time>
      </trkpt>
      <trkpt lat="46.84124" lon="4.71933">
        <ele>224.85</ele>
        <time>2014-03-23T07:06:02Z</time>
      </trkpt>
      <trkpt lat="46.84101" lon="4.71929">
        <ele>223.34</ele>
        <time>2014-03-23T07:06:05Z</time>
      </trkpt>
      <trkpt lat="46.84079" lon="4.71925">
        <ele>221.26</ele>
        <time>2014-03-23T07:06:09Z</time>
      </trkpt>
      <trkpt lat="46.84058" lon="4.71929">
        <ele>219.69</ele>
        <time>2014-03-23T07:06:13Z</time>
      </trkpt>
      <trkpt lat="46.84035" lon="4.71927">
        <ele>218.17</ele>
        <time>2014-03-23T07:06:17Z</time>
      </trkpt>
      <trkpt lat="46.84013" lon="4.7192">
        <ele>216.65</ele>
        <time>2014-03-23T07:06:22Z</time>
      </trkpt>
      <trkpt lat="46.83994" lon="4.71914">
        <ele>215.63</ele>
        <time>2014-03-23T07:06:26Z</time>
      </trkpt>
      <trkpt lat="46.83976" lon="4.71909">
        <ele>214.18</ele>
        <time>2014-03-23T07:06:30Z</time>
      </trkpt>
      <trkpt lat="46.83957" lon="4.71904">
        <ele>212.36</ele>
        <time>2014-03-23T07:06:34Z</time>
      </trkpt>
      <trkpt lat="46.83937" lon="4.71897">
        <ele>210.47</ele>
        <time>2014-03-23T07:06:38Z</time>
      </trkpt>
      <trkpt lat="46.83916" lon="4.71888">
        <ele>208.81</ele>
        <time>2014-03-23T07:06:42Z</time>
      </trkpt>
      <trkpt lat="46.83895" lon="4.71874">
        <ele>207.78</ele>
        <time>2014-03-23T07:06:46Z</time>
      </trkpt>
      <trkpt lat="46.83878" lon="4.71864">
        <ele>207.44</ele>
        <time>2014-03-23T07:06:49Z</time>
      </trkpt>
      <trkpt lat="46.8386" lon="4.71856">
        <ele>206.34</ele>
        <time>2014-03-23T07:06:52Z</time>
      </trkpt>
      <trkpt lat="46.83842" lon="4.71847">
        <ele>204.82</ele>
        <time>2014-03-23T07:06:57Z</time>
      </trkpt>
      <trkpt lat="46.83847" lon="4.71817">
        <ele>204.75</ele>
        <time>2014-03-23T07:07:16Z</time>
      </trkpt>
      <trkpt lat="46.83852" lon="4.71784">
        <ele>203.66</ele>
        <time>2014-03-23T07:07:21Z</time>
      </trkpt>
      <trkpt lat="46.83855" lon="4.71753">
        <ele>202.87</ele>
        <time>2014-03-23T07:07:25Z</time>
      </trkpt>
      <trkpt lat="46.83859" lon="4.71722">
        <ele>202.5</ele>
        <time>2014-03-23T07:07:29Z</time>
      </trkpt>
      <trkpt lat="46.83862" lon="4.71689">
        <ele>203.22</ele>
        <time>2014-03-23T07:07:33Z</time>
      </trkpt>
      <trkpt lat="46.83868" lon="4.7166">
        <ele>203.91</ele>
        <time>2014-03-23T07:07:37Z</time>
      </trkpt>
      <trkpt lat="46.83872" lon="4.71633">
        <ele>203.89</ele>
        <time>2014-03-23T07:07:41Z</time>
      </trkpt>
      <trkpt lat="46.83879" lon="4.71607">
        <ele>204.03</ele>
        <time>2014-03-23T07:07:45Z</time>
      </trkpt>
      <trkpt lat="46.83899" lon="4.71601">
        <ele>208.47</ele>
        <time>2014-03-23T07:07:50Z</time>
      </trkpt>
      <trkpt lat="46.8392" lon="4.71607">
        <ele>209.68</ele>
        <time>2014-03-23T07:07:54Z</time>
      </trkpt>
      <trkpt lat="46.83938" lon="4.71612">
        <ele>211.61</ele>
        <time>2014-03-23T07:07:58Z</time>
      </trkpt>
      <trkpt lat="46.83957" lon="4.71619">
        <ele>212.46</ele>
        <time>2014-03-23T07:08:02Z</time>
      </trkpt>
      <trkpt lat="46.83976" lon="4.71616">
        <ele>215.37</ele>
        <time>2014-03-23T07:08:08Z</time>
      </trkpt>
      <trkpt lat="46.83985" lon="4.71584">
        <ele>215.15</ele>
        <time>2014-03-23T07:08:12Z</time>
      </trkpt>
      <trkpt lat="46.83994" lon="4.71551">
        <ele>214.13</ele>
        <time>2014-03-23T07:08:16Z</time>
      </trkpt>
      <trkpt lat="46.83999" lon="4.71526">
        <ele>213.43</ele>
        <time>2014-03-23T07:08:19Z</time>
      </trkpt>
      <trkpt lat="46.84002" lon="4.71495">
        <ele>211.85</ele>
        <time>2014-03-23T07:08:22Z</time>
      </trkpt>
      <trkpt lat="46.83999" lon="4.7146">
        <ele>209.57</ele>
        <time>2014-03-23T07:08:25Z</time>
      </trkpt>
      <trkpt lat="46.83995" lon="4.71424">
        <ele>207.08</ele>
        <time>2014-03-23T07:08:28Z</time>
      </trkpt>
      <trkpt lat="46.83988" lon="4.71386">
        <ele>204.74</ele>
        <time>2014-03-23T07:08:31Z</time>
      </trkpt>
      <trkpt lat="46.83986" lon="4.71347">
        <ele>202.89</ele>
        <time>2014-03-23T07:08:34Z</time>
      </trkpt>
      <trkpt lat="46.83986" lon="4.7131">
        <ele>200.87</ele>
        <time>2014-03-23T07:08:37Z</time>
      </trkpt>
      <trkpt lat="46.83986" lon="4.71277">
        <ele>198.99</ele>
        <time>2014-03-23T07:08:40Z</time>
      </trkpt>
      <trkpt lat="46.83987" lon="4.71244">
        <ele>197.01</ele>
        <time>2014-03-23T07:08:43Z</time>
      </trkpt>
      <trkpt lat="46.83988" lon="4.71212">
        <ele>195.67</ele>
        <time>2014-03-23T07:08:46Z</time>
      </trkpt>
      <trkpt lat="46.83988" lon="4.71182">
        <ele>194.93</ele>
        <time>2014-03-23T07:08:49Z</time>
      </trkpt>
      <trkpt lat="46.8399" lon="4.71152">
        <ele>194.5</ele>
        <time>2014-03-23T07:08:52Z</time>
      </trkpt>
      <trkpt lat="46.83991" lon="4.71126">
        <ele>194.67</ele>
        <time>2014-03-23T07:08:55Z</time>
      </trkpt>
      <trkpt lat="46.83992" lon="4.71094">
        <ele>193.7</ele>
        <time>2014-03-23T07:08:59Z</time>
      </trkpt>
      <trkpt lat="46.83993" lon="4.71065">
        <ele>194.75</ele>
        <time>2014-03-23T07:09:04Z</time>
      </trkpt>
      <trkpt lat="46.83996" lon="4.71039">
        <ele>195.87</ele>
        <time>2014-03-23T07:09:08Z</time>
      </trkpt>
      <trkpt lat="46.83997" lon="4.71007">
        <ele>196.2</ele>
        <time>2014-03-23T07:09:13Z</time>
      </trkpt>
      <trkpt lat="46.84003" lon="4.70978">
        <ele>197.46</ele>
        <time>2014-03-23T07:09:18Z</time>
      </trkpt>
      <trkpt lat="46.84007" lon="4.7095">
        <ele>199.89</ele>
        <time>2014-03-23T07:09:23Z</time>
      </trkpt>
      <trkpt lat="46.84009" lon="4.70923">
        <ele>201.42</ele>
        <time>2014-03-23T07:09:27Z</time>
      </trkpt>
      <trkpt lat="46.84008" lon="4.70897">
        <ele>201.28</ele>
        <time>2014-03-23T07:09:31Z</time>
      </trkpt>
      <trkpt lat="46.84008" lon="4.70867">
        <ele>202.29</ele>
        <time>2014-03-23T07:09:36Z</time>
      </trkpt>
      <trkpt lat="46.8401" lon="4.70838">
        <ele>204.54</ele>
        <time>2014-03-23T07:09:41Z</time>
      </trkpt>
      <trkpt lat="46.84013" lon="4.70809">
        <ele>206.5</ele>
        <time>2014-03-23T07:09:46Z</time>
      </trkpt>
      <trkpt lat="46.84017" lon="4.7078">
        <ele>208.98</ele>
        <time>2014-03-23T07:09:52Z</time>
      </trkpt>
      <trkpt lat="46.84023" lon="4.7075">
        <ele>210.78</ele>
        <time>2014-03-23T07:09:58Z</time>
      </trkpt>
      <trkpt lat="46.84029" lon="4.70721">
        <ele>212.75</ele>
        <time>2014-03-23T07:10:04Z</time>
      </trkpt>
      <trkpt lat="46.84034" lon="4.70692">
        <ele>214.6</ele>
        <time>2014-03-23T07:10:10Z</time>
      </trkpt>
      <trkpt lat="46.84041" lon="4.70666">
        <ele>216.75</ele>
        <time>2014-03-23T07:10:16Z</time>
      </trkpt>
      <trkpt lat="46.84047" lon="4.70641">
        <ele>218.75</ele>
        <time>2014-03-23T07:10:22Z</time>
      </trkpt>
      <trkpt lat="46.84052" lon="4.70615">
        <ele>219.72</ele>
        <time>2014-03-23T07:10:28Z</time>
      </trkpt>
      <trkpt lat="46.84056" lon="4.70587">
        <ele>221.92</ele>
        <time>2014-03-23T07:10:35Z</time>
      </trkpt>
      <trkpt lat="46.84061" lon="4.7056">
        <ele>223.01</ele>
        <time>2014-03-23T07:10:41Z</time>
      </trkpt>
      <trkpt lat="46.84067" lon="4.7053">
        <ele>223.63</ele>
        <time>2014-03-23T07:10:47Z</time>
      </trkpt>
      <trkpt lat="46.84073" lon="4.70501">
        <ele>224.56</ele>
        <time>2014-03-23T07:10:53Z</time>
      </trkpt>
      <trkpt lat="46.84078" lon="4.7047">
        <ele>225.21</ele>
        <time>2014-03-23T07:10:59Z</time>
      </trkpt>
      <trkpt lat="46.84082" lon="4.70445">
        <ele>226.02</ele>
        <time>2014-03-23T07:11:04Z</time>
      </trkpt>
      <trkpt lat="46.84086" lon="4.70419">
        <ele>227.39</ele>
        <time>2014-03-23T07:11:09Z</time>
      </trkpt>
      <trkpt lat="46.84084" lon="4.70392">
        <ele>230.04</ele>
        <time>2014-03-23T07:11:15Z</time>
      </trkpt>
      <trkpt lat="46.8407" lon="4.70368">
        <ele>230.67</ele>
        <time>2014-03-23T07:11:21Z</time>
      </trkpt>
      <trkpt lat="46.84056" lon="4.70351">
        <ele>232.02</ele>
        <time>2014-03-23T07:11:25Z</time>
      </trkpt>
      <trkpt lat="46.8404" lon="4.70339">
        <ele>234.21</ele>
        <time>2014-03-23T07:11:30Z</time>
      </trkpt>
      <trkpt lat="46.84023" lon="4.70327">
        <ele>237.42</ele>
        <time>2014-03-23T07:11:37Z</time>
      </trkpt>
      <trkpt lat="46.84006" lon="4.70314">
        <ele>239.32</ele>
        <time>2014-03-23T07:11:45Z</time>
      </trkpt>
      <trkpt lat="46.83988" lon="4.70303">
        <ele>241.05</ele>
        <time>2014-03-23T07:11:53Z</time>
      </trkpt>
      <trkpt lat="46.83984" lon="4.70275">
        <ele>240.67</ele>
        <time>2014-03-23T07:12:03Z</time>
      </trkpt>
      <trkpt lat="46.8399" lon="4.7025">
        <ele>241.28</ele>
        <time>2014-03-23T07:12:12Z</time>
      </trkpt>
      <trkpt lat="46.83995" lon="4.70224">
        <ele>245.01</ele>
        <time>2014-03-23T07:12:22Z</time>
      </trkpt>
      <trkpt lat="46.83999" lon="4.70198">
        <ele>246.77</ele>
        <time>2014-03-23T07:12:33Z</time>
      </trkpt>
      <trkpt lat="46.84005" lon="4.70173">
        <ele>249.68</ele>
        <time>2014-03-23T07:12:44Z</time>
      </trkpt>
      <trkpt lat="46.84011" lon="4.70148">
        <ele>252.63</ele>
        <time>2014-03-23T07:12:54Z</time>
      </trkpt>
      <trkpt lat="46.84022" lon="4.70125">
        <ele>255.89</ele>
        <time>2014-03-23T07:13:06Z</time>
      </trkpt>
      <trkpt lat="46.84041" lon="4.70119">
        <ele>256.54</ele>
        <time>2014-03-23T07:13:14Z</time>
      </trkpt>
      <trkpt lat="46.84054" lon="4.701">
        <ele>258.6</ele>
        <time>2014-03-23T07:13:23Z</time>
      </trkpt>
      <trkpt lat="46.84065" lon="4.70078">
        <ele>261.08</ele>
        <time>2014-03-23T07:13:32Z</time>
      </trkpt>
      <trkpt lat="46.84075" lon="4.70054">
        <ele>264.12</ele>
        <time>2014-03-23T07:13:41Z</time>
      </trkpt>
      <trkpt lat="46.84086" lon="4.70031">
        <ele>268.4</ele>
        <time>2014-03-23T07:13:53Z</time>
      </trkpt>
      <trkpt lat="46.84096" lon="4.70008">
        <ele>269.36</ele>
        <time>2014-03-23T07:14:04Z</time>
      </trkpt>
      <trkpt lat="46.84109" lon="4.69988">
        <ele>271.34</ele>
        <time>2014-03-23T07:14:15Z</time>
      </trkpt>
      <trkpt lat="46.84122" lon="4.69968">
        <ele>273.22</ele>
        <time>2014-03-23T07:14:26Z</time>
      </trkpt>
      <trkpt lat="46.84134" lon="4.69948">
        <ele>275.91</ele>
        <time>2014-03-23T07:14:36Z</time>
      </trkpt>
      <trkpt lat="46.84147" lon="4.69928">
        <ele>277.34</ele>
        <time>2014-03-23T07:14:46Z</time>
      </trkpt>
      <trkpt lat="46.84152" lon="4.699">
        <ele>278.69</ele>
        <time>2014-03-23T07:14:57Z</time>
      </trkpt>
      <trkpt lat="46.84139" lon="4.6988">
        <ele>280.63</ele>
        <time>2014-03-23T07:15:06Z</time>
      </trkpt>
      <trkpt lat="46.84127" lon="4.69857">
        <ele>281.74</ele>
        <time>2014-03-23T07:15:13Z</time>
      </trkpt>
      <trkpt lat="46.84112" lon="4.69837">
        <ele>282.87</ele>
        <time>2014-03-23T07:15:19Z</time>
      </trkpt>
      <trkpt lat="46.84096" lon="4.69818">
        <ele>284.31</ele>
        <time>2014-03-23T07:15:25Z</time>
      </trkpt>
      <trkpt lat="46.84081" lon="4.69801">
        <ele>285.57</ele>
        <time>2014-03-23T07:15:31Z</time>
      </trkpt>
      <trkpt lat="46.84065" lon="4.69787">
        <ele>286.31</ele>
        <time>2014-03-23T07:15:37Z</time>
      </trkpt>
      <trkpt lat="46.84048" lon="4.69771">
        <ele>287.14</ele>
        <time>2014-03-23T07:15:44Z</time>
      </trkpt>
      <trkpt lat="46.84033" lon="4.69754">
        <ele>288.35</ele>
        <time>2014-03-23T07:15:50Z</time>
      </trkpt>
      <trkpt lat="46.84016" lon="4.69742">
        <ele>290.05</ele>
        <time>2014-03-23T07:15:56Z</time>
      </trkpt>
      <trkpt lat="46.83995" lon="4.69736">
        <ele>290.95</ele>
        <time>2014-03-23T07:16:02Z</time>
      </trkpt>
      <trkpt lat="46.83978" lon="4.69726">
        <ele>291.67</ele>
        <time>2014-03-23T07:16:07Z</time>
      </trkpt>
      <trkpt lat="46.83961" lon="4.69714">
        <ele>292.68</ele>
        <time>2014-03-23T07:16:12Z</time>
      </trkpt>
      <trkpt lat="46.83945" lon="4.69701">
        <ele>294.36</ele>
        <time>2014-03-23T07:16:17Z</time>
      </trkpt>
      <trkpt lat="46.83931" lon="4.69684">
        <ele>295.63</ele>
        <time>2014-03-23T07:16:22Z</time>
      </trkpt>
      <trkpt lat="46.83915" lon="4.69665">
        <ele>296.28</ele>
        <time>2014-03-23T07:16:27Z</time>
      </trkpt>
      <trkpt lat="46.83902" lon="4.69647">
        <ele>296.89</ele>
        <time>2014-03-23T07:16:32Z</time>
      </trkpt>
      <trkpt lat="46.83891" lon="4.69626">
        <ele>296.78</ele>
        <time>2014-03-23T07:16:37Z</time>
      </trkpt>
      <trkpt lat="46.83872" lon="4.69617">
        <ele>295.67</ele>
        <time>2014-03-23T07:16:42Z</time>
      </trkpt>
      <trkpt lat="46.83855" lon="4.69634">
        <ele>294.03</ele>
        <time>2014-03-23T07:16:45Z</time>
      </trkpt>
      <trkpt lat="46.83836" lon="4.69632">
        <ele>292.64</ele>
        <time>2014-03-23T07:16:49Z</time>
      </trkpt>
      <trkpt lat="46.83839" lon="4.69604">
        <ele>288.21</ele>
        <time>2014-03-23T07:16:54Z</time>
      </trkpt>
      <trkpt lat="46.83847" lon="4.69577">
        <ele>284.49</ele>
        <time>2014-03-23T07:16:59Z</time>
      </trkpt>
      <trkpt lat="46.83862" lon="4.69557">
        <ele>283.11</ele>
        <time>2014-03-23T07:17:04Z</time>
      </trkpt>
      <trkpt lat="46.83877" lon="4.69539">
        <ele>283.31</ele>
        <time>2014-03-23T07:17:09Z</time>
      </trkpt>
      <trkpt lat="46.83892" lon="4.69523">
        <ele>284.24</ele>
        <time>2014-03-23T07:17:14Z</time>
      </trkpt>
      <trkpt lat="46.83908" lon="4.69509">
        <ele>285.15</ele>
        <time>2014-03-23T07:17:19Z</time>
      </trkpt>
      <trkpt lat="46.83926" lon="4.69497">
        <ele>285.22</ele>
        <time>2014-03-23T07:17:24Z</time>
      </trkpt>
      <trkpt lat="46.83914" lon="4.6947">
        <ele>285.11</ele>
        <time>2014-03-23T07:17:28Z</time>
      </trkpt>
      <trkpt lat="46.83907" lon="4.69442">
        <ele>284.18</ele>
        <time>2014-03-23T07:17:31Z</time>
      </trkpt>
      <trkpt lat="46.83903" lon="4.69407">
        <ele>282.79</ele>
        <time>2014-03-23T07:17:34Z</time>
      </trkpt>
      <trkpt lat="46.83899" lon="4.69372">
        <ele>281.92</ele>
        <time>2014-03-23T07:17:37Z</time>
      </trkpt>
      <trkpt lat="46.83894" lon="4.69345">
        <ele>281.41</ele>
        <time>2014-03-23T07:17:40Z</time>
      </trkpt>
      <trkpt lat="46.83908" lon="4.69322">
        <ele>280</ele>
        <time>2014-03-23T07:17:45Z</time>
      </trkpt>
      <trkpt lat="46.83923" lon="4.69304">
        <ele>279.32</ele>
        <time>2014-03-23T07:17:51Z</time>
      </trkpt>
      <trkpt lat="46.83938" lon="4.69287">
        <ele>278.28</ele>
        <time>2014-03-23T07:17:55Z</time>
      </trkpt>
      <trkpt lat="46.83958" lon="4.69277">
        <ele>276.23</ele>
        <time>2014-03-23T07:17:59Z</time>
      </trkpt>
      <trkpt lat="46.83976" lon="4.6927">
        <ele>274.46</ele>
        <time>2014-03-23T07:18:02Z</time>
      </trkpt>
      <trkpt lat="46.83995" lon="4.69265">
        <ele>272.15</ele>
        <time>2014-03-23T07:18:05Z</time>
      </trkpt>
      <trkpt lat="46.8402" lon="4.69258">
        <ele>269.49</ele>
        <time>2014-03-23T07:18:08Z</time>
      </trkpt>
      <trkpt lat="46.8404" lon="4.69256">
        <ele>267.59</ele>
        <time>2014-03-23T07:18:10Z</time>
      </trkpt>
      <trkpt lat="46.84062" lon="4.69255">
        <ele>265.42</ele>
        <time>2014-03-23T07:18:12Z</time>
      </trkpt>
      <trkpt lat="46.84085" lon="4.6925">
        <ele>263.05</ele>
        <time>2014-03-23T07:18:14Z</time>
      </trkpt>
      <trkpt lat="46.84107" lon="4.69241">
        <ele>261.46</ele>
        <time>2014-03-23T07:18:16Z</time>
      </trkpt>
      <trkpt lat="46.84129" lon="4.69234">
        <ele>258.89</ele>
        <time>2014-03-23T07:18:19Z</time>
      </trkpt>
      <trkpt lat="46.84152" lon="4.69237">
        <ele>256.89</ele>
        <time>2014-03-23T07:18:22Z</time>
      </trkpt>
      <trkpt lat="46.84178" lon="4.69246">
        <ele>254.23</ele>
        <time>2014-03-23T07:18:25Z</time>
      </trkpt>
      <trkpt lat="46.842" lon="4.69252">
        <ele>250.39</ele>
        <time>2014-03-23T07:18:28Z</time>
      </trkpt>
      <trkpt lat="46.84221" lon="4.69256">
        <ele>246.77</ele>
        <time>2014-03-23T07:18:31Z</time>
      </trkpt>
      <trkpt lat="46.84244" lon="4.69264">
        <ele>243.58</ele>
        <time>2014-03-23T07:18:34Z</time>
      </trkpt>
      <trkpt lat="46.84264" lon="4.69274">
        <ele>240.55</ele>
        <time>2014-03-23T07:18:37Z</time>
      </trkpt>
      <trkpt lat="46.84287" lon="4.69274">
        <ele>238.61</ele>
        <time>2014-03-23T07:18:40Z</time>
      </trkpt>
      <trkpt lat="46.84307" lon="4.69262">
        <ele>237.26</ele>
        <time>2014-03-23T07:18:43Z</time>
      </trkpt>
      <trkpt lat="46.84319" lon="4.69241">
        <ele>236.83</ele>
        <time>2014-03-23T07:18:46Z</time>
      </trkpt>
      <trkpt lat="46.84321" lon="4.69213">
        <ele>236.99</ele>
        <time>2014-03-23T07:18:50Z</time>
      </trkpt>
      <trkpt lat="46.84326" lon="4.69183">
        <ele>236.89</ele>
        <time>2014-03-23T07:18:56Z</time>
      </trkpt>
      <trkpt lat="46.84339" lon="4.69163">
        <ele>241.6</ele>
        <time>2014-03-23T07:19:03Z</time>
      </trkpt>
      <trkpt lat="46.84357" lon="4.69149">
        <ele>248.67</ele>
        <time>2014-03-23T07:19:13Z</time>
      </trkpt>
      <trkpt lat="46.84375" lon="4.69138">
        <ele>255.52</ele>
        <time>2014-03-23T07:19:23Z</time>
      </trkpt>
      <trkpt lat="46.84392" lon="4.69123">
        <ele>260.33</ele>
        <time>2014-03-23T07:19:34Z</time>
      </trkpt>
      <trkpt lat="46.84409" lon="4.69112">
        <ele>265.85</ele>
        <time>2014-03-23T07:19:45Z</time>
      </trkpt>
      <trkpt lat="46.84425" lon="4.691">
        <ele>269.99</ele>
        <time>2014-03-23T07:19:55Z</time>
      </trkpt>
      <trkpt lat="46.84444" lon="4.69098">
        <ele>273.37</ele>
        <time>2014-03-23T07:20:04Z</time>
      </trkpt>
      <trkpt lat="46.84462" lon="4.69098">
        <ele>277.05</ele>
        <time>2014-03-23T07:20:15Z</time>
      </trkpt>
      <trkpt lat="46.84481" lon="4.69104">
        <ele>276.37</ele>
        <time>2014-03-23T07:20:21Z</time>
      </trkpt>
      <trkpt lat="46.845" lon="4.69111">
        <ele>275.21</ele>
        <time>2014-03-23T07:20:28Z</time>
      </trkpt>
      <trkpt lat="46.84518" lon="4.69121">
        <ele>273.85</ele>
        <time>2014-03-23T07:20:36Z</time>
      </trkpt>
      <trkpt lat="46.84538" lon="4.69123">
        <ele>273.23</ele>
        <time>2014-03-23T07:20:45Z</time>
      </trkpt>
      <trkpt lat="46.84556" lon="4.69117">
        <ele>272.6</ele>
        <time>2014-03-23T07:20:54Z</time>
      </trkpt>
      <trkpt lat="46.84572" lon="4.69101">
        <ele>275.09</ele>
        <time>2014-03-23T07:21:04Z</time>
      </trkpt>
      <trkpt lat="46.84589" lon="4.6909">
        <ele>277.93</ele>
        <time>2014-03-23T07:21:13Z</time>
      </trkpt>
      <trkpt lat="46.84607" lon="4.69078">
        <ele>281.13</ele>
        <time>2014-03-23T07:21:23Z</time>
      </trkpt>
      <trkpt lat="46.84626" lon="4.69075">
        <ele>281.92</ele>
        <time>2014-03-23T07:21:32Z</time>
      </trkpt>
      <trkpt lat="46.84643" lon="4.69086">
        <ele>281.68</ele>
        <time>2014-03-23T07:21:37Z</time>
      </trkpt>
      <trkpt lat="46.84666" lon="4.69096">
        <ele>279.22</ele>
        <time>2014-03-23T07:21:41Z</time>
      </trkpt>
      <trkpt lat="46.84691" lon="4.69105">
        <ele>275.92</ele>
        <time>2014-03-23T07:21:44Z</time>
      </trkpt>
      <trkpt lat="46.84712" lon="4.69112">
        <ele>273.95</ele>
        <time>2014-03-23T07:21:46Z</time>
      </trkpt>
      <trkpt lat="46.84734" lon="4.69119">
        <ele>271.93</ele>
        <time>2014-03-23T07:21:48Z</time>
      </trkpt>
      <trkpt lat="46.84753" lon="4.69129">
        <ele>269.9</ele>
        <time>2014-03-23T07:21:50Z</time>
      </trkpt>
      <trkpt lat="46.84769" lon="4.69144">
        <ele>267.41</ele>
        <time>2014-03-23T07:21:53Z</time>
      </trkpt>
      <trkpt lat="46.84788" lon="4.69146">
        <ele>264.72</ele>
        <time>2014-03-23T07:21:56Z</time>
      </trkpt>
      <trkpt lat="46.84802" lon="4.69125">
        <ele>260.51</ele>
        <time>2014-03-23T07:22:02Z</time>
      </trkpt>
      <trkpt lat="46.84809" lon="4.69097">
        <ele>259.29</ele>
        <time>2014-03-23T07:22:08Z</time>
      </trkpt>
      <trkpt lat="46.84823" lon="4.69079">
        <ele>259.13</ele>
        <time>2014-03-23T07:22:14Z</time>
      </trkpt>
      <trkpt lat="46.84843" lon="4.69089">
        <ele>262.05</ele>
        <time>2014-03-23T07:22:20Z</time>
      </trkpt>
      <trkpt lat="46.8486" lon="4.69102">
        <ele>264.73</ele>
        <time>2014-03-23T07:22:26Z</time>
      </trkpt>
      <trkpt lat="46.84872" lon="4.69124">
        <ele>266.76</ele>
        <time>2014-03-23T07:22:33Z</time>
      </trkpt>
      <trkpt lat="46.84889" lon="4.69136">
        <ele>268.95</ele>
        <time>2014-03-23T07:22:40Z</time>
      </trkpt>
      <trkpt lat="46.84905" lon="4.69149">
        <ele>272.35</ele>
        <time>2014-03-23T07:22:48Z</time>
      </trkpt>
      <trkpt lat="46.84915" lon="4.69171">
        <ele>274.84</ele>
        <time>2014-03-23T07:22:56Z</time>
      </trkpt>
      <trkpt lat="46.84922" lon="4.69196">
        <ele>277.33</ele>
        <time>2014-03-23T07:23:03Z</time>
      </trkpt>
      <trkpt lat="46.84923" lon="4.69226">
        <ele>279.18</ele>
        <time>2014-03-23T07:23:10Z</time>
      </trkpt>
      <trkpt lat="46.8493" lon="4.69253">
        <ele>280.73</ele>
        <time>2014-03-23T07:23:17Z</time>
      </trkpt>
      <trkpt lat="46.84942" lon="4.69276">
        <ele>281.11</ele>
        <time>2014-03-23T07:23:24Z</time>
      </trkpt>
      <trkpt lat="46.84955" lon="4.69297">
        <ele>282.27</ele>
        <time>2014-03-23T07:23:31Z</time>
      </trkpt>
      <trkpt lat="46.84973" lon="4.69293">
        <ele>281.42</ele>
        <time>2014-03-23T07:23:41Z</time>
      </trkpt>
      <trkpt lat="46.84977" lon="4.69266">
        <ele>281.98</ele>
        <time>2014-03-23T07:23:47Z</time>
      </trkpt>
      <trkpt lat="46.84981" lon="4.69235">
        <ele>283.53</ele>
        <time>2014-03-23T07:23:53Z</time>
      </trkpt>
      <trkpt lat="46.84986" lon="4.69208">
        <ele>284.56</ele>
        <time>2014-03-23T07:23:58Z</time>
      </trkpt>
      <trkpt lat="46.84992" lon="4.69179">
        <ele>286.06</ele>
        <time>2014-03-23T07:24:04Z</time>
      </trkpt>
      <trkpt lat="46.84997" lon="4.69149">
        <ele>286.1</ele>
        <time>2014-03-23T07:24:10Z</time>
      </trkpt>
      <trkpt lat="46.84997" lon="4.69123">
        <ele>286.5</ele>
        <time>2014-03-23T07:24:16Z</time>
      </trkpt>
      <trkpt lat="46.85016" lon="4.69133">
        <ele>288.89</ele>
        <time>2014-03-23T07:24:25Z</time>
      </trkpt>
      <trkpt lat="46.85032" lon="4.69152">
        <ele>292.35</ele>
        <time>2014-03-23T07:24:32Z</time>
      </trkpt>
      <trkpt lat="46.85046" lon="4.6917">
        <ele>295.57</ele>
        <time>2014-03-23T07:24:39Z</time>
      </trkpt>
      <trkpt lat="46.85057" lon="4.69192">
        <ele>298.63</ele>
        <time>2014-03-23T07:24:45Z</time>
      </trkpt>
      <trkpt lat="46.85066" lon="4.69215">
        <ele>301.31</ele>
        <time>2014-03-23T07:24:51Z</time>
      </trkpt>
      <trkpt lat="46.85076" lon="4.69237">
        <ele>301.99</ele>
        <time>2014-03-23T07:24:56Z</time>
      </trkpt>
      <trkpt lat="46.8509" lon="4.69256">
        <ele>302.46</ele>
        <time>2014-03-23T07:25:00Z</time>
      </trkpt>
      <trkpt lat="46.85107" lon="4.69273">
        <ele>301.13</ele>
        <time>2014-03-23T07:25:04Z</time>
      </trkpt>
      <trkpt lat="46.85124" lon="4.69294">
        <ele>299.71</ele>
        <time>2014-03-23T07:25:08Z</time>
      </trkpt>
      <trkpt lat="46.85135" lon="4.69319">
        <ele>298.61</ele>
        <time>2014-03-23T07:25:11Z</time>
      </trkpt>
      <trkpt lat="46.85148" lon="4.69348">
        <ele>296.76</ele>
        <time>2014-03-23T07:25:14Z</time>
      </trkpt>
      <trkpt lat="46.85163" lon="4.6938">
        <ele>294.28</ele>
        <time>2014-03-23T07:25:17Z</time>
      </trkpt>
      <trkpt lat="46.85174" lon="4.69404">
        <ele>292.44</ele>
        <time>2014-03-23T07:25:19Z</time>
      </trkpt>
      <trkpt lat="46.85184" lon="4.69429">
        <ele>290.78</ele>
        <time>2014-03-23T07:25:21Z</time>
      </trkpt>
      <trkpt lat="46.85196" lon="4.69454">
        <ele>289.01</ele>
        <time>2014-03-23T07:25:23Z</time>
      </trkpt>
      <trkpt lat="46.85209" lon="4.69476">
        <ele>287.52</ele>
        <time>2014-03-23T07:25:25Z</time>
      </trkpt>
      <trkpt lat="46.85226" lon="4.69494">
        <ele>285.85</ele>
        <time>2014-03-23T07:25:27Z</time>
      </trkpt>
      <trkpt lat="46.85243" lon="4.69507">
        <ele>284.06</ele>
        <time>2014-03-23T07:25:29Z</time>
      </trkpt>
      <trkpt lat="46.85259" lon="4.69519">
        <ele>282.48</ele>
        <time>2014-03-23T07:25:31Z</time>
      </trkpt>
      <trkpt lat="46.8528" lon="4.69543">
        <ele>281.45</ele>
        <time>2014-03-23T07:25:34Z</time>
      </trkpt>
      <trkpt lat="46.85299" lon="4.69566">
        <ele>280.73</ele>
        <time>2014-03-23T07:25:37Z</time>
      </trkpt>
      <trkpt lat="46.85317" lon="4.69584">
        <ele>280.32</ele>
        <time>2014-03-23T07:25:40Z</time>
      </trkpt>
      <trkpt lat="46.85333" lon="4.69602">
        <ele>280.32</ele>
        <time>2014-03-23T07:25:43Z</time>
      </trkpt>
      <trkpt lat="46.85348" lon="4.69622">
        <ele>280.92</ele>
        <time>2014-03-23T07:25:46Z</time>
      </trkpt>
      <trkpt lat="46.85365" lon="4.6964">
        <ele>281.85</ele>
        <time>2014-03-23T07:25:49Z</time>
      </trkpt>
      <trkpt lat="46.85382" lon="4.69657">
        <ele>282.36</ele>
        <time>2014-03-23T07:25:52Z</time>
      </trkpt>
      <trkpt lat="46.85398" lon="4.69675">
        <ele>282.68</ele>
        <time>2014-03-23T07:25:55Z</time>
      </trkpt>
      <trkpt lat="46.85415" lon="4.6969">
        <ele>283.19</ele>
        <time>2014-03-23T07:25:58Z</time>
      </trkpt>
      <trkpt lat="46.85431" lon="4.69704">
        <ele>283.59</ele>
        <time>2014-03-23T07:26:01Z</time>
      </trkpt>
      <trkpt lat="46.85448" lon="4.69718">
        <ele>283.68</ele>
        <time>2014-03-23T07:26:04Z</time>
      </trkpt>
      <trkpt lat="46.85464" lon="4.69733">
        <ele>283.44</ele>
        <time>2014-03-23T07:26:07Z</time>
      </trkpt>
      <trkpt lat="46.8548" lon="4.69748">
        <ele>283.1</ele>
        <time>2014-03-23T07:26:10Z</time>
      </trkpt>
      <trkpt lat="46.85499" lon="4.69763">
        <ele>282.72</ele>
        <time>2014-03-23T07:26:13Z</time>
      </trkpt>
      <trkpt lat="46.85516" lon="4.69778">
        <ele>282.61</ele>
        <time>2014-03-23T07:26:16Z</time>
      </trkpt>
      <trkpt lat="46.85534" lon="4.69793">
        <ele>282.72</ele>
        <time>2014-03-23T07:26:19Z</time>
      </trkpt>
      <trkpt lat="46.8555" lon="4.69807">
        <ele>282.83</ele>
        <time>2014-03-23T07:26:22Z</time>
      </trkpt>
      <trkpt lat="46.85572" lon="4.69814">
        <ele>283.27</ele>
        <time>2014-03-23T07:26:26Z</time>
      </trkpt>
      <trkpt lat="46.85589" lon="4.698">
        <ele>283.84</ele>
        <time>2014-03-23T07:26:30Z</time>
      </trkpt>
      <trkpt lat="46.85604" lon="4.69784">
        <ele>285</ele>
        <time>2014-03-23T07:26:34Z</time>
      </trkpt>
      <trkpt lat="46.85618" lon="4.69768">
        <ele>285.62</ele>
        <time>2014-03-23T07:26:38Z</time>
      </trkpt>
      <trkpt lat="46.85632" lon="4.69747">
        <ele>285.65</ele>
        <time>2014-03-23T07:26:43Z</time>
      </trkpt>
      <trkpt lat="46.85645" lon="4.69724">
        <ele>286.05</ele>
        <time>2014-03-23T07:26:48Z</time>
      </trkpt>
      <trkpt lat="46.85658" lon="4.697">
        <ele>286.71</ele>
        <time>2014-03-23T07:26:54Z</time>
      </trkpt>
      <trkpt lat="46.85668" lon="4.69674">
        <ele>287.56</ele>
        <time>2014-03-23T07:27:00Z</time>
      </trkpt>
      <trkpt lat="46.85681" lon="4.69652">
        <ele>288.46</ele>
        <time>2014-03-23T07:27:06Z</time>
      </trkpt>
      <trkpt lat="46.85699" lon="4.69642">
        <ele>289.26</ele>
        <time>2014-03-23T07:27:14Z</time>
      </trkpt>
      <trkpt lat="46.85717" lon="4.69653">
        <ele>289.28</ele>
        <time>2014-03-23T07:27:20Z</time>
      </trkpt>
      <trkpt lat="46.85736" lon="4.69664">
        <ele>287.92</ele>
        <time>2014-03-23T07:27:26Z</time>
      </trkpt>
      <trkpt lat="46.85754" lon="4.69672">
        <ele>288.41</ele>
        <time>2014-03-23T07:27:32Z</time>
      </trkpt>
      <trkpt lat="46.85774" lon="4.69683">
        <ele>289.03</ele>
        <time>2014-03-23T07:27:39Z</time>
      </trkpt>
      <trkpt lat="46.85792" lon="4.69692">
        <ele>288.33</ele>
        <time>2014-03-23T07:27:45Z</time>
      </trkpt>
      <trkpt lat="46.85809" lon="4.697">
        <ele>289.5</ele>
        <time>2014-03-23T07:27:51Z</time>
      </trkpt>
      <trkpt lat="46.85828" lon="4.69709">
        <ele>290.13</ele>
        <time>2014-03-23T07:27:58Z</time>
      </trkpt>
      <trkpt lat="46.85846" lon="4.69717">
        <ele>290.66</ele>
        <time>2014-03-23T07:28:05Z</time>
      </trkpt>
      <trkpt lat="46.85863" lon="4.69701">
        <ele>292.85</ele>
        <time>2014-03-23T07:28:14Z</time>
      </trkpt>
      <trkpt lat="46.85872" lon="4.69676">
        <ele>295.7</ele>
        <time>2014-03-23T07:28:23Z</time>
      </trkpt>
      <trkpt lat="46.85879" lon="4.69651">
        <ele>298.96</ele>
        <time>2014-03-23T07:28:33Z</time>
      </trkpt>
      <trkpt lat="46.85887" lon="4.69624">
        <ele>301.92</ele>
        <time>2014-03-23T07:28:43Z</time>
      </trkpt>
      <trkpt lat="46.85893" lon="4.69597">
        <ele>304.98</ele>
        <time>2014-03-23T07:28:53Z</time>
      </trkpt>
      <trkpt lat="46.85892" lon="4.6957">
        <ele>309.05</ele>
        <time>2014-03-23T07:29:07Z</time>
      </trkpt>
      <trkpt lat="46.85884" lon="4.69546">
        <ele>313.3</ele>
        <time>2014-03-23T07:29:21Z</time>
      </trkpt>
      <trkpt lat="46.85871" lon="4.69527">
        <ele>319.59</ele>
        <time>2014-03-23T07:29:38Z</time>
      </trkpt>
      <trkpt lat="46.85871" lon="4.69499">
        <ele>325.45</ele>
        <time>2014-03-23T07:29:58Z</time>
      </trkpt>
      <trkpt lat="46.8588" lon="4.69476">
        <ele>328.22</ele>
        <time>2014-03-23T07:30:12Z</time>
      </trkpt>
      <trkpt lat="46.85892" lon="4.69454">
        <ele>332.19</ele>
        <time>2014-03-23T07:30:29Z</time>
      </trkpt>
      <trkpt lat="46.85903" lon="4.69433">
        <ele>334.46</ele>
        <time>2014-03-23T07:30:39Z</time>
      </trkpt>
      <trkpt lat="46.85915" lon="4.69414">
        <ele>337.72</ele>
        <time>2014-03-23T07:30:52Z</time>
      </trkpt>
      <trkpt lat="46.85928" lon="4.69391">
        <ele>340.1</ele>
        <time>2014-03-23T07:31:04Z</time>
      </trkpt>
      <trkpt lat="46.85944" lon="4.69376">
        <ele>343.08</ele>
        <time>2014-03-23T07:31:16Z</time>
      </trkpt>
      <trkpt lat="46.8596" lon="4.69361">
        <ele>345.6</ele>
        <time>2014-03-23T07:31:31Z</time>
      </trkpt>
      <trkpt lat="46.85977" lon="4.69348">
        <ele>346.79</ele>
        <time>2014-03-23T07:31:41Z</time>
      </trkpt>
      <trkpt lat="46.85996" lon="4.69341">
        <ele>348.87</ele>
        <time>2014-03-23T07:31:53Z</time>
      </trkpt>
      <trkpt lat="46.86015" lon="4.69349">
        <ele>350.07</ele>
        <time>2014-03-23T07:32:02Z</time>
      </trkpt>
      <trkpt lat="46.86032" lon="4.69362">
        <ele>350.16</ele>
        <time>2014-03-23T07:32:09Z</time>
      </trkpt>
      <trkpt lat="46.86048" lon="4.69378">
        <ele>350.85</ele>
        <time>2014-03-23T07:32:17Z</time>
      </trkpt>
      <trkpt lat="46.86064" lon="4.69395">
        <ele>354.72</ele>
        <time>2014-03-23T07:32:26Z</time>
      </trkpt>
      <trkpt lat="46.86076" lon="4.69418">
        <ele>362.46</ele>
        <time>2014-03-23T07:32:38Z</time>
      </trkpt>
      <trkpt lat="46.86088" lon="4.69439">
        <ele>366.72</ele>
        <time>2014-03-23T07:32:48Z</time>
      </trkpt>
      <trkpt lat="46.86104" lon="4.69456">
        <ele>368.4</ele>
        <time>2014-03-23T07:33:02Z</time>
      </trkpt>
      <trkpt lat="46.86118" lon="4.69473">
        <ele>369.96</ele>
        <time>2014-03-23T07:33:10Z</time>
      </trkpt>
      <trkpt lat="46.86135" lon="4.69488">
        <ele>367.03</ele>
        <time>2014-03-23T07:33:23Z</time>
      </trkpt>
      <trkpt lat="46.86152" lon="4.69499">
        <ele>367.65</ele>
        <time>2014-03-23T07:33:31Z</time>
      </trkpt>
      <trkpt lat="46.86169" lon="4.69511">
        <ele>370.13</ele>
        <time>2014-03-23T07:33:39Z</time>
      </trkpt>
      <trkpt lat="46.86185" lon="4.69525">
        <ele>373.57</ele>
        <time>2014-03-23T07:33:50Z</time>
      </trkpt>
      <trkpt lat="46.86201" lon="4.69536">
        <ele>374.51</ele>
        <time>2014-03-23T07:33:58Z</time>
      </trkpt>
      <trkpt lat="46.86219" lon="4.69549">
        <ele>377.65</ele>
        <time>2014-03-23T07:34:07Z</time>
      </trkpt>
      <trkpt lat="46.86238" lon="4.69558">
        <ele>379.69</ele>
        <time>2014-03-23T07:34:13Z</time>
      </trkpt>
      <trkpt lat="46.86256" lon="4.69563">
        <ele>382.76</ele>
        <time>2014-03-23T07:34:20Z</time>
      </trkpt>
      <trkpt lat="46.86276" lon="4.69561">
        <ele>385.61</ele>
        <time>2014-03-23T07:34:28Z</time>
      </trkpt>
      <trkpt lat="46.86295" lon="4.69558">
        <ele>385.11</ele>
        <time>2014-03-23T07:34:35Z</time>
      </trkpt>
      <trkpt lat="46.86315" lon="4.69561">
        <ele>384.94</ele>
        <time>2014-03-23T07:34:40Z</time>
      </trkpt>
      <trkpt lat="46.86333" lon="4.69576">
        <ele>384.09</ele>
        <time>2014-03-23T07:34:46Z</time>
      </trkpt>
      <trkpt lat="46.86343" lon="4.69602">
        <ele>382.86</ele>
        <time>2014-03-23T07:34:51Z</time>
      </trkpt>
      <trkpt lat="46.86351" lon="4.69627">
        <ele>383.67</ele>
        <time>2014-03-23T07:34:55Z</time>
      </trkpt>
      <trkpt lat="46.86362" lon="4.69653">
        <ele>383.74</ele>
        <time>2014-03-23T07:34:59Z</time>
      </trkpt>
      <trkpt lat="46.86373" lon="4.69685">
        <ele>385.22</ele>
        <time>2014-03-23T07:35:03Z</time>
      </trkpt>
      <trkpt lat="46.86386" lon="4.69711">
        <ele>382.67</ele>
        <time>2014-03-23T07:35:06Z</time>
      </trkpt>
      <trkpt lat="46.86399" lon="4.69738">
        <ele>379.52</ele>
        <time>2014-03-23T07:35:09Z</time>
      </trkpt>
      <trkpt lat="46.86409" lon="4.69768">
        <ele>377.36</ele>
        <time>2014-03-23T07:35:12Z</time>
      </trkpt>
      <trkpt lat="46.86423" lon="4.69797">
        <ele>375.35</ele>
        <time>2014-03-23T07:35:15Z</time>
      </trkpt>
      <trkpt lat="46.86436" lon="4.69828">
        <ele>371.54</ele>
        <time>2014-03-23T07:35:18Z</time>
      </trkpt>
      <trkpt lat="46.86449" lon="4.69858">
        <ele>367.37</ele>
        <time>2014-03-23T07:35:21Z</time>
      </trkpt>
      <trkpt lat="46.86462" lon="4.69887">
        <ele>364.17</ele>
        <time>2014-03-23T07:35:24Z</time>
      </trkpt>
      <trkpt lat="46.86475" lon="4.69916">
        <ele>360.83</ele>
        <time>2014-03-23T07:35:27Z</time>
      </trkpt>
      <trkpt lat="46.86488" lon="4.69943">
        <ele>356.7</ele>
        <time>2014-03-23T07:35:30Z</time>
      </trkpt>
      <trkpt lat="46.865" lon="4.69969">
        <ele>353.53</ele>
        <time>2014-03-23T07:35:33Z</time>
      </trkpt>
      <trkpt lat="46.86511" lon="4.69995">
        <ele>351.69</ele>
        <time>2014-03-23T07:35:36Z</time>
      </trkpt>
      <trkpt lat="46.86524" lon="4.70023">
        <ele>349.6</ele>
        <time>2014-03-23T07:35:39Z</time>
      </trkpt>
      <trkpt lat="46.86538" lon="4.70052">
        <ele>346.13</ele>
        <time>2014-03-23T07:35:42Z</time>
      </trkpt>
      <trkpt lat="46.86553" lon="4.70078">
        <ele>342.79</ele>
        <time>2014-03-23T07:35:45Z</time>
      </trkpt>
      <trkpt lat="46.86568" lon="4.70102">
        <ele>339.32</ele>
        <time>2014-03-23T07:35:48Z</time>
      </trkpt>
      <trkpt lat="46.86579" lon="4.70133">
        <ele>337.38</ele>
        <time>2014-03-23T07:35:51Z</time>
      </trkpt>
      <trkpt lat="46.86586" lon="4.70168">
        <ele>336.07</ele>
        <time>2014-03-23T07:35:54Z</time>
      </trkpt>
      <trkpt lat="46.86593" lon="4.70204">
        <ele>335.65</ele>
        <time>2014-03-23T07:35:57Z</time>
      </trkpt>
      <trkpt lat="46.86601" lon="4.70238">
        <ele>335.21</ele>
        <time>2014-03-23T07:36:00Z</time>
      </trkpt>
      <trkpt lat="46.86611" lon="4.70272">
        <ele>333.66</ele>
        <time>2014-03-23T07:36:03Z</time>
      </trkpt>
      <trkpt lat="46.86622" lon="4.70306">
        <ele>332.11</ele>
        <time>2014-03-23T07:36:06Z</time>
      </trkpt>
      <trkpt lat="46.86633" lon="4.70339">
        <ele>330.33</ele>
        <time>2014-03-23T07:36:09Z</time>
      </trkpt>
      <trkpt lat="46.86647" lon="4.7037">
        <ele>328.09</ele>
        <time>2014-03-23T07:36:12Z</time>
      </trkpt>
      <trkpt lat="46.86663" lon="4.70399">
        <ele>325.4</ele>
        <time>2014-03-23T07:36:15Z</time>
      </trkpt>
      <trkpt lat="46.86676" lon="4.70428">
        <ele>323.16</ele>
        <time>2014-03-23T07:36:18Z</time>
      </trkpt>
      <trkpt lat="46.86686" lon="4.70458">
        <ele>321.79</ele>
        <time>2014-03-23T07:36:21Z</time>
      </trkpt>
      <trkpt lat="46.86694" lon="4.70489">
        <ele>320.55</ele>
        <time>2014-03-23T07:36:24Z</time>
      </trkpt>
      <trkpt lat="46.86699" lon="4.70521">
        <ele>319.44</ele>
        <time>2014-03-23T07:36:27Z</time>
      </trkpt>
      <trkpt lat="46.86703" lon="4.70553">
        <ele>318.57</ele>
        <time>2014-03-23T07:36:30Z</time>
      </trkpt>
      <trkpt lat="46.86706" lon="4.70584">
        <ele>318.37</ele>
        <time>2014-03-23T07:36:33Z</time>
      </trkpt>
      <trkpt lat="46.86709" lon="4.70613">
        <ele>317.71</ele>
        <time>2014-03-23T07:36:36Z</time>
      </trkpt>
      <trkpt lat="46.86711" lon="4.70639">
        <ele>317.57</ele>
        <time>2014-03-23T07:36:39Z</time>
      </trkpt>
      <trkpt lat="46.86718" lon="4.70669">
        <ele>317.79</ele>
        <time>2014-03-23T07:36:43Z</time>
      </trkpt>
      <trkpt lat="46.8672" lon="4.70695">
        <ele>319.54</ele>
        <time>2014-03-23T07:36:47Z</time>
      </trkpt>
      <trkpt lat="46.86722" lon="4.70723">
        <ele>322.79</ele>
        <time>2014-03-23T07:36:52Z</time>
      </trkpt>
      <trkpt lat="46.86726" lon="4.70749">
        <ele>326.74</ele>
        <time>2014-03-23T07:36:56Z</time>
      </trkpt>
      <trkpt lat="46.86736" lon="4.70772">
        <ele>329.87</ele>
        <time>2014-03-23T07:37:00Z</time>
      </trkpt>
      <trkpt lat="46.86754" lon="4.70793">
        <ele>332.29</ele>
        <time>2014-03-23T07:37:05Z</time>
      </trkpt>
      <trkpt lat="46.86764" lon="4.70816">
        <ele>335.27</ele>
        <time>2014-03-23T07:37:10Z</time>
      </trkpt>
      <trkpt lat="46.86772" lon="4.7084">
        <ele>342.87</ele>
        <time>2014-03-23T07:37:17Z</time>
      </trkpt>
      <trkpt lat="46.86793" lon="4.70849">
        <ele>344.08</ele>
        <time>2014-03-23T07:37:21Z</time>
      </trkpt>
      <trkpt lat="46.86807" lon="4.70866">
        <ele>345.99</ele>
        <time>2014-03-23T07:37:25Z</time>
      </trkpt>
      <trkpt lat="46.86817" lon="4.70891">
        <ele>349.2</ele>
        <time>2014-03-23T07:37:29Z</time>
      </trkpt>
      <trkpt lat="46.86828" lon="4.70915">
        <ele>352.79</ele>
        <time>2014-03-23T07:37:35Z</time>
      </trkpt>
      <trkpt lat="46.86835" lon="4.7094">
        <ele>356.4</ele>
        <time>2014-03-23T07:37:40Z</time>
      </trkpt>
      <trkpt lat="46.86843" lon="4.70965">
        <ele>359.95</ele>
        <time>2014-03-23T07:37:45Z</time>
      </trkpt>
      <trkpt lat="46.86849" lon="4.70992">
        <ele>362.61</ele>
        <time>2014-03-23T07:37:50Z</time>
      </trkpt>
      <trkpt lat="46.8686" lon="4.71014">
        <ele>365.93</ele>
        <time>2014-03-23T07:37:56Z</time>
      </trkpt>
      <trkpt lat="46.86874" lon="4.71033">
        <ele>372.72</ele>
        <time>2014-03-23T07:38:05Z</time>
      </trkpt>
      <trkpt lat="46.86887" lon="4.71052">
        <ele>377.64</ele>
        <time>2014-03-23T07:38:11Z</time>
      </trkpt>
      <trkpt lat="46.869" lon="4.71073">
        <ele>381.58</ele>
        <time>2014-03-23T07:38:17Z</time>
      </trkpt>
      <trkpt lat="46.86914" lon="4.71098">
        <ele>383.74</ele>
        <time>2014-03-23T07:38:22Z</time>
      </trkpt>
      <trkpt lat="46.86925" lon="4.71122">
        <ele>385.94</ele>
        <time>2014-03-23T07:38:26Z</time>
      </trkpt>
      <trkpt lat="46.86937" lon="4.71151">
        <ele>386.02</ele>
        <time>2014-03-23T07:38:30Z</time>
      </trkpt>
      <trkpt lat="46.86949" lon="4.71177">
        <ele>386.69</ele>
        <time>2014-03-23T07:38:34Z</time>
      </trkpt>
      <trkpt lat="46.86959" lon="4.71201">
        <ele>387.59</ele>
        <time>2014-03-23T07:38:38Z</time>
      </trkpt>
      <trkpt lat="46.8697" lon="4.71223">
        <ele>388.79</ele>
        <time>2014-03-23T07:38:41Z</time>
      </trkpt>
      <trkpt lat="46.86984" lon="4.71245">
        <ele>390.19</ele>
        <time>2014-03-23T07:38:44Z</time>
      </trkpt>
      <trkpt lat="46.86991" lon="4.71279">
        <ele>389.49</ele>
        <time>2014-03-23T07:38:48Z</time>
      </trkpt>
      <trkpt lat="46.87" lon="4.71301">
        <ele>389.92</ele>
        <time>2014-03-23T07:38:51Z</time>
      </trkpt>
      <trkpt lat="46.87006" lon="4.71334">
        <ele>389.86</ele>
        <time>2014-03-23T07:38:55Z</time>
      </trkpt>
      <trkpt lat="46.87002" lon="4.7137">
        <ele>385.93</ele>
        <time>2014-03-23T07:38:58Z</time>
      </trkpt>
      <trkpt lat="46.87002" lon="4.71405">
        <ele>380.48</ele>
        <time>2014-03-23T07:39:01Z</time>
      </trkpt>
      <trkpt lat="46.87003" lon="4.71441">
        <ele>373.12</ele>
        <time>2014-03-23T07:39:04Z</time>
      </trkpt>
      <trkpt lat="46.87005" lon="4.71478">
        <ele>365.13</ele>
        <time>2014-03-23T07:39:07Z</time>
      </trkpt>
      <trkpt lat="46.87009" lon="4.71516">
        <ele>359.8</ele>
        <time>2014-03-23T07:39:10Z</time>
      </trkpt>
      <trkpt lat="46.87013" lon="4.71544">
        <ele>355.09</ele>
        <time>2014-03-23T07:39:12Z</time>
      </trkpt>
      <trkpt lat="46.87016" lon="4.71571">
        <ele>349.42</ele>
        <time>2014-03-23T07:39:14Z</time>
      </trkpt>
      <trkpt lat="46.87017" lon="4.71598">
        <ele>345.12</ele>
        <time>2014-03-23T07:39:16Z</time>
      </trkpt>
      <trkpt lat="46.8702" lon="4.71625">
        <ele>340.13</ele>
        <time>2014-03-23T07:39:18Z</time>
      </trkpt>
      <trkpt lat="46.87023" lon="4.71653">
        <ele>335.3</ele>
        <time>2014-03-23T07:39:20Z</time>
      </trkpt>
      <trkpt lat="46.87025" lon="4.71681">
        <ele>331.12</ele>
        <time>2014-03-23T07:39:22Z</time>
      </trkpt>
      <trkpt lat="46.87028" lon="4.71709">
        <ele>327.87</ele>
        <time>2014-03-23T07:39:24Z</time>
      </trkpt>
      <trkpt lat="46.87032" lon="4.71738">
        <ele>324.89</ele>
        <time>2014-03-23T07:39:26Z</time>
      </trkpt>
      <trkpt lat="46.87039" lon="4.71768">
        <ele>321.24</ele>
        <time>2014-03-23T07:39:28Z</time>
      </trkpt>
      <trkpt lat="46.87049" lon="4.71796">
        <ele>317.86</ele>
        <time>2014-03-23T07:39:30Z</time>
      </trkpt>
      <trkpt lat="46.87058" lon="4.71826">
        <ele>314.83</ele>
        <time>2014-03-23T07:39:32Z</time>
      </trkpt>
      <trkpt lat="46.87068" lon="4.71857">
        <ele>311.9</ele>
        <time>2014-03-23T07:39:34Z</time>
      </trkpt>
      <trkpt lat="46.87078" lon="4.71886">
        <ele>308.75</ele>
        <time>2014-03-23T07:39:36Z</time>
      </trkpt>
      <trkpt lat="46.87085" lon="4.71915">
        <ele>306.38</ele>
        <time>2014-03-23T07:39:38Z</time>
      </trkpt>
      <trkpt lat="46.87092" lon="4.71942">
        <ele>304.72</ele>
        <time>2014-03-23T07:39:40Z</time>
      </trkpt>
      <trkpt lat="46.871" lon="4.71969">
        <ele>303.12</ele>
        <time>2014-03-23T07:39:42Z</time>
      </trkpt>
      <trkpt lat="46.87111" lon="4.71993">
        <ele>301.48</ele>
        <time>2014-03-23T07:39:44Z</time>
      </trkpt>
      <trkpt lat="46.87126" lon="4.72013">
        <ele>299.86</ele>
        <time>2014-03-23T07:39:46Z</time>
      </trkpt>
      <trkpt lat="46.87143" lon="4.72031">
        <ele>298.59</ele>
        <time>2014-03-23T07:39:48Z</time>
      </trkpt>
      <trkpt lat="46.87159" lon="4.7205">
        <ele>297.14</ele>
        <time>2014-03-23T07:39:50Z</time>
      </trkpt>
      <trkpt lat="46.87174" lon="4.7207">
        <ele>295.61</ele>
        <time>2014-03-23T07:39:52Z</time>
      </trkpt>
      <trkpt lat="46.87189" lon="4.72089">
        <ele>294.67</ele>
        <time>2014-03-23T07:39:54Z</time>
      </trkpt>
      <trkpt lat="46.87204" lon="4.72107">
        <ele>293.91</ele>
        <time>2014-03-23T07:39:56Z</time>
      </trkpt>
      <trkpt lat="46.87218" lon="4.72127">
        <ele>292.82</ele>
        <time>2014-03-23T07:39:58Z</time>
      </trkpt>
      <trkpt lat="46.87231" lon="4.72147">
        <ele>291.75</ele>
        <time>2014-03-23T07:40:00Z</time>
      </trkpt>
      <trkpt lat="46.87242" lon="4.72176">
        <ele>290.1</ele>
        <time>2014-03-23T07:40:03Z</time>
      </trkpt>
      <trkpt lat="46.87238" lon="4.72212">
        <ele>288.26</ele>
        <time>2014-03-23T07:40:06Z</time>
      </trkpt>
      <trkpt lat="46.8723" lon="4.72236">
        <ele>286.78</ele>
        <time>2014-03-23T07:40:08Z</time>
      </trkpt>
      <trkpt lat="46.87223" lon="4.72262">
        <ele>285.32</ele>
        <time>2014-03-23T07:40:10Z</time>
      </trkpt>
      <trkpt lat="46.87216" lon="4.72292">
        <ele>283.62</ele>
        <time>2014-03-23T07:40:13Z</time>
      </trkpt>
      <trkpt lat="46.87225" lon="4.7232">
        <ele>280.12</ele>
        <time>2014-03-23T07:42:01Z</time>
      </trkpt>
      <trkpt lat="46.87237" lon="4.72346">
        <ele>280.36</ele>
        <time>2014-03-23T07:42:05Z</time>
      </trkpt>
      <trkpt lat="46.87247" lon="4.72369">
        <ele>280.45</ele>
        <time>2014-03-23T07:42:08Z</time>
      </trkpt>
      <trkpt lat="46.87255" lon="4.72399">
        <ele>280.55</ele>
        <time>2014-03-23T07:42:12Z</time>
      </trkpt>
      <trkpt lat="46.87262" lon="4.72424">
        <ele>282.84</ele>
        <time>2014-03-23T07:42:21Z</time>
      </trkpt>
      <trkpt lat="46.87279" lon="4.72438">
        <ele>288.23</ele>
        <time>2014-03-23T07:42:35Z</time>
      </trkpt>
      <trkpt lat="46.87297" lon="4.72446">
        <ele>295.76</ele>
        <time>2014-03-23T07:42:49Z</time>
      </trkpt>
      <trkpt lat="46.87315" lon="4.72455">
        <ele>301.85</ele>
        <time>2014-03-23T07:43:01Z</time>
      </trkpt>
      <trkpt lat="46.87335" lon="4.72461">
        <ele>307.66</ele>
        <time>2014-03-23T07:43:14Z</time>
      </trkpt>
      <trkpt lat="46.87352" lon="4.72472">
        <ele>306.94</ele>
        <time>2014-03-23T07:43:23Z</time>
      </trkpt>
      <trkpt lat="46.87359" lon="4.72498">
        <ele>307.35</ele>
        <time>2014-03-23T07:43:36Z</time>
      </trkpt>
      <trkpt lat="46.87373" lon="4.72515">
        <ele>310.83</ele>
        <time>2014-03-23T07:43:47Z</time>
      </trkpt>
      <trkpt lat="46.8739" lon="4.72526">
        <ele>316.23</ele>
        <time>2014-03-23T07:43:57Z</time>
      </trkpt>
      <trkpt lat="46.87408" lon="4.72539">
        <ele>321.74</ele>
        <time>2014-03-23T07:44:07Z</time>
      </trkpt>
      <trkpt lat="46.87425" lon="4.72554">
        <ele>326.99</ele>
        <time>2014-03-23T07:44:17Z</time>
      </trkpt>
      <trkpt lat="46.87443" lon="4.72558">
        <ele>332.64</ele>
        <time>2014-03-23T07:44:26Z</time>
      </trkpt>
      <trkpt lat="46.8746" lon="4.72565">
        <ele>335.89</ele>
        <time>2014-03-23T07:44:34Z</time>
      </trkpt>
      <trkpt lat="46.8748" lon="4.72572">
        <ele>338.25</ele>
        <time>2014-03-23T07:44:41Z</time>
      </trkpt>
      <trkpt lat="46.87498" lon="4.72583">
        <ele>338.8</ele>
        <time>2014-03-23T07:44:49Z</time>
      </trkpt>
      <trkpt lat="46.87516" lon="4.72592">
        <ele>338.91</ele>
        <time>2014-03-23T07:44:57Z</time>
      </trkpt>
      <trkpt lat="46.87527" lon="4.72614">
        <ele>339.24</ele>
        <time>2014-03-23T07:45:06Z</time>
      </trkpt>
      <trkpt lat="46.87545" lon="4.72624">
        <ele>341.68</ele>
        <time>2014-03-23T07:45:22Z</time>
      </trkpt>
      <trkpt lat="46.87563" lon="4.72634">
        <ele>342.24</ele>
        <time>2014-03-23T07:45:32Z</time>
      </trkpt>
      <trkpt lat="46.87584" lon="4.7264">
        <ele>344.76</ele>
        <time>2014-03-23T07:45:39Z</time>
      </trkpt>
      <trkpt lat="46.87601" lon="4.72649">
        <ele>345.94</ele>
        <time>2014-03-23T07:45:44Z</time>
      </trkpt>
      <trkpt lat="46.87619" lon="4.72656">
        <ele>348.22</ele>
        <time>2014-03-23T07:45:51Z</time>
      </trkpt>
      <trkpt lat="46.87639" lon="4.72657">
        <ele>350.1</ele>
        <time>2014-03-23T07:46:00Z</time>
      </trkpt>
      <trkpt lat="46.87659" lon="4.72661">
        <ele>356.04</ele>
        <time>2014-03-23T07:46:08Z</time>
      </trkpt>
      <trkpt lat="46.87679" lon="4.72672">
        <ele>358.05</ele>
        <time>2014-03-23T07:46:13Z</time>
      </trkpt>
      <trkpt lat="46.87697" lon="4.72685">
        <ele>359.53</ele>
        <time>2014-03-23T07:46:20Z</time>
      </trkpt>
      <trkpt lat="46.87715" lon="4.72695">
        <ele>360.49</ele>
        <time>2014-03-23T07:46:25Z</time>
      </trkpt>
      <trkpt lat="46.87733" lon="4.72705">
        <ele>361.52</ele>
        <time>2014-03-23T07:46:31Z</time>
      </trkpt>
      <trkpt lat="46.87751" lon="4.72714">
        <ele>363.76</ele>
        <time>2014-03-23T07:46:37Z</time>
      </trkpt>
      <trkpt lat="46.87771" lon="4.72724">
        <ele>365.02</ele>
        <time>2014-03-23T07:46:42Z</time>
      </trkpt>
      <trkpt lat="46.87789" lon="4.72731">
        <ele>365.8</ele>
        <time>2014-03-23T07:46:46Z</time>
      </trkpt>
      <trkpt lat="46.87804" lon="4.72748">
        <ele>366.45</ele>
        <time>2014-03-23T07:46:51Z</time>
      </trkpt>
      <trkpt lat="46.87821" lon="4.72767">
        <ele>365.12</ele>
        <time>2014-03-23T07:46:56Z</time>
      </trkpt>
      <trkpt lat="46.87832" lon="4.72791">
        <ele>365.06</ele>
        <time>2014-03-23T07:47:00Z</time>
      </trkpt>
      <trkpt lat="46.87844" lon="4.72817">
        <ele>364.28</ele>
        <time>2014-03-23T07:47:04Z</time>
      </trkpt>
      <trkpt lat="46.8786" lon="4.72839">
        <ele>362.04</ele>
        <time>2014-03-23T07:47:08Z</time>
      </trkpt>
      <trkpt lat="46.87876" lon="4.72852">
        <ele>360.77</ele>
        <time>2014-03-23T07:47:13Z</time>
      </trkpt>
      <trkpt lat="46.87893" lon="4.72864">
        <ele>362.37</ele>
        <time>2014-03-23T07:47:21Z</time>
      </trkpt>
      <trkpt lat="46.87912" lon="4.72868">
        <ele>360.24</ele>
        <time>2014-03-23T07:47:29Z</time>
      </trkpt>
      <trkpt lat="46.87933" lon="4.72872">
        <ele>359.59</ele>
        <time>2014-03-23T07:47:37Z</time>
      </trkpt>
      <trkpt lat="46.87952" lon="4.72884">
        <ele>356.61</ele>
        <time>2014-03-23T07:47:43Z</time>
      </trkpt>
      <trkpt lat="46.87969" lon="4.72895">
        <ele>355.27</ele>
        <time>2014-03-23T07:47:48Z</time>
      </trkpt>
      <trkpt lat="46.87985" lon="4.72906">
        <ele>353.76</ele>
        <time>2014-03-23T07:47:54Z</time>
      </trkpt>
      <trkpt lat="46.88003" lon="4.72914">
        <ele>353.96</ele>
        <time>2014-03-23T07:48:00Z</time>
      </trkpt>
      <trkpt lat="46.88023" lon="4.72925">
        <ele>354.87</ele>
        <time>2014-03-23T07:48:06Z</time>
      </trkpt>
      <trkpt lat="46.8804" lon="4.72941">
        <ele>353.25</ele>
        <time>2014-03-23T07:48:10Z</time>
      </trkpt>
      <trkpt lat="46.88054" lon="4.7296">
        <ele>347.64</ele>
        <time>2014-03-23T07:48:13Z</time>
      </trkpt>
      <trkpt lat="46.8807" lon="4.72979">
        <ele>343.32</ele>
        <time>2014-03-23T07:48:17Z</time>
      </trkpt>
      <trkpt lat="46.88089" lon="4.72995">
        <ele>340.78</ele>
        <time>2014-03-23T07:48:20Z</time>
      </trkpt>
      <trkpt lat="46.88106" lon="4.73016">
        <ele>335.4</ele>
        <time>2014-03-23T07:48:24Z</time>
      </trkpt>
      <trkpt lat="46.8812" lon="4.73034">
        <ele>332.81</ele>
        <time>2014-03-23T07:48:28Z</time>
      </trkpt>
      <trkpt lat="46.8813" lon="4.73058">
        <ele>329.79</ele>
        <time>2014-03-23T07:48:32Z</time>
      </trkpt>
      <trkpt lat="46.88145" lon="4.73081">
        <ele>324.56</ele>
        <time>2014-03-23T07:48:36Z</time>
      </trkpt>
      <trkpt lat="46.88156" lon="4.73108">
        <ele>320.92</ele>
        <time>2014-03-23T07:48:40Z</time>
      </trkpt>
      <trkpt lat="46.88166" lon="4.7313">
        <ele>317.15</ele>
        <time>2014-03-23T07:48:43Z</time>
      </trkpt>
      <trkpt lat="46.88176" lon="4.73153">
        <ele>313.47</ele>
        <time>2014-03-23T07:48:46Z</time>
      </trkpt>
      <trkpt lat="46.88183" lon="4.73178">
        <ele>309.99</ele>
        <time>2014-03-23T07:48:49Z</time>
      </trkpt>
      <trkpt lat="46.88184" lon="4.73212">
        <ele>305.78</ele>
        <time>2014-03-23T07:48:52Z</time>
      </trkpt>
      <trkpt lat="46.88188" lon="4.73248">
        <ele>301.24</ele>
        <time>2014-03-23T07:48:55Z</time>
      </trkpt>
      <trkpt lat="46.88199" lon="4.73282">
        <ele>297.21</ele>
        <time>2014-03-23T07:48:58Z</time>
      </trkpt>
      <trkpt lat="46.88208" lon="4.73309">
        <ele>294.6</ele>
        <time>2014-03-23T07:49:01Z</time>
      </trkpt>
      <trkpt lat="46.88222" lon="4.7333">
        <ele>291.39</ele>
        <time>2014-03-23T07:49:04Z</time>
      </trkpt>
      <trkpt lat="46.88235" lon="4.73354">
        <ele>288.01</ele>
        <time>2014-03-23T07:49:07Z</time>
      </trkpt>
      <trkpt lat="46.88246" lon="4.73379">
        <ele>284.97</ele>
        <time>2014-03-23T07:49:10Z</time>
      </trkpt>
      <trkpt lat="46.8826" lon="4.73406">
        <ele>282.18</ele>
        <time>2014-03-23T07:49:13Z</time>
      </trkpt>
      <trkpt lat="46.88271" lon="4.73433">
        <ele>278.99</ele>
        <time>2014-03-23T07:49:16Z</time>
      </trkpt>
      <trkpt lat="46.88279" lon="4.73457">
        <ele>275.8</ele>
        <time>2014-03-23T07:49:21Z</time>
      </trkpt>
      <trkpt lat="46.88297" lon="4.73449">
        <ele>271.85</ele>
        <time>2014-03-23T07:49:51Z</time>
      </trkpt>
      <trkpt lat="46.88315" lon="4.73436">
        <ele>273.54</ele>
        <time>2014-03-23T07:50:04Z</time>
      </trkpt>
      <trkpt lat="46.88333" lon="4.73426">
        <ele>276.54</ele>
        <time>2014-03-23T07:50:17Z</time>
      </trkpt>
      <trkpt lat="46.88352" lon="4.73424">
        <ele>278.29</ele>
        <time>2014-03-23T07:50:26Z</time>
      </trkpt>
      <trkpt lat="46.8837" lon="4.73412">
        <ele>280.94</ele>
        <time>2014-03-23T07:50:37Z</time>
      </trkpt>
      <trkpt lat="46.88389" lon="4.73405">
        <ele>283.6</ele>
        <time>2014-03-23T07:50:47Z</time>
      </trkpt>
      <trkpt lat="46.88403" lon="4.73388">
        <ele>285.29</ele>
        <time>2014-03-23T07:50:56Z</time>
      </trkpt>
      <trkpt lat="46.88414" lon="4.73368">
        <ele>287.25</ele>
        <time>2014-03-23T07:51:06Z</time>
      </trkpt>
      <trkpt lat="46.88424" lon="4.73344">
        <ele>290.28</ele>
        <time>2014-03-23T07:51:18Z</time>
      </trkpt>
      <trkpt lat="46.8844" lon="4.73333">
        <ele>292.86</ele>
        <time>2014-03-23T07:51:27Z</time>
      </trkpt>
      <trkpt lat="46.88457" lon="4.7332">
        <ele>294.22</ele>
        <time>2014-03-23T07:51:35Z</time>
      </trkpt>
      <trkpt lat="46.88476" lon="4.73312">
        <ele>294.52</ele>
        <time>2014-03-23T07:51:42Z</time>
      </trkpt>
      <trkpt lat="46.88497" lon="4.73302">
        <ele>293.96</ele>
        <time>2014-03-23T07:51:48Z</time>
      </trkpt>
      <trkpt lat="46.88515" lon="4.73286">
        <ele>293.45</ele>
        <time>2014-03-23T07:51:54Z</time>
      </trkpt>
      <trkpt lat="46.88532" lon="4.73276">
        <ele>294.03</ele>
        <time>2014-03-23T07:51:59Z</time>
      </trkpt>
      <trkpt lat="46.88549" lon="4.73266">
        <ele>295.46</ele>
        <time>2014-03-23T07:52:04Z</time>
      </trkpt>
      <trkpt lat="46.88563" lon="4.73248">
        <ele>295.66</ele>
        <time>2014-03-23T07:52:09Z</time>
      </trkpt>
      <trkpt lat="46.88579" lon="4.73234">
        <ele>295.48</ele>
        <time>2014-03-23T07:52:14Z</time>
      </trkpt>
      <trkpt lat="46.88594" lon="4.73213">
        <ele>295.99</ele>
        <time>2014-03-23T07:52:20Z</time>
      </trkpt>
      <trkpt lat="46.88606" lon="4.73188">
        <ele>296.16</ele>
        <time>2014-03-23T07:52:26Z</time>
      </trkpt>
      <trkpt lat="46.88618" lon="4.73166">
        <ele>296.01</ele>
        <time>2014-03-23T07:52:31Z</time>
      </trkpt>
      <trkpt lat="46.88628" lon="4.73143">
        <ele>295.96</ele>
        <time>2014-03-23T07:52:36Z</time>
      </trkpt>
      <trkpt lat="46.88637" lon="4.73119">
        <ele>294.43</ele>
        <time>2014-03-23T07:52:42Z</time>
      </trkpt>
      <trkpt lat="46.88644" lon="4.73091">
        <ele>291.44</ele>
        <time>2014-03-23T07:53:10Z</time>
      </trkpt>
      <trkpt lat="46.88651" lon="4.73066">
        <ele>290.21</ele>
        <time>2014-03-23T07:53:15Z</time>
      </trkpt>
      <trkpt lat="46.88656" lon="4.73039">
        <ele>288.86</ele>
        <time>2014-03-23T07:53:20Z</time>
      </trkpt>
      <trkpt lat="46.88661" lon="4.73011">
        <ele>286.96</ele>
        <time>2014-03-23T07:53:26Z</time>
      </trkpt>
      <trkpt lat="46.88668" lon="4.72983">
        <ele>286.54</ele>
        <time>2014-03-23T07:53:35Z</time>
      </trkpt>
      <trkpt lat="46.88679" lon="4.72958">
        <ele>284.88</ele>
        <time>2014-03-23T07:53:43Z</time>
      </trkpt>
      <trkpt lat="46.88687" lon="4.72929">
        <ele>285.67</ele>
        <time>2014-03-23T07:53:49Z</time>
      </trkpt>
      <trkpt lat="46.88693" lon="4.72903">
        <ele>285.73</ele>
        <time>2014-03-23T07:53:55Z</time>
      </trkpt>
      <trkpt lat="46.88699" lon="4.72874">
        <ele>285.31</ele>
        <time>2014-03-23T07:54:01Z</time>
      </trkpt>
      <trkpt lat="46.887" lon="4.72842">
        <ele>285.1</ele>
        <time>2014-03-23T07:54:07Z</time>
      </trkpt>
      <trkpt lat="46.88705" lon="4.72814">
        <ele>284.33</ele>
        <time>2014-03-23T07:54:12Z</time>
      </trkpt>
      <trkpt lat="46.88718" lon="4.72787">
        <ele>283.74</ele>
        <time>2014-03-23T07:54:16Z</time>
      </trkpt>
      <trkpt lat="46.8873" lon="4.72767">
        <ele>283.45</ele>
        <time>2014-03-23T07:54:19Z</time>
      </trkpt>
      <trkpt lat="46.88745" lon="4.72745">
        <ele>283.23</ele>
        <time>2014-03-23T07:54:23Z</time>
      </trkpt>
      <trkpt lat="46.88762" lon="4.72732">
        <ele>282.17</ele>
        <time>2014-03-23T07:54:27Z</time>
      </trkpt>
      <trkpt lat="46.88783" lon="4.7273">
        <ele>278.14</ele>
        <time>2014-03-23T07:54:31Z</time>
      </trkpt>
      <trkpt lat="46.88806" lon="4.72727">
        <ele>273.29</ele>
        <time>2014-03-23T07:54:35Z</time>
      </trkpt>
      <trkpt lat="46.88825" lon="4.72732">
        <ele>270.32</ele>
        <time>2014-03-23T07:54:39Z</time>
      </trkpt>
      <trkpt lat="46.88844" lon="4.72744">
        <ele>268.66</ele>
        <time>2014-03-23T07:54:44Z</time>
      </trkpt>
      <trkpt lat="46.88861" lon="4.72755">
        <ele>268.53</ele>
        <time>2014-03-23T07:54:51Z</time>
      </trkpt>
      <trkpt lat="46.88877" lon="4.7277">
        <ele>267.71</ele>
        <time>2014-03-23T07:54:56Z</time>
      </trkpt>
      <trkpt lat="46.88891" lon="4.72786">
        <ele>265.34</ele>
        <time>2014-03-23T07:55:01Z</time>
      </trkpt>
      <trkpt lat="46.88909" lon="4.728">
        <ele>262.48</ele>
        <time>2014-03-23T07:55:06Z</time>
      </trkpt>
      <trkpt lat="46.88924" lon="4.72818">
        <ele>259.94</ele>
        <time>2014-03-23T07:55:10Z</time>
      </trkpt>
      <trkpt lat="46.88937" lon="4.72839">
        <ele>257.42</ele>
        <time>2014-03-23T07:55:13Z</time>
      </trkpt>
      <trkpt lat="46.88945" lon="4.72863">
        <ele>255.15</ele>
        <time>2014-03-23T07:55:16Z</time>
      </trkpt>
      <trkpt lat="46.88959" lon="4.72882">
        <ele>252.29</ele>
        <time>2014-03-23T07:55:19Z</time>
      </trkpt>
      <trkpt lat="46.8898" lon="4.72893">
        <ele>248.19</ele>
        <time>2014-03-23T07:55:23Z</time>
      </trkpt>
      <trkpt lat="46.88994" lon="4.72865">
        <ele>243.15</ele>
        <time>2014-03-23T07:55:28Z</time>
      </trkpt>
      <trkpt lat="46.89004" lon="4.72834">
        <ele>239.78</ele>
        <time>2014-03-23T07:55:31Z</time>
      </trkpt>
      <trkpt lat="46.89016" lon="4.72803">
        <ele>236.99</ele>
        <time>2014-03-23T07:55:34Z</time>
      </trkpt>
      <trkpt lat="46.89021" lon="4.72775">
        <ele>235.31</ele>
        <time>2014-03-23T07:55:37Z</time>
      </trkpt>
      <trkpt lat="46.89013" lon="4.7275">
        <ele>233.88</ele>
        <time>2014-03-23T07:55:40Z</time>
      </trkpt>
      <trkpt lat="46.89004" lon="4.72726">
        <ele>233.02</ele>
        <time>2014-03-23T07:55:43Z</time>
      </trkpt>
      <trkpt lat="46.88994" lon="4.72698">
        <ele>231.51</ele>
        <time>2014-03-23T07:55:47Z</time>
      </trkpt>
      <trkpt lat="46.88995" lon="4.72669">
        <ele>230.79</ele>
        <time>2014-03-23T07:55:52Z</time>
      </trkpt>
      <trkpt lat="46.89005" lon="4.72643">
        <ele>231.07</ele>
        <time>2014-03-23T07:55:56Z</time>
      </trkpt>
      <trkpt lat="46.89014" lon="4.7262">
        <ele>231.52</ele>
        <time>2014-03-23T07:55:59Z</time>
      </trkpt>
      <trkpt lat="46.8902" lon="4.72588">
        <ele>232.09</ele>
        <time>2014-03-23T07:56:03Z</time>
      </trkpt>
      <trkpt lat="46.89028" lon="4.72557">
        <ele>232.37</ele>
        <time>2014-03-23T07:56:07Z</time>
      </trkpt>
      <trkpt lat="46.89037" lon="4.72531">
        <ele>231.33</ele>
        <time>2014-03-23T07:56:10Z</time>
      </trkpt>
      <trkpt lat="46.89047" lon="4.72502">
        <ele>230.22</ele>
        <time>2014-03-23T07:56:13Z</time>
      </trkpt>
      <trkpt lat="46.89057" lon="4.72477">
        <ele>229.08</ele>
        <time>2014-03-23T07:56:16Z</time>
      </trkpt>
      <trkpt lat="46.89073" lon="4.72452">
        <ele>225.65</ele>
        <time>2014-03-23T07:56:20Z</time>
      </trkpt>
      <trkpt lat="46.89095" lon="4.72444">
        <ele>223.61</ele>
        <time>2014-03-23T07:56:23Z</time>
      </trkpt>
      <trkpt lat="46.89114" lon="4.72443">
        <ele>221.87</ele>
        <time>2014-03-23T07:56:26Z</time>
      </trkpt>
      <trkpt lat="46.89135" lon="4.72426">
        <ele>219.49</ele>
        <time>2014-03-23T07:56:30Z</time>
      </trkpt>
      <trkpt lat="46.89149" lon="4.72399">
        <ele>216.99</ele>
        <time>2014-03-23T07:56:33Z</time>
      </trkpt>
      <trkpt lat="46.8916" lon="4.7237">
        <ele>215.22</ele>
        <time>2014-03-23T07:56:36Z</time>
      </trkpt>
      <trkpt lat="46.89169" lon="4.72347">
        <ele>214.43</ele>
        <time>2014-03-23T07:56:39Z</time>
      </trkpt>
      <trkpt lat="46.89179" lon="4.72323">
        <ele>214.66</ele>
        <time>2014-03-23T07:56:47Z</time>
      </trkpt>
      <trkpt lat="46.89188" lon="4.723">
        <ele>216.1</ele>
        <time>2014-03-23T07:56:55Z</time>
      </trkpt>
      <trkpt lat="46.89195" lon="4.72274">
        <ele>217.37</ele>
        <time>2014-03-23T07:57:05Z</time>
      </trkpt>
      <trkpt lat="46.89201" lon="4.72248">
        <ele>220.22</ele>
        <time>2014-03-23T07:57:16Z</time>
      </trkpt>
      <trkpt lat="46.8921" lon="4.72225">
        <ele>223.3</ele>
        <time>2014-03-23T07:57:26Z</time>
      </trkpt>
      <trkpt lat="46.89218" lon="4.72199">
        <ele>227.35</ele>
        <time>2014-03-23T07:57:39Z</time>
      </trkpt>
      <trkpt lat="46.89235" lon="4.7219">
        <ele>234.38</ele>
        <time>2014-03-23T07:59:10Z</time>
      </trkpt>
      <trkpt lat="46.89254" lon="4.7219">
        <ele>235.48</ele>
        <time>2014-03-23T07:59:35Z</time>
      </trkpt>
      <trkpt lat="46.89271" lon="4.72201">
        <ele>239.91</ele>
        <time>2014-03-23T07:59:53Z</time>
      </trkpt>
      <trkpt lat="46.89289" lon="4.72208">
        <ele>244.5</ele>
        <time>2014-03-23T08:00:11Z</time>
      </trkpt>
      <trkpt lat="46.89307" lon="4.72215">
        <ele>249.52</ele>
        <time>2014-03-23T08:00:39Z</time>
      </trkpt>
      <trkpt lat="46.89325" lon="4.7222">
        <ele>253.76</ele>
        <time>2014-03-23T08:01:00Z</time>
      </trkpt>
      <trkpt lat="46.89343" lon="4.72222">
        <ele>257.54</ele>
        <time>2014-03-23T08:01:22Z</time>
      </trkpt>
      <trkpt lat="46.89361" lon="4.72229">
        <ele>258.77</ele>
        <time>2014-03-23T08:01:35Z</time>
      </trkpt>
      <trkpt lat="46.89379" lon="4.72231">
        <ele>267.41</ele>
        <time>2014-03-23T08:01:55Z</time>
      </trkpt>
      <trkpt lat="46.89397" lon="4.72231">
        <ele>272.15</ele>
        <time>2014-03-23T08:02:10Z</time>
      </trkpt>
      <trkpt lat="46.89414" lon="4.72221">
        <ele>277.22</ele>
        <time>2014-03-23T08:02:34Z</time>
      </trkpt>
      <trkpt lat="46.89433" lon="4.72222">
        <ele>281.1</ele>
        <time>2014-03-23T08:03:05Z</time>
      </trkpt>
      <trkpt lat="46.89452" lon="4.72222">
        <ele>283.41</ele>
        <time>2014-03-23T08:03:16Z</time>
      </trkpt>
      <trkpt lat="46.89471" lon="4.7222">
        <ele>286.96</ele>
        <time>2014-03-23T08:03:28Z</time>
      </trkpt>
      <trkpt lat="46.89489" lon="4.72226">
        <ele>290.76</ele>
        <time>2014-03-23T08:03:37Z</time>
      </trkpt>
      <trkpt lat="46.89507" lon="4.72229">
        <ele>295.94</ele>
        <time>2014-03-23T08:03:48Z</time>
      </trkpt>
      <trkpt lat="46.89525" lon="4.72231">
        <ele>301.5</ele>
        <time>2014-03-23T08:04:02Z</time>
      </trkpt>
      <trkpt lat="46.89544" lon="4.72233">
        <ele>302.56</ele>
        <time>2014-03-23T08:04:11Z</time>
      </trkpt>
      <trkpt lat="46.89561" lon="4.72224">
        <ele>300.25</ele>
        <time>2014-03-23T08:04:24Z</time>
      </trkpt>
      <trkpt lat="46.89572" lon="4.72202">
        <ele>300.96</ele>
        <time>2014-03-23T08:04:38Z</time>
      </trkpt>
      <trkpt lat="46.89572" lon="4.72175">
        <ele>299.45</ele>
        <time>2014-03-23T08:05:01Z</time>
      </trkpt>
      <trkpt lat="46.89567" lon="4.72148">
        <ele>298.9</ele>
        <time>2014-03-23T08:05:13Z</time>
      </trkpt>
      <trkpt lat="46.8957" lon="4.72121">
        <ele>299.83</ele>
        <time>2014-03-23T08:05:31Z</time>
      </trkpt>
      <trkpt lat="46.89572" lon="4.72095">
        <ele>300.32</ele>
        <time>2014-03-23T08:05:47Z</time>
      </trkpt>
      <trkpt lat="46.8958" lon="4.72071">
        <ele>301.72</ele>
        <time>2014-03-23T08:06:00Z</time>
      </trkpt>
      <trkpt lat="46.89588" lon="4.72048">
        <ele>302.21</ele>
        <time>2014-03-23T08:06:12Z</time>
      </trkpt>
      <trkpt lat="46.89595" lon="4.72021">
        <ele>302.49</ele>
        <time>2014-03-23T08:06:21Z</time>
      </trkpt>
      <trkpt lat="46.89611" lon="4.72005">
        <ele>302.27</ele>
        <time>2014-03-23T08:06:31Z</time>
      </trkpt>
      <trkpt lat="46.8963" lon="4.72003">
        <ele>299.99</ele>
        <time>2014-03-23T08:08:38Z</time>
      </trkpt>
      <trkpt lat="46.89648" lon="4.72013">
        <ele>301.06</ele>
        <time>2014-03-23T08:08:43Z</time>
      </trkpt>
      <trkpt lat="46.89668" lon="4.72021">
        <ele>300.98</ele>
        <time>2014-03-23T08:08:47Z</time>
      </trkpt>
      <trkpt lat="46.89687" lon="4.72033">
        <ele>301.31</ele>
        <time>2014-03-23T08:08:52Z</time>
      </trkpt>
      <trkpt lat="46.89699" lon="4.72052">
        <ele>301.17</ele>
        <time>2014-03-23T08:08:57Z</time>
      </trkpt>
      <trkpt lat="46.89713" lon="4.72069">
        <ele>299.79</ele>
        <time>2014-03-23T08:09:01Z</time>
      </trkpt>
      <trkpt lat="46.89731" lon="4.72081">
        <ele>298.89</ele>
        <time>2014-03-23T08:09:05Z</time>
      </trkpt>
      <trkpt lat="46.89749" lon="4.72086">
        <ele>295.59</ele>
        <time>2014-03-23T08:09:08Z</time>
      </trkpt>
      <trkpt lat="46.89767" lon="4.72092">
        <ele>292.3</ele>
        <time>2014-03-23T08:09:13Z</time>
      </trkpt>
      <trkpt lat="46.89786" lon="4.72103">
        <ele>289.78</ele>
        <time>2014-03-23T08:09:17Z</time>
      </trkpt>
      <trkpt lat="46.89803" lon="4.72121">
        <ele>288.57</ele>
        <time>2014-03-23T08:09:21Z</time>
      </trkpt>
      <trkpt lat="46.89821" lon="4.72138">
        <ele>287.74</ele>
        <time>2014-03-23T08:09:25Z</time>
      </trkpt>
      <trkpt lat="46.89839" lon="4.72156">
        <ele>287.09</ele>
        <time>2014-03-23T08:09:29Z</time>
      </trkpt>
      <trkpt lat="46.89854" lon="4.72172">
        <ele>286.66</ele>
        <time>2014-03-23T08:09:32Z</time>
      </trkpt>
      <trkpt lat="46.89871" lon="4.72192">
        <ele>286.05</ele>
        <time>2014-03-23T08:09:36Z</time>
      </trkpt>
      <trkpt lat="46.8989" lon="4.72202">
        <ele>286.03</ele>
        <time>2014-03-23T08:09:41Z</time>
      </trkpt>
      <trkpt lat="46.89909" lon="4.72213">
        <ele>285.72</ele>
        <time>2014-03-23T08:09:47Z</time>
      </trkpt>
      <trkpt lat="46.89927" lon="4.72222">
        <ele>284.71</ele>
        <time>2014-03-23T08:09:52Z</time>
      </trkpt>
      <trkpt lat="46.89946" lon="4.72232">
        <ele>284.14</ele>
        <time>2014-03-23T08:09:58Z</time>
      </trkpt>
      <trkpt lat="46.89964" lon="4.72241">
        <ele>283.57</ele>
        <time>2014-03-23T08:10:03Z</time>
      </trkpt>
      <trkpt lat="46.89983" lon="4.72247">
        <ele>282.37</ele>
        <time>2014-03-23T08:10:08Z</time>
      </trkpt>
      <trkpt lat="46.90003" lon="4.72257">
        <ele>282.55</ele>
        <time>2014-03-23T08:10:13Z</time>
      </trkpt>
      <trkpt lat="46.90019" lon="4.72269">
        <ele>281.69</ele>
        <time>2014-03-23T08:10:17Z</time>
      </trkpt>
      <trkpt lat="46.90036" lon="4.72279">
        <ele>280.91</ele>
        <time>2014-03-23T08:10:21Z</time>
      </trkpt>
      <trkpt lat="46.90058" lon="4.72288">
        <ele>278.68</ele>
        <time>2014-03-23T08:10:26Z</time>
      </trkpt>
      <trkpt lat="46.90074" lon="4.72302">
        <ele>277.21</ele>
        <time>2014-03-23T08:10:31Z</time>
      </trkpt>
      <trkpt lat="46.9009" lon="4.72317">
        <ele>277.17</ele>
        <time>2014-03-23T08:10:36Z</time>
      </trkpt>
      <trkpt lat="46.90107" lon="4.72331">
        <ele>277.3</ele>
        <time>2014-03-23T08:10:42Z</time>
      </trkpt>
      <trkpt lat="46.90123" lon="4.72345">
        <ele>277.94</ele>
        <time>2014-03-23T08:10:47Z</time>
      </trkpt>
      <trkpt lat="46.90143" lon="4.72356">
        <ele>274.97</ele>
        <time>2014-03-23T08:10:53Z</time>
      </trkpt>
      <trkpt lat="46.90162" lon="4.72362">
        <ele>270.01</ele>
        <time>2014-03-23T08:10:58Z</time>
      </trkpt>
      <trkpt lat="46.90181" lon="4.72375">
        <ele>266.15</ele>
        <time>2014-03-23T08:11:04Z</time>
      </trkpt>
      <trkpt lat="46.90194" lon="4.72394">
        <ele>265.13</ele>
        <time>2014-03-23T08:11:09Z</time>
      </trkpt>
      <trkpt lat="46.90211" lon="4.7241">
        <ele>264.12</ele>
        <time>2014-03-23T08:11:14Z</time>
      </trkpt>
      <trkpt lat="46.90227" lon="4.72427">
        <ele>262.7</ele>
        <time>2014-03-23T08:11:19Z</time>
      </trkpt>
      <trkpt lat="46.90242" lon="4.72447">
        <ele>261.78</ele>
        <time>2014-03-23T08:11:24Z</time>
      </trkpt>
      <trkpt lat="46.90255" lon="4.72469">
        <ele>261.57</ele>
        <time>2014-03-23T08:11:30Z</time>
      </trkpt>
      <trkpt lat="46.90269" lon="4.7249">
        <ele>261.67</ele>
        <time>2014-03-23T08:11:35Z</time>
      </trkpt>
      <trkpt lat="46.90281" lon="4.72514">
        <ele>261.11</ele>
        <time>2014-03-23T08:11:40Z</time>
      </trkpt>
      <trkpt lat="46.90294" lon="4.72533">
        <ele>261.56</ele>
        <time>2014-03-23T08:11:46Z</time>
      </trkpt>
      <trkpt lat="46.90306" lon="4.72556">
        <ele>261.72</ele>
        <time>2014-03-23T08:11:50Z</time>
      </trkpt>
      <trkpt lat="46.90319" lon="4.72579">
        <ele>258.19</ele>
        <time>2014-03-23T08:11:55Z</time>
      </trkpt>
      <trkpt lat="46.90331" lon="4.72599">
        <ele>253.21</ele>
        <time>2014-03-23T08:11:59Z</time>
      </trkpt>
      <trkpt lat="46.9034" lon="4.72623">
        <ele>249.04</ele>
        <time>2014-03-23T08:12:04Z</time>
      </trkpt>
      <trkpt lat="46.90347" lon="4.72649">
        <ele>243.55</ele>
        <time>2014-03-23T08:12:14Z</time>
      </trkpt>
      <trkpt lat="46.90361" lon="4.72667">
        <ele>238.7</ele>
        <time>2014-03-23T08:12:42Z</time>
      </trkpt>
      <trkpt lat="46.90376" lon="4.72682">
        <ele>234.71</ele>
        <time>2014-03-23T08:13:01Z</time>
      </trkpt>
      <trkpt lat="46.90392" lon="4.72698">
        <ele>232.65</ele>
        <time>2014-03-23T08:13:07Z</time>
      </trkpt>
      <trkpt lat="46.90403" lon="4.72725">
        <ele>228.84</ele>
        <time>2014-03-23T08:13:43Z</time>
      </trkpt>
      <trkpt lat="46.90423" lon="4.72712">
        <ele>226.56</ele>
        <time>2014-03-23T08:14:07Z</time>
      </trkpt>
      <trkpt lat="46.90442" lon="4.72699">
        <ele>225.32</ele>
        <time>2014-03-23T08:14:11Z</time>
      </trkpt>
      <trkpt lat="46.90459" lon="4.72683">
        <ele>223.68</ele>
        <time>2014-03-23T08:14:14Z</time>
      </trkpt>
      <trkpt lat="46.90475" lon="4.72658">
        <ele>221.07</ele>
        <time>2014-03-23T08:14:17Z</time>
      </trkpt>
      <trkpt lat="46.9049" lon="4.72632">
        <ele>218.7</ele>
        <time>2014-03-23T08:14:20Z</time>
      </trkpt>
      <trkpt lat="46.905" lon="4.72605">
        <ele>215.74</ele>
        <time>2014-03-23T08:14:23Z</time>
      </trkpt>
      <trkpt lat="46.90508" lon="4.72577">
        <ele>213.61</ele>
        <time>2014-03-23T08:14:26Z</time>
      </trkpt>
      <trkpt lat="46.90518" lon="4.72552">
        <ele>211.47</ele>
        <time>2014-03-23T08:14:29Z</time>
      </trkpt>
      <trkpt lat="46.90527" lon="4.72521">
        <ele>208.99</ele>
        <time>2014-03-23T08:14:32Z</time>
      </trkpt>
      <trkpt lat="46.90534" lon="4.72486">
        <ele>206.76</ele>
        <time>2014-03-23T08:14:35Z</time>
      </trkpt>
      <trkpt lat="46.90539" lon="4.72448">
        <ele>204.53</ele>
        <time>2014-03-23T08:14:38Z</time>
      </trkpt>
      <trkpt lat="46.90544" lon="4.72412">
        <ele>202.31</ele>
        <time>2014-03-23T08:14:41Z</time>
      </trkpt>
      <trkpt lat="46.90558" lon="4.72385">
        <ele>199.81</ele>
        <time>2014-03-23T08:14:44Z</time>
      </trkpt>
      <trkpt lat="46.90578" lon="4.72363">
        <ele>197.21</ele>
        <time>2014-03-23T08:14:47Z</time>
      </trkpt>
      <trkpt lat="46.90595" lon="4.72342">
        <ele>194.59</ele>
        <time>2014-03-23T08:14:50Z</time>
      </trkpt>
      <trkpt lat="46.90604" lon="4.72314">
        <ele>191.84</ele>
        <time>2014-03-23T08:14:53Z</time>
      </trkpt>
      <trkpt lat="46.90604" lon="4.72283">
        <ele>188.89</ele>
        <time>2014-03-23T08:14:56Z</time>
      </trkpt>
      <trkpt lat="46.90605" lon="4.72249">
        <ele>186.27</ele>
        <time>2014-03-23T08:14:59Z</time>
      </trkpt>
      <trkpt lat="46.90607" lon="4.72214">
        <ele>184.53</ele>
        <time>2014-03-23T08:15:02Z</time>
      </trkpt>
      <trkpt lat="46.90612" lon="4.72179">
        <ele>183.6</ele>
        <time>2014-03-23T08:15:05Z</time>
      </trkpt>
      <trkpt lat="46.90616" lon="4.72147">
        <ele>182.73</ele>
        <time>2014-03-23T08:15:08Z</time>
      </trkpt>
      <trkpt lat="46.90618" lon="4.72119">
        <ele>183.34</ele>
        <time>2014-03-23T08:15:11Z</time>
      </trkpt>
      <trkpt lat="46.90618" lon="4.72091">
        <ele>183.81</ele>
        <time>2014-03-23T08:15:15Z</time>
      </trkpt>
      <trkpt lat="46.90633" lon="4.72073">
        <ele>183.29</ele>
        <time>2014-03-23T08:15:21Z</time>
      </trkpt>
      <trkpt lat="46.90649" lon="4.7205">
        <ele>179.95</ele>
        <time>2014-03-23T08:15:31Z</time>
      </trkpt>
      <trkpt lat="46.90655" lon="4.72025">
        <ele>179.4</ele>
        <time>2014-03-23T08:15:34Z</time>
      </trkpt>
      <trkpt lat="46.90667" lon="4.72005">
        <ele>179.71</ele>
        <time>2014-03-23T08:15:37Z</time>
      </trkpt>
      <trkpt lat="46.90686" lon="4.71987">
        <ele>179.38</ele>
        <time>2014-03-23T08:15:41Z</time>
      </trkpt>
      <trkpt lat="46.90702" lon="4.71974">
        <ele>179.23</ele>
        <time>2014-03-23T08:15:44Z</time>
      </trkpt>
      <trkpt lat="46.90721" lon="4.71955">
        <ele>179.1</ele>
        <time>2014-03-23T08:15:48Z</time>
      </trkpt>
      <trkpt lat="46.90735" lon="4.71933">
        <ele>179.02</ele>
        <time>2014-03-23T08:15:52Z</time>
      </trkpt>
      <trkpt lat="46.90742" lon="4.71905">
        <ele>178.82</ele>
        <time>2014-03-23T08:15:56Z</time>
      </trkpt>
      <trkpt lat="46.90742" lon="4.71874">
        <ele>178.59</ele>
        <time>2014-03-23T08:16:00Z</time>
      </trkpt>
      <trkpt lat="46.9074" lon="4.71843">
        <ele>177.95</ele>
        <time>2014-03-23T08:16:04Z</time>
      </trkpt>
      <trkpt lat="46.90736" lon="4.71812">
        <ele>177.72</ele>
        <time>2014-03-23T08:16:08Z</time>
      </trkpt>
      <trkpt lat="46.90732" lon="4.71786">
        <ele>177.06</ele>
        <time>2014-03-23T08:16:11Z</time>
      </trkpt>
      <trkpt lat="46.90728" lon="4.71757">
        <ele>176.7</ele>
        <time>2014-03-23T08:16:14Z</time>
      </trkpt>
      <trkpt lat="46.9072" lon="4.7173">
        <ele>176.22</ele>
        <time>2014-03-23T08:16:17Z</time>
      </trkpt>
      <trkpt lat="46.90713" lon="4.71703">
        <ele>175.98</ele>
        <time>2014-03-23T08:16:20Z</time>
      </trkpt>
      <trkpt lat="46.90703" lon="4.71678">
        <ele>175.44</ele>
        <time>2014-03-23T08:16:23Z</time>
      </trkpt>
      <trkpt lat="46.90692" lon="4.71654">
        <ele>175.1</ele>
        <time>2014-03-23T08:16:26Z</time>
      </trkpt>
      <trkpt lat="46.9068" lon="4.7163">
        <ele>175.44</ele>
        <time>2014-03-23T08:16:29Z</time>
      </trkpt>
      <trkpt lat="46.90669" lon="4.71604">
        <ele>176.01</ele>
        <time>2014-03-23T08:16:32Z</time>
      </trkpt>
      <trkpt lat="46.90657" lon="4.71579">
        <ele>176.48</ele>
        <time>2014-03-23T08:16:35Z</time>
      </trkpt>
      <trkpt lat="46.90647" lon="4.71554">
        <ele>176.75</ele>
        <time>2014-03-23T08:16:38Z</time>
      </trkpt>
      <trkpt lat="46.90637" lon="4.71531">
        <ele>177.38</ele>
        <time>2014-03-23T08:16:41Z</time>
      </trkpt>
      <trkpt lat="46.90627" lon="4.71507">
        <ele>177</ele>
        <time>2014-03-23T08:16:44Z</time>
      </trkpt>
      <trkpt lat="46.90617" lon="4.71483">
        <ele>176.83</ele>
        <time>2014-03-23T08:16:47Z</time>
      </trkpt>
      <trkpt lat="46.90609" lon="4.71459">
        <ele>176.64</ele>
        <time>2014-03-23T08:16:50Z</time>
      </trkpt>
      <trkpt lat="46.90601" lon="4.71435">
        <ele>176.31</ele>
        <time>2014-03-23T08:16:53Z</time>
      </trkpt>
      <trkpt lat="46.90593" lon="4.71411">
        <ele>175.88</ele>
        <time>2014-03-23T08:16:56Z</time>
      </trkpt>
      <trkpt lat="46.90585" lon="4.71387">
        <ele>175.82</ele>
        <time>2014-03-23T08:16:59Z</time>
      </trkpt>
      <trkpt lat="46.90576" lon="4.71363">
        <ele>175.77</ele>
        <time>2014-03-23T08:17:02Z</time>
      </trkpt>
      <trkpt lat="46.90567" lon="4.7134">
        <ele>175.74</ele>
        <time>2014-03-23T08:17:05Z</time>
      </trkpt>
      <trkpt lat="46.90557" lon="4.71309">
        <ele>175.71</ele>
        <time>2014-03-23T08:17:09Z</time>
      </trkpt>
      <trkpt lat="46.90549" lon="4.7128">
        <ele>176.39</ele>
        <time>2014-03-23T08:17:13Z</time>
      </trkpt>
      <trkpt lat="46.9054" lon="4.71257">
        <ele>176.76</ele>
        <time>2014-03-23T08:17:17Z</time>
      </trkpt>
      <trkpt lat="46.9053" lon="4.71234">
        <ele>178.58</ele>
        <time>2014-03-23T08:17:23Z</time>
      </trkpt>
      <trkpt lat="46.9052" lon="4.71206">
        <ele>179.82</ele>
        <time>2014-03-23T08:17:29Z</time>
      </trkpt>
      <trkpt lat="46.90513" lon="4.7118">
        <ele>180.14</ele>
        <time>2014-03-23T08:17:34Z</time>
      </trkpt>
      <trkpt lat="46.90502" lon="4.71155">
        <ele>180.51</ele>
        <time>2014-03-23T08:17:39Z</time>
      </trkpt>
      <trkpt lat="46.90494" lon="4.7113">
        <ele>179.53</ele>
        <time>2014-03-23T08:17:43Z</time>
      </trkpt>
      <trkpt lat="46.90487" lon="4.71102">
        <ele>179.32</ele>
        <time>2014-03-23T08:17:47Z</time>
      </trkpt>
      <trkpt lat="46.90483" lon="4.7107">
        <ele>179.1</ele>
        <time>2014-03-23T08:17:51Z</time>
      </trkpt>
      <trkpt lat="46.90483" lon="4.71038">
        <ele>179</ele>
        <time>2014-03-23T08:17:55Z</time>
      </trkpt>
      <trkpt lat="46.90486" lon="4.71009">
        <ele>178.89</ele>
        <time>2014-03-23T08:17:59Z</time>
      </trkpt>
      <trkpt lat="46.90493" lon="4.7098">
        <ele>178.74</ele>
        <time>2014-03-23T08:18:03Z</time>
      </trkpt>
      <trkpt lat="46.90501" lon="4.7095">
        <ele>179.13</ele>
        <time>2014-03-23T08:18:07Z</time>
      </trkpt>
      <trkpt lat="46.90499" lon="4.7092">
        <ele>179.61</ele>
        <time>2014-03-23T08:18:11Z</time>
      </trkpt>
      <trkpt lat="46.90501" lon="4.70894">
        <ele>179.4</ele>
        <time>2014-03-23T08:18:15Z</time>
      </trkpt>
      <trkpt lat="46.90499" lon="4.70865">
        <ele>178.91</ele>
        <time>2014-03-23T08:18:19Z</time>
      </trkpt>
      <trkpt lat="46.90499" lon="4.70834">
        <ele>179.01</ele>
        <time>2014-03-23T08:18:24Z</time>
      </trkpt>
      <trkpt lat="46.90501" lon="4.70801">
        <ele>179.42</ele>
        <time>2014-03-23T08:18:29Z</time>
      </trkpt>
      <trkpt lat="46.905" lon="4.70772">
        <ele>179.59</ele>
        <time>2014-03-23T08:18:33Z</time>
      </trkpt>
      <trkpt lat="46.90498" lon="4.70738">
        <ele>181.22</ele>
        <time>2014-03-23T08:18:38Z</time>
      </trkpt>
      <trkpt lat="46.90488" lon="4.70709">
        <ele>182.66</ele>
        <time>2014-03-23T08:18:42Z</time>
      </trkpt>
      <trkpt lat="46.90476" lon="4.70688">
        <ele>183.55</ele>
        <time>2014-03-23T08:18:45Z</time>
      </trkpt>
      <trkpt lat="46.90465" lon="4.70662">
        <ele>182.25</ele>
        <time>2014-03-23T08:18:48Z</time>
      </trkpt>
      <trkpt lat="46.90458" lon="4.7063">
        <ele>180.9</ele>
        <time>2014-03-23T08:18:51Z</time>
      </trkpt>
      <trkpt lat="46.90458" lon="4.70599">
        <ele>180.42</ele>
        <time>2014-03-23T08:18:54Z</time>
      </trkpt>
      <trkpt lat="46.90461" lon="4.70568">
        <ele>180.33</ele>
        <time>2014-03-23T08:18:57Z</time>
      </trkpt>
      <trkpt lat="46.90467" lon="4.70537">
        <ele>180.19</ele>
        <time>2014-03-23T08:19:00Z</time>
      </trkpt>
      <trkpt lat="46.90474" lon="4.70507">
        <ele>180.47</ele>
        <time>2014-03-23T08:19:03Z</time>
      </trkpt>
      <trkpt lat="46.90478" lon="4.70475">
        <ele>180.98</ele>
        <time>2014-03-23T08:19:06Z</time>
      </trkpt>
      <trkpt lat="46.90484" lon="4.70443">
        <ele>181.87</ele>
        <time>2014-03-23T08:19:09Z</time>
      </trkpt>
      <trkpt lat="46.90488" lon="4.70412">
        <ele>181.74</ele>
        <time>2014-03-23T08:19:12Z</time>
      </trkpt>
      <trkpt lat="46.90492" lon="4.70382">
        <ele>181.96</ele>
        <time>2014-03-23T08:19:15Z</time>
      </trkpt>
      <trkpt lat="46.90494" lon="4.70352">
        <ele>181.9</ele>
        <time>2014-03-23T08:19:18Z</time>
      </trkpt>
      <trkpt lat="46.90499" lon="4.70324">
        <ele>181.62</ele>
        <time>2014-03-23T08:19:21Z</time>
      </trkpt>
      <trkpt lat="46.90503" lon="4.70296">
        <ele>181.72</ele>
        <time>2014-03-23T08:19:24Z</time>
      </trkpt>
      <trkpt lat="46.90506" lon="4.70265">
        <ele>182.47</ele>
        <time>2014-03-23T08:19:27Z</time>
      </trkpt>
      <trkpt lat="46.9051" lon="4.70236">
        <ele>183.3</ele>
        <time>2014-03-23T08:19:30Z</time>
      </trkpt>
      <trkpt lat="46.90514" lon="4.70206">
        <ele>183.69</ele>
        <time>2014-03-23T08:19:33Z</time>
      </trkpt>
      <trkpt lat="46.90519" lon="4.70174">
        <ele>184.08</ele>
        <time>2014-03-23T08:19:36Z</time>
      </trkpt>
      <trkpt lat="46.90521" lon="4.70143">
        <ele>183.47</ele>
        <time>2014-03-23T08:19:39Z</time>
      </trkpt>
      <trkpt lat="46.90525" lon="4.70114">
        <ele>183.33</ele>
        <time>2014-03-23T08:19:42Z</time>
      </trkpt>
      <trkpt lat="46.90527" lon="4.70084">
        <ele>183.66</ele>
        <time>2014-03-23T08:19:45Z</time>
      </trkpt>
      <trkpt lat="46.90528" lon="4.70054">
        <ele>183.33</ele>
        <time>2014-03-23T08:19:48Z</time>
      </trkpt>
      <trkpt lat="46.90529" lon="4.70026">
        <ele>184.05</ele>
        <time>2014-03-23T08:19:51Z</time>
      </trkpt>
      <trkpt lat="46.90527" lon="4.69998">
        <ele>184.44</ele>
        <time>2014-03-23T08:19:54Z</time>
      </trkpt>
      <trkpt lat="46.90526" lon="4.69969">
        <ele>184.62</ele>
        <time>2014-03-23T08:19:57Z</time>
      </trkpt>
      <trkpt lat="46.90523" lon="4.69939">
        <ele>184.71</ele>
        <time>2014-03-23T08:20:00Z</time>
      </trkpt>
      <trkpt lat="46.9052" lon="4.6991">
        <ele>185.08</ele>
        <time>2014-03-23T08:20:03Z</time>
      </trkpt>
      <trkpt lat="46.90516" lon="4.69882">
        <ele>184.97</ele>
        <time>2014-03-23T08:20:06Z</time>
      </trkpt>
      <trkpt lat="46.90513" lon="4.69854">
        <ele>184.86</ele>
        <time>2014-03-23T08:20:09Z</time>
      </trkpt>
      <trkpt lat="46.9051" lon="4.69827">
        <ele>184.16</ele>
        <time>2014-03-23T08:20:12Z</time>
      </trkpt>
      <trkpt lat="46.90504" lon="4.69799">
        <ele>182.96</ele>
        <time>2014-03-23T08:20:15Z</time>
      </trkpt>
      <trkpt lat="46.90497" lon="4.6977">
        <ele>181.53</ele>
        <time>2014-03-23T08:20:18Z</time>
      </trkpt>
      <trkpt lat="46.90491" lon="4.69743">
        <ele>180.38</ele>
        <time>2014-03-23T08:20:21Z</time>
      </trkpt>
      <trkpt lat="46.90482" lon="4.69717">
        <ele>178.97</ele>
        <time>2014-03-23T08:20:24Z</time>
      </trkpt>
      <trkpt lat="46.90471" lon="4.69693">
        <ele>178.14</ele>
        <time>2014-03-23T08:20:27Z</time>
      </trkpt>
      <trkpt lat="46.90462" lon="4.6967">
        <ele>177.62</ele>
        <time>2014-03-23T08:20:30Z</time>
      </trkpt>
      <trkpt lat="46.90455" lon="4.69644">
        <ele>176.68</ele>
        <time>2014-03-23T08:20:34Z</time>
      </trkpt>
      <trkpt lat="46.90457" lon="4.69615">
        <ele>176.64</ele>
        <time>2014-03-23T08:20:40Z</time>
      </trkpt>
      <trkpt lat="46.90475" lon="4.69594">
        <ele>178.46</ele>
        <time>2014-03-23T08:20:46Z</time>
      </trkpt>
      <trkpt lat="46.90498" lon="4.69594">
        <ele>179.08</ele>
        <time>2014-03-23T08:20:50Z</time>
      </trkpt>
      <trkpt lat="46.90521" lon="4.69587">
        <ele>180.78</ele>
        <time>2014-03-23T08:20:54Z</time>
      </trkpt>
      <trkpt lat="46.90537" lon="4.69571">
        <ele>181.13</ele>
        <time>2014-03-23T08:20:57Z</time>
      </trkpt>
      <trkpt lat="46.90559" lon="4.69559">
        <ele>181.02</ele>
        <time>2014-03-23T08:21:01Z</time>
      </trkpt>
      <trkpt lat="46.90576" lon="4.69553">
        <ele>181.02</ele>
        <time>2014-03-23T08:21:04Z</time>
      </trkpt>
      <trkpt lat="46.90595" lon="4.69551">
        <ele>178.15</ele>
        <time>2014-03-23T08:21:07Z</time>
      </trkpt>
      <trkpt lat="46.90617" lon="4.69548">
        <ele>176.65</ele>
        <time>2014-03-23T08:21:11Z</time>
      </trkpt>
      <trkpt lat="46.90638" lon="4.69544">
        <ele>176.85</ele>
        <time>2014-03-23T08:21:15Z</time>
      </trkpt>
      <trkpt lat="46.90659" lon="4.69538">
        <ele>178.23</ele>
        <time>2014-03-23T08:21:20Z</time>
      </trkpt>
      <trkpt lat="46.90676" lon="4.69521">
        <ele>179.24</ele>
        <time>2014-03-23T08:21:25Z</time>
      </trkpt>
      <trkpt lat="46.90692" lon="4.69505">
        <ele>179.2</ele>
        <time>2014-03-23T08:21:29Z</time>
      </trkpt>
      <trkpt lat="46.90707" lon="4.69491">
        <ele>178.58</ele>
        <time>2014-03-23T08:21:33Z</time>
      </trkpt>
      <trkpt lat="46.90725" lon="4.6948">
        <ele>176.82</ele>
        <time>2014-03-23T08:21:37Z</time>
      </trkpt>
      <trkpt lat="46.90741" lon="4.69467">
        <ele>176.12</ele>
        <time>2014-03-23T08:21:42Z</time>
      </trkpt>
      <trkpt lat="46.9076" lon="4.69461">
        <ele>176.55</ele>
        <time>2014-03-23T08:21:48Z</time>
      </trkpt>
      <trkpt lat="46.90766" lon="4.69432">
        <ele>177.7</ele>
        <time>2014-03-23T08:21:56Z</time>
      </trkpt>
      <trkpt lat="46.90753" lon="4.69407">
        <ele>179.14</ele>
        <time>2014-03-23T08:22:01Z</time>
      </trkpt>
      <trkpt lat="46.9074" lon="4.69382">
        <ele>179.29</ele>
        <time>2014-03-23T08:22:06Z</time>
      </trkpt>
      <trkpt lat="46.90732" lon="4.69355">
        <ele>175.86</ele>
        <time>2014-03-23T08:22:11Z</time>
      </trkpt>
      <trkpt lat="46.90724" lon="4.69329">
        <ele>173.11</ele>
        <time>2014-03-23T08:22:15Z</time>
      </trkpt>
      <trkpt lat="46.90715" lon="4.69307">
        <ele>171.66</ele>
        <time>2014-03-23T08:22:19Z</time>
      </trkpt>
      <trkpt lat="46.90701" lon="4.69283">
        <ele>171.9</ele>
        <time>2014-03-23T08:22:24Z</time>
      </trkpt>
      <trkpt lat="46.90691" lon="4.69256">
        <ele>173.28</ele>
        <time>2014-03-23T08:22:29Z</time>
      </trkpt>
      <trkpt lat="46.90685" lon="4.69228">
        <ele>174.92</ele>
        <time>2014-03-23T08:22:33Z</time>
      </trkpt>
      <trkpt lat="46.90676" lon="4.69204">
        <ele>176.62</ele>
        <time>2014-03-23T08:22:37Z</time>
      </trkpt>
      <trkpt lat="46.90669" lon="4.6918">
        <ele>177.61</ele>
        <time>2014-03-23T08:22:41Z</time>
      </trkpt>
      <trkpt lat="46.90662" lon="4.69155">
        <ele>178.37</ele>
        <time>2014-03-23T08:22:45Z</time>
      </trkpt>
      <trkpt lat="46.90655" lon="4.69127">
        <ele>181.14</ele>
        <time>2014-03-23T08:22:50Z</time>
      </trkpt>
      <trkpt lat="46.90646" lon="4.69098">
        <ele>183.4</ele>
        <time>2014-03-23T08:22:55Z</time>
      </trkpt>
      <trkpt lat="46.90639" lon="4.69072">
        <ele>184.46</ele>
        <time>2014-03-23T08:22:59Z</time>
      </trkpt>
      <trkpt lat="46.90632" lon="4.6904">
        <ele>184.8</ele>
        <time>2014-03-23T08:23:03Z</time>
      </trkpt>
      <trkpt lat="46.90622" lon="4.69013">
        <ele>184.56</ele>
        <time>2014-03-23T08:23:07Z</time>
      </trkpt>
      <trkpt lat="46.90614" lon="4.68986">
        <ele>184.2</ele>
        <time>2014-03-23T08:23:11Z</time>
      </trkpt>
      <trkpt lat="46.90607" lon="4.68961">
        <ele>184.99</ele>
        <time>2014-03-23T08:23:15Z</time>
      </trkpt>
      <trkpt lat="46.90593" lon="4.68936">
        <ele>185.89</ele>
        <time>2014-03-23T08:23:20Z</time>
      </trkpt>
      <trkpt lat="46.90588" lon="4.6891">
        <ele>186.25</ele>
        <time>2014-03-23T08:23:25Z</time>
      </trkpt>
      <trkpt lat="46.90593" lon="4.6888">
        <ele>187.51</ele>
        <time>2014-03-23T08:23:52Z</time>
      </trkpt>
      <trkpt lat="46.90587" lon="4.68851">
        <ele>188.1</ele>
        <time>2014-03-23T08:23:58Z</time>
      </trkpt>
      <trkpt lat="46.90575" lon="4.68828">
        <ele>188.09</ele>
        <time>2014-03-23T08:24:02Z</time>
      </trkpt>
      <trkpt lat="46.90566" lon="4.68804">
        <ele>187.97</ele>
        <time>2014-03-23T08:24:07Z</time>
      </trkpt>
      <trkpt lat="46.90557" lon="4.68775">
        <ele>189.12</ele>
        <time>2014-03-23T08:24:13Z</time>
      </trkpt>
      <trkpt lat="46.90553" lon="4.68748">
        <ele>189.73</ele>
        <time>2014-03-23T08:24:18Z</time>
      </trkpt>
      <trkpt lat="46.90549" lon="4.68719">
        <ele>190.87</ele>
        <time>2014-03-23T08:24:23Z</time>
      </trkpt>
      <trkpt lat="46.90545" lon="4.68692">
        <ele>192.15</ele>
        <time>2014-03-23T08:24:28Z</time>
      </trkpt>
      <trkpt lat="46.90539" lon="4.68665">
        <ele>195.07</ele>
        <time>2014-03-23T08:24:33Z</time>
      </trkpt>
      <trkpt lat="46.90531" lon="4.68637">
        <ele>198.71</ele>
        <time>2014-03-23T08:24:39Z</time>
      </trkpt>
      <trkpt lat="46.90523" lon="4.6861">
        <ele>200.3</ele>
        <time>2014-03-23T08:24:45Z</time>
      </trkpt>
      <trkpt lat="46.90525" lon="4.6858">
        <ele>198.85</ele>
        <time>2014-03-23T08:24:50Z</time>
      </trkpt>
      <trkpt lat="46.90523" lon="4.68551">
        <ele>200.97</ele>
        <time>2014-03-23T08:24:55Z</time>
      </trkpt>
      <trkpt lat="46.90516" lon="4.6852">
        <ele>202.83</ele>
        <time>2014-03-23T08:25:00Z</time>
      </trkpt>
      <trkpt lat="46.9051" lon="4.68493">
        <ele>204.13</ele>
        <time>2014-03-23T08:25:04Z</time>
      </trkpt>
      <trkpt lat="46.90502" lon="4.68469">
        <ele>205.07</ele>
        <time>2014-03-23T08:25:08Z</time>
      </trkpt>
      <trkpt lat="46.90491" lon="4.68439">
        <ele>204.2</ele>
        <time>2014-03-23T08:25:12Z</time>
      </trkpt>
      <trkpt lat="46.90482" lon="4.68409">
        <ele>203.37</ele>
        <time>2014-03-23T08:25:16Z</time>
      </trkpt>
      <trkpt lat="46.90479" lon="4.68375">
        <ele>202.61</ele>
        <time>2014-03-23T08:25:20Z</time>
      </trkpt>
      <trkpt lat="46.90479" lon="4.68348">
        <ele>201.41</ele>
        <time>2014-03-23T08:25:23Z</time>
      </trkpt>
      <trkpt lat="46.90474" lon="4.68323">
        <ele>200.23</ele>
        <time>2014-03-23T08:25:26Z</time>
      </trkpt>
      <trkpt lat="46.90464" lon="4.68294">
        <ele>198.62</ele>
        <time>2014-03-23T08:25:30Z</time>
      </trkpt>
      <trkpt lat="46.9045" lon="4.68271">
        <ele>197.48</ele>
        <time>2014-03-23T08:25:34Z</time>
      </trkpt>
      <trkpt lat="46.90436" lon="4.68252">
        <ele>198.88</ele>
        <time>2014-03-23T08:25:40Z</time>
      </trkpt>
      <trkpt lat="46.90418" lon="4.68242">
        <ele>200.27</ele>
        <time>2014-03-23T08:25:46Z</time>
      </trkpt>
      <trkpt lat="46.904" lon="4.68235">
        <ele>201.49</ele>
        <time>2014-03-23T08:25:53Z</time>
      </trkpt>
      <trkpt lat="46.90381" lon="4.68223">
        <ele>199.45</ele>
        <time>2014-03-23T08:25:59Z</time>
      </trkpt>
      <trkpt lat="46.90368" lon="4.68202">
        <ele>198.6</ele>
        <time>2014-03-23T08:26:06Z</time>
      </trkpt>
      <trkpt lat="46.90358" lon="4.68177">
        <ele>202.21</ele>
        <time>2014-03-23T08:26:15Z</time>
      </trkpt>
      <trkpt lat="46.90346" lon="4.68155">
        <ele>207.72</ele>
        <time>2014-03-23T08:26:24Z</time>
      </trkpt>
      <trkpt lat="46.90334" lon="4.68131">
        <ele>212.64</ele>
        <time>2014-03-23T08:26:31Z</time>
      </trkpt>
      <trkpt lat="46.90325" lon="4.68108">
        <ele>216.19</ele>
        <time>2014-03-23T08:26:36Z</time>
      </trkpt>
      <trkpt lat="46.90309" lon="4.68086">
        <ele>219.81</ele>
        <time>2014-03-23T08:26:41Z</time>
      </trkpt>
      <trkpt lat="46.903" lon="4.68063">
        <ele>224.4</ele>
        <time>2014-03-23T08:26:46Z</time>
      </trkpt>
      <trkpt lat="46.90288" lon="4.68039">
        <ele>226.5</ele>
        <time>2014-03-23T08:26:50Z</time>
      </trkpt>
      <trkpt lat="46.90275" lon="4.68019">
        <ele>227.03</ele>
        <time>2014-03-23T08:26:53Z</time>
      </trkpt>
      <trkpt lat="46.9026" lon="4.67998">
        <ele>227.5</ele>
        <time>2014-03-23T08:26:56Z</time>
      </trkpt>
      <trkpt lat="46.90244" lon="4.67978">
        <ele>227.36</ele>
        <time>2014-03-23T08:26:59Z</time>
      </trkpt>
      <trkpt lat="46.9023" lon="4.67953">
        <ele>226.33</ele>
        <time>2014-03-23T08:27:02Z</time>
      </trkpt>
      <trkpt lat="46.90219" lon="4.67931">
        <ele>224.85</ele>
        <time>2014-03-23T08:27:05Z</time>
      </trkpt>
      <trkpt lat="46.90206" lon="4.67912">
        <ele>223.01</ele>
        <time>2014-03-23T08:27:08Z</time>
      </trkpt>
      <trkpt lat="46.90188" lon="4.67895">
        <ele>217.43</ele>
        <time>2014-03-23T08:27:11Z</time>
      </trkpt>
      <trkpt lat="46.9017" lon="4.67874">
        <ele>206.89</ele>
        <time>2014-03-23T08:27:15Z</time>
      </trkpt>
      <trkpt lat="46.90159" lon="4.67849">
        <ele>200.15</ele>
        <time>2014-03-23T08:27:20Z</time>
      </trkpt>
      <trkpt lat="46.9015" lon="4.67822">
        <ele>195.62</ele>
        <time>2014-03-23T08:27:25Z</time>
      </trkpt>
      <trkpt lat="46.90142" lon="4.67796">
        <ele>193.56</ele>
        <time>2014-03-23T08:27:30Z</time>
      </trkpt>
      <trkpt lat="46.90134" lon="4.67769">
        <ele>192.86</ele>
        <time>2014-03-23T08:27:35Z</time>
      </trkpt>
      <trkpt lat="46.90128" lon="4.6774">
        <ele>192.49</ele>
        <time>2014-03-23T08:27:40Z</time>
      </trkpt>
      <trkpt lat="46.90123" lon="4.67711">
        <ele>192.22</ele>
        <time>2014-03-23T08:27:45Z</time>
      </trkpt>
      <trkpt lat="46.90119" lon="4.67683">
        <ele>193.35</ele>
        <time>2014-03-23T08:27:50Z</time>
      </trkpt>
      <trkpt lat="46.90114" lon="4.67653">
        <ele>194.27</ele>
        <time>2014-03-23T08:27:56Z</time>
      </trkpt>
      <trkpt lat="46.90109" lon="4.67624">
        <ele>194.77</ele>
        <time>2014-03-23T08:28:02Z</time>
      </trkpt>
      <trkpt lat="46.90106" lon="4.67597">
        <ele>195.79</ele>
        <time>2014-03-23T08:28:08Z</time>
      </trkpt>
      <trkpt lat="46.90103" lon="4.67565">
        <ele>195.51</ele>
        <time>2014-03-23T08:28:14Z</time>
      </trkpt>
      <trkpt lat="46.90102" lon="4.67539">
        <ele>195.95</ele>
        <time>2014-03-23T08:28:19Z</time>
      </trkpt>
      <trkpt lat="46.901" lon="4.67508">
        <ele>196.77</ele>
        <time>2014-03-23T08:28:25Z</time>
      </trkpt>
      <trkpt lat="46.90101" lon="4.67481">
        <ele>197.68</ele>
        <time>2014-03-23T08:28:30Z</time>
      </trkpt>
      <trkpt lat="46.90104" lon="4.6745">
        <ele>199.95</ele>
        <time>2014-03-23T08:28:36Z</time>
      </trkpt>
      <trkpt lat="46.90105" lon="4.67419">
        <ele>203.36</ele>
        <time>2014-03-23T08:28:41Z</time>
      </trkpt>
      <trkpt lat="46.90108" lon="4.67388">
        <ele>204.83</ele>
        <time>2014-03-23T08:28:46Z</time>
      </trkpt>
      <trkpt lat="46.90109" lon="4.67359">
        <ele>205.94</ele>
        <time>2014-03-23T08:28:51Z</time>
      </trkpt>
      <trkpt lat="46.90108" lon="4.67331">
        <ele>208.49</ele>
        <time>2014-03-23T08:28:56Z</time>
      </trkpt>
      <trkpt lat="46.90109" lon="4.67297">
        <ele>210.55</ele>
        <time>2014-03-23T08:29:01Z</time>
      </trkpt>
      <trkpt lat="46.90113" lon="4.67269">
        <ele>212.28</ele>
        <time>2014-03-23T08:29:05Z</time>
      </trkpt>
      <trkpt lat="46.90115" lon="4.6724">
        <ele>212.04</ele>
        <time>2014-03-23T08:29:09Z</time>
      </trkpt>
      <trkpt lat="46.90112" lon="4.67212">
        <ele>210.5</ele>
        <time>2014-03-23T08:29:13Z</time>
      </trkpt>
      <trkpt lat="46.90112" lon="4.67184">
        <ele>207.95</ele>
        <time>2014-03-23T08:29:17Z</time>
      </trkpt>
      <trkpt lat="46.90112" lon="4.67153">
        <ele>206.05</ele>
        <time>2014-03-23T08:29:21Z</time>
      </trkpt>
      <trkpt lat="46.90116" lon="4.67121">
        <ele>205.03</ele>
        <time>2014-03-23T08:29:25Z</time>
      </trkpt>
      <trkpt lat="46.90123" lon="4.67089">
        <ele>204.32</ele>
        <time>2014-03-23T08:29:29Z</time>
      </trkpt>
      <trkpt lat="46.90129" lon="4.67059">
        <ele>203.58</ele>
        <time>2014-03-23T08:29:33Z</time>
      </trkpt>
      <trkpt lat="46.90135" lon="4.67034">
        <ele>202.42</ele>
        <time>2014-03-23T08:29:37Z</time>
      </trkpt>
      <trkpt lat="46.90143" lon="4.67003">
        <ele>202.27</ele>
        <time>2014-03-23T08:29:42Z</time>
      </trkpt>
      <trkpt lat="46.90155" lon="4.66978">
        <ele>202.97</ele>
        <time>2014-03-23T08:29:48Z</time>
      </trkpt>
      <trkpt lat="46.90175" lon="4.66973">
        <ele>202.86</ele>
        <time>2014-03-23T08:29:54Z</time>
      </trkpt>
      <trkpt lat="46.90196" lon="4.66968">
        <ele>203.67</ele>
        <time>2014-03-23T08:30:00Z</time>
      </trkpt>
      <trkpt lat="46.90216" lon="4.66963">
        <ele>203.54</ele>
        <time>2014-03-23T08:30:06Z</time>
      </trkpt>
      <trkpt lat="46.90236" lon="4.66962">
        <ele>203.12</ele>
        <time>2014-03-23T08:30:12Z</time>
      </trkpt>
      <trkpt lat="46.90257" lon="4.6697">
        <ele>202.9</ele>
        <time>2014-03-23T08:30:18Z</time>
      </trkpt>
      <trkpt lat="46.90274" lon="4.66983">
        <ele>202.8</ele>
        <time>2014-03-23T08:30:24Z</time>
      </trkpt>
      <trkpt lat="46.90291" lon="4.66998">
        <ele>203.23</ele>
        <time>2014-03-23T08:30:30Z</time>
      </trkpt>
      <trkpt lat="46.90309" lon="4.67011">
        <ele>204.1</ele>
        <time>2014-03-23T08:30:36Z</time>
      </trkpt>
      <trkpt lat="46.90327" lon="4.67022">
        <ele>205.57</ele>
        <time>2014-03-23T08:30:42Z</time>
      </trkpt>
      <trkpt lat="46.90346" lon="4.6703">
        <ele>206.97</ele>
        <time>2014-03-23T08:30:48Z</time>
      </trkpt>
      <trkpt lat="46.90365" lon="4.67036">
        <ele>209.27</ele>
        <time>2014-03-23T08:30:54Z</time>
      </trkpt>
      <trkpt lat="46.90385" lon="4.6704">
        <ele>210.17</ele>
        <time>2014-03-23T08:31:00Z</time>
      </trkpt>
      <trkpt lat="46.90404" lon="4.67043">
        <ele>211.24</ele>
        <time>2014-03-23T08:31:06Z</time>
      </trkpt>
      <trkpt lat="46.90423" lon="4.67043">
        <ele>212.42</ele>
        <time>2014-03-23T08:31:12Z</time>
      </trkpt>
      <trkpt lat="46.90441" lon="4.67043">
        <ele>212.68</ele>
        <time>2014-03-23T08:31:17Z</time>
      </trkpt>
      <trkpt lat="46.90459" lon="4.67048">
        <ele>214.05</ele>
        <time>2014-03-23T08:31:23Z</time>
      </trkpt>
      <trkpt lat="46.90478" lon="4.67061">
        <ele>214.04</ele>
        <time>2014-03-23T08:31:29Z</time>
      </trkpt>
      <trkpt lat="46.90491" lon="4.67079">
        <ele>214.12</ele>
        <time>2014-03-23T08:31:34Z</time>
      </trkpt>
      <trkpt lat="46.90505" lon="4.67099">
        <ele>213.97</ele>
        <time>2014-03-23T08:31:39Z</time>
      </trkpt>
      <trkpt lat="46.90519" lon="4.67116">
        <ele>214.38</ele>
        <time>2014-03-23T08:31:44Z</time>
      </trkpt>
      <trkpt lat="46.90538" lon="4.67128">
        <ele>213.95</ele>
        <time>2014-03-23T08:31:49Z</time>
      </trkpt>
      <trkpt lat="46.90557" lon="4.67133">
        <ele>214.33</ele>
        <time>2014-03-23T08:31:54Z</time>
      </trkpt>
      <trkpt lat="46.90575" lon="4.67137">
        <ele>215.28</ele>
        <time>2014-03-23T08:31:59Z</time>
      </trkpt>
      <trkpt lat="46.90595" lon="4.67141">
        <ele>217.79</ele>
        <time>2014-03-23T08:32:05Z</time>
      </trkpt>
      <trkpt lat="46.90614" lon="4.67146">
        <ele>219.04</ele>
        <time>2014-03-23T08:32:11Z</time>
      </trkpt>
      <trkpt lat="46.90633" lon="4.67154">
        <ele>220.48</ele>
        <time>2014-03-23T08:32:17Z</time>
      </trkpt>
      <trkpt lat="46.90652" lon="4.6716">
        <ele>221.3</ele>
        <time>2014-03-23T08:32:23Z</time>
      </trkpt>
      <trkpt lat="46.9067" lon="4.67166">
        <ele>221.3</ele>
        <time>2014-03-23T08:32:29Z</time>
      </trkpt>
      <trkpt lat="46.90689" lon="4.67171">
        <ele>222.47</ele>
        <time>2014-03-23T08:32:36Z</time>
      </trkpt>
      <trkpt lat="46.90709" lon="4.67177">
        <ele>224.16</ele>
        <time>2014-03-23T08:32:44Z</time>
      </trkpt>
      <trkpt lat="46.90729" lon="4.6718">
        <ele>226.13</ele>
        <time>2014-03-23T08:32:52Z</time>
      </trkpt>
      <trkpt lat="46.90749" lon="4.67183">
        <ele>227.52</ele>
        <time>2014-03-23T08:33:00Z</time>
      </trkpt>
      <trkpt lat="46.90767" lon="4.67184">
        <ele>228.89</ele>
        <time>2014-03-23T08:33:07Z</time>
      </trkpt>
      <trkpt lat="46.90786" lon="4.67182">
        <ele>230.17</ele>
        <time>2014-03-23T08:33:15Z</time>
      </trkpt>
      <trkpt lat="46.90806" lon="4.67185">
        <ele>232.24</ele>
        <time>2014-03-23T08:33:23Z</time>
      </trkpt>
      <trkpt lat="46.90824" lon="4.67187">
        <ele>235.47</ele>
        <time>2014-03-23T08:33:31Z</time>
      </trkpt>
      <trkpt lat="46.90843" lon="4.6719">
        <ele>239.27</ele>
        <time>2014-03-23T08:33:39Z</time>
      </trkpt>
      <trkpt lat="46.90861" lon="4.67191">
        <ele>240.45</ele>
        <time>2014-03-23T08:33:47Z</time>
      </trkpt>
      <trkpt lat="46.90879" lon="4.67191">
        <ele>242.05</ele>
        <time>2014-03-23T08:33:56Z</time>
      </trkpt>
      <trkpt lat="46.90898" lon="4.6719">
        <ele>244.19</ele>
        <time>2014-03-23T08:34:05Z</time>
      </trkpt>
      <trkpt lat="46.90916" lon="4.67188">
        <ele>246.31</ele>
        <time>2014-03-23T08:34:13Z</time>
      </trkpt>
      <trkpt lat="46.90934" lon="4.67185">
        <ele>249.05</ele>
        <time>2014-03-23T08:34:21Z</time>
      </trkpt>
      <trkpt lat="46.90953" lon="4.67183">
        <ele>251.13</ele>
        <time>2014-03-23T08:34:29Z</time>
      </trkpt>
      <trkpt lat="46.90972" lon="4.67181">
        <ele>253.26</ele>
        <time>2014-03-23T08:34:38Z</time>
      </trkpt>
      <trkpt lat="46.90991" lon="4.67179">
        <ele>254.83</ele>
        <time>2014-03-23T08:34:48Z</time>
      </trkpt>
      <trkpt lat="46.91009" lon="4.67187">
        <ele>257.46</ele>
        <time>2014-03-23T08:34:58Z</time>
      </trkpt>
      <trkpt lat="46.91028" lon="4.67196">
        <ele>261.01</ele>
        <time>2014-03-23T08:35:08Z</time>
      </trkpt>
      <trkpt lat="46.91047" lon="4.67203">
        <ele>262.98</ele>
        <time>2014-03-23T08:35:18Z</time>
      </trkpt>
      <trkpt lat="46.91066" lon="4.67206">
        <ele>265.33</ele>
        <time>2014-03-23T08:35:28Z</time>
      </trkpt>
      <trkpt lat="46.91084" lon="4.67203">
        <ele>267.47</ele>
        <time>2014-03-23T08:35:39Z</time>
      </trkpt>
      <trkpt lat="46.91102" lon="4.67198">
        <ele>269.41</ele>
        <time>2014-03-23T08:35:50Z</time>
      </trkpt>
      <trkpt lat="46.91121" lon="4.67198">
        <ele>272.38</ele>
        <time>2014-03-23T08:36:02Z</time>
      </trkpt>
      <trkpt lat="46.9114" lon="4.67198">
        <ele>276.28</ele>
        <time>2014-03-23T08:36:14Z</time>
      </trkpt>
      <trkpt lat="46.91158" lon="4.67203">
        <ele>278.52</ele>
        <time>2014-03-23T08:36:26Z</time>
      </trkpt>
      <trkpt lat="46.91176" lon="4.67211">
        <ele>278.36</ele>
        <time>2014-03-23T08:36:36Z</time>
      </trkpt>
      <trkpt lat="46.91194" lon="4.67218">
        <ele>278.93</ele>
        <time>2014-03-23T08:36:47Z</time>
      </trkpt>
      <trkpt lat="46.91212" lon="4.67227">
        <ele>282.1</ele>
        <time>2014-03-23T08:36:59Z</time>
      </trkpt>
      <trkpt lat="46.91229" lon="4.67237">
        <ele>284.12</ele>
        <time>2014-03-23T08:37:10Z</time>
      </trkpt>
      <trkpt lat="46.91247" lon="4.67246">
        <ele>286.87</ele>
        <time>2014-03-23T08:37:22Z</time>
      </trkpt>
      <trkpt lat="46.91254" lon="4.67222">
        <ele>289.66</ele>
        <time>2014-03-23T08:37:36Z</time>
      </trkpt>
      <trkpt lat="46.91267" lon="4.67203">
        <ele>294</ele>
        <time>2014-03-23T08:37:51Z</time>
      </trkpt>
      <trkpt lat="46.91284" lon="4.67214">
        <ele>298.01</ele>
        <time>2014-03-23T08:38:05Z</time>
      </trkpt>
      <trkpt lat="46.91302" lon="4.67219">
        <ele>301.54</ele>
        <time>2014-03-23T08:38:21Z</time>
      </trkpt>
      <trkpt lat="46.9132" lon="4.67219">
        <ele>303.94</ele>
        <time>2014-03-23T08:38:37Z</time>
      </trkpt>
      <trkpt lat="46.91339" lon="4.67217">
        <ele>306.17</ele>
        <time>2014-03-23T08:38:52Z</time>
      </trkpt>
      <trkpt lat="46.91357" lon="4.67219">
        <ele>312.17</ele>
        <time>2014-03-23T08:39:08Z</time>
      </trkpt>
      <trkpt lat="46.91376" lon="4.67218">
        <ele>316.4</ele>
        <time>2014-03-23T08:39:25Z</time>
      </trkpt>
      <trkpt lat="46.91394" lon="4.67219">
        <ele>316.97</ele>
        <time>2014-03-23T08:39:38Z</time>
      </trkpt>
      <trkpt lat="46.91412" lon="4.67215">
        <ele>324.33</ele>
        <time>2014-03-23T08:39:58Z</time>
      </trkpt>
      <trkpt lat="46.91431" lon="4.67214">
        <ele>325.93</ele>
        <time>2014-03-23T08:40:13Z</time>
      </trkpt>
      <trkpt lat="46.91449" lon="4.6721">
        <ele>333</ele>
        <time>2014-03-23T08:40:31Z</time>
      </trkpt>
      <trkpt lat="46.91467" lon="4.67215">
        <ele>334.71</ele>
        <time>2014-03-23T08:40:48Z</time>
      </trkpt>
      <trkpt lat="46.91486" lon="4.67215">
        <ele>338.41</ele>
        <time>2014-03-23T08:41:04Z</time>
      </trkpt>
      <trkpt lat="46.91504" lon="4.67211">
        <ele>346.79</ele>
        <time>2014-03-23T08:41:24Z</time>
      </trkpt>
      <trkpt lat="46.91509" lon="4.67185">
        <ele>351.94</ele>
        <time>2014-03-23T08:41:41Z</time>
      </trkpt>
      <trkpt lat="46.91511" lon="4.67159">
        <ele>356.82</ele>
        <time>2014-03-23T08:41:57Z</time>
      </trkpt>
      <trkpt lat="46.91511" lon="4.67132">
        <ele>361.12</ele>
        <time>2014-03-23T08:42:14Z</time>
      </trkpt>
      <trkpt lat="46.91507" lon="4.67105">
        <ele>365.19</ele>
        <time>2014-03-23T08:42:32Z</time>
      </trkpt>
      <trkpt lat="46.91504" lon="4.67079">
        <ele>367.93</ele>
        <time>2014-03-23T08:42:47Z</time>
      </trkpt>
      <trkpt lat="46.91508" lon="4.67052">
        <ele>369.43</ele>
        <time>2014-03-23T08:43:04Z</time>
      </trkpt>
      <trkpt lat="46.91508" lon="4.67025">
        <ele>371</ele>
        <time>2014-03-23T08:43:18Z</time>
      </trkpt>
      <trkpt lat="46.91506" lon="4.66998">
        <ele>374.69</ele>
        <time>2014-03-23T08:43:34Z</time>
      </trkpt>
      <trkpt lat="46.91505" lon="4.6697">
        <ele>377.75</ele>
        <time>2014-03-23T08:43:48Z</time>
      </trkpt>
      <trkpt lat="46.91503" lon="4.66944">
        <ele>379.84</ele>
        <time>2014-03-23T08:44:04Z</time>
      </trkpt>
      <trkpt lat="46.91498" lon="4.66917">
        <ele>381.77</ele>
        <time>2014-03-23T08:44:19Z</time>
      </trkpt>
      <trkpt lat="46.91501" lon="4.66891">
        <ele>382.77</ele>
        <time>2014-03-23T08:44:37Z</time>
      </trkpt>
      <trkpt lat="46.91504" lon="4.66864">
        <ele>383.82</ele>
        <time>2014-03-23T08:44:54Z</time>
      </trkpt>
      <trkpt lat="46.91506" lon="4.66837">
        <ele>386.36</ele>
        <time>2014-03-23T08:45:11Z</time>
      </trkpt>
      <trkpt lat="46.91506" lon="4.66809">
        <ele>388.19</ele>
        <time>2014-03-23T08:45:28Z</time>
      </trkpt>
      <trkpt lat="46.91503" lon="4.66781">
        <ele>390.34</ele>
        <time>2014-03-23T08:45:42Z</time>
      </trkpt>
      <trkpt lat="46.91497" lon="4.66755">
        <ele>392.65</ele>
        <time>2014-03-23T08:45:56Z</time>
      </trkpt>
      <trkpt lat="46.91493" lon="4.66728">
        <ele>395.28</ele>
        <time>2014-03-23T08:46:10Z</time>
      </trkpt>
      <trkpt lat="46.91492" lon="4.66701">
        <ele>398.04</ele>
        <time>2014-03-23T08:46:23Z</time>
      </trkpt>
      <trkpt lat="46.91494" lon="4.66675">
        <ele>401.6</ele>
        <time>2014-03-23T08:46:36Z</time>
      </trkpt>
      <trkpt lat="46.915" lon="4.66649">
        <ele>405.85</ele>
        <time>2014-03-23T08:46:51Z</time>
      </trkpt>
      <trkpt lat="46.91509" lon="4.66626">
        <ele>408.68</ele>
        <time>2014-03-23T08:47:04Z</time>
      </trkpt>
      <trkpt lat="46.91523" lon="4.66608">
        <ele>411.66</ele>
        <time>2014-03-23T08:47:17Z</time>
      </trkpt>
      <trkpt lat="46.9154" lon="4.66602">
        <ele>413.01</ele>
        <time>2014-03-23T08:47:30Z</time>
      </trkpt>
      <trkpt lat="46.91559" lon="4.66594">
        <ele>414.2</ele>
        <time>2014-03-23T08:47:42Z</time>
      </trkpt>
      <trkpt lat="46.9157" lon="4.66573">
        <ele>416.77</ele>
        <time>2014-03-23T08:47:54Z</time>
      </trkpt>
      <trkpt lat="46.91584" lon="4.66553">
        <ele>417.54</ele>
        <time>2014-03-23T08:48:05Z</time>
      </trkpt>
      <trkpt lat="46.91598" lon="4.66533">
        <ele>418.27</ele>
        <time>2014-03-23T08:48:14Z</time>
      </trkpt>
      <trkpt lat="46.91612" lon="4.66515">
        <ele>419.55</ele>
        <time>2014-03-23T08:48:21Z</time>
      </trkpt>
      <trkpt lat="46.91626" lon="4.66497">
        <ele>418.87</ele>
        <time>2014-03-23T08:48:28Z</time>
      </trkpt>
      <trkpt lat="46.91638" lon="4.66477">
        <ele>419.84</ele>
        <time>2014-03-23T08:48:35Z</time>
      </trkpt>
      <trkpt lat="46.91654" lon="4.66461">
        <ele>420.56</ele>
        <time>2014-03-23T08:48:42Z</time>
      </trkpt>
      <trkpt lat="46.91669" lon="4.66443">
        <ele>420.34</ele>
        <time>2014-03-23T08:48:50Z</time>
      </trkpt>
      <trkpt lat="46.91687" lon="4.66426">
        <ele>420.89</ele>
        <time>2014-03-23T08:48:57Z</time>
      </trkpt>
      <trkpt lat="46.91704" lon="4.66411">
        <ele>418.51</ele>
        <time>2014-03-23T08:49:04Z</time>
      </trkpt>
      <trkpt lat="46.91719" lon="4.66395">
        <ele>417.72</ele>
        <time>2014-03-23T08:49:10Z</time>
      </trkpt>
      <trkpt lat="46.91736" lon="4.6638">
        <ele>417.45</ele>
        <time>2014-03-23T08:49:16Z</time>
      </trkpt>
      <trkpt lat="46.91754" lon="4.66372">
        <ele>417.05</ele>
        <time>2014-03-23T08:49:22Z</time>
      </trkpt>
      <trkpt lat="46.91765" lon="4.66398">
        <ele>416.56</ele>
        <time>2014-03-23T08:49:29Z</time>
      </trkpt>
      <trkpt lat="46.91775" lon="4.66422">
        <ele>418.86</ele>
        <time>2014-03-23T08:49:37Z</time>
      </trkpt>
      <trkpt lat="46.91785" lon="4.66448">
        <ele>421.77</ele>
        <time>2014-03-23T08:49:45Z</time>
      </trkpt>
      <trkpt lat="46.91796" lon="4.6647">
        <ele>423.81</ele>
        <time>2014-03-23T08:49:52Z</time>
      </trkpt>
      <trkpt lat="46.91808" lon="4.66491">
        <ele>425.98</ele>
        <time>2014-03-23T08:50:00Z</time>
      </trkpt>
      <trkpt lat="46.91822" lon="4.66509">
        <ele>427.68</ele>
        <time>2014-03-23T08:50:07Z</time>
      </trkpt>
      <trkpt lat="46.91839" lon="4.66523">
        <ele>428.02</ele>
        <time>2014-03-23T08:50:14Z</time>
      </trkpt>
      <trkpt lat="46.91856" lon="4.66534">
        <ele>429.73</ele>
        <time>2014-03-23T08:50:21Z</time>
      </trkpt>
      <trkpt lat="46.91874" lon="4.66548">
        <ele>430.15</ele>
        <time>2014-03-23T08:50:28Z</time>
      </trkpt>
      <trkpt lat="46.91888" lon="4.66567">
        <ele>430.28</ele>
        <time>2014-03-23T08:50:35Z</time>
      </trkpt>
      <trkpt lat="46.91895" lon="4.66593">
        <ele>429.09</ele>
        <time>2014-03-23T08:50:42Z</time>
      </trkpt>
      <trkpt lat="46.919" lon="4.66622">
        <ele>429.35</ele>
        <time>2014-03-23T08:50:50Z</time>
      </trkpt>
      <trkpt lat="46.91899" lon="4.6665">
        <ele>428.83</ele>
        <time>2014-03-23T08:50:58Z</time>
      </trkpt>
      <trkpt lat="46.91896" lon="4.66678">
        <ele>429.16</ele>
        <time>2014-03-23T08:51:07Z</time>
      </trkpt>
      <trkpt lat="46.919" lon="4.66705">
        <ele>431.31</ele>
        <time>2014-03-23T08:51:17Z</time>
      </trkpt>
      <trkpt lat="46.91906" lon="4.66731">
        <ele>433.97</ele>
        <time>2014-03-23T08:51:30Z</time>
      </trkpt>
      <trkpt lat="46.91909" lon="4.66757">
        <ele>436.07</ele>
        <time>2014-03-23T08:51:44Z</time>
      </trkpt>
      <trkpt lat="46.91893" lon="4.66771">
        <ele>437.03</ele>
        <time>2014-03-23T08:51:52Z</time>
      </trkpt>
      <trkpt lat="46.91878" lon="4.66788">
        <ele>437.15</ele>
        <time>2014-03-23T08:51:59Z</time>
      </trkpt>
      <trkpt lat="46.91865" lon="4.66809">
        <ele>438.81</ele>
        <time>2014-03-23T08:52:06Z</time>
      </trkpt>
      <trkpt lat="46.91848" lon="4.66828">
        <ele>437.29</ele>
        <time>2014-03-23T08:52:13Z</time>
      </trkpt>
      <trkpt lat="46.91832" lon="4.66845">
        <ele>435.73</ele>
        <time>2014-03-23T08:52:17Z</time>
      </trkpt>
      <trkpt lat="46.9183" lon="4.66877">
        <ele>434.85</ele>
        <time>2014-03-23T08:52:22Z</time>
      </trkpt>
      <trkpt lat="46.91835" lon="4.66907">
        <ele>434.21</ele>
        <time>2014-03-23T08:52:27Z</time>
      </trkpt>
      <trkpt lat="46.91841" lon="4.66933">
        <ele>433.4</ele>
        <time>2014-03-23T08:52:31Z</time>
      </trkpt>
      <trkpt lat="46.91848" lon="4.66961">
        <ele>432.23</ele>
        <time>2014-03-23T08:52:35Z</time>
      </trkpt>
      <trkpt lat="46.9186" lon="4.66992">
        <ele>431.53</ele>
        <time>2014-03-23T08:52:39Z</time>
      </trkpt>
      <trkpt lat="46.91871" lon="4.67016">
        <ele>431.12</ele>
        <time>2014-03-23T08:52:42Z</time>
      </trkpt>
      <trkpt lat="46.91883" lon="4.6704">
        <ele>430.12</ele>
        <time>2014-03-23T08:52:45Z</time>
      </trkpt>
      <trkpt lat="46.91897" lon="4.67066">
        <ele>428.52</ele>
        <time>2014-03-23T08:52:48Z</time>
      </trkpt>
      <trkpt lat="46.91915" lon="4.6709">
        <ele>426.77</ele>
        <time>2014-03-23T08:52:51Z</time>
      </trkpt>
      <trkpt lat="46.91937" lon="4.67102">
        <ele>425.44</ele>
        <time>2014-03-23T08:52:54Z</time>
      </trkpt>
      <trkpt lat="46.91958" lon="4.6711">
        <ele>424.11</ele>
        <time>2014-03-23T08:52:57Z</time>
      </trkpt>
      <trkpt lat="46.91977" lon="4.67113">
        <ele>423.18</ele>
        <time>2014-03-23T08:53:00Z</time>
      </trkpt>
      <trkpt lat="46.91998" lon="4.67117">
        <ele>422.89</ele>
        <time>2014-03-23T08:53:04Z</time>
      </trkpt>
      <trkpt lat="46.92018" lon="4.67122">
        <ele>422.07</ele>
        <time>2014-03-23T08:53:08Z</time>
      </trkpt>
      <trkpt lat="46.92037" lon="4.67127">
        <ele>421.56</ele>
        <time>2014-03-23T08:53:12Z</time>
      </trkpt>
      <trkpt lat="46.92058" lon="4.67132">
        <ele>421.6</ele>
        <time>2014-03-23T08:53:17Z</time>
      </trkpt>
      <trkpt lat="46.92078" lon="4.67136">
        <ele>422.56</ele>
        <time>2014-03-23T08:53:22Z</time>
      </trkpt>
      <trkpt lat="46.92097" lon="4.67138">
        <ele>423.29</ele>
        <time>2014-03-23T08:53:27Z</time>
      </trkpt>
      <trkpt lat="46.92117" lon="4.67143">
        <ele>422.92</ele>
        <time>2014-03-23T08:53:31Z</time>
      </trkpt>
      <trkpt lat="46.92137" lon="4.67152">
        <ele>422.75</ele>
        <time>2014-03-23T08:53:35Z</time>
      </trkpt>
      <trkpt lat="46.92156" lon="4.67161">
        <ele>422.03</ele>
        <time>2014-03-23T08:53:39Z</time>
      </trkpt>
      <trkpt lat="46.92171" lon="4.67175">
        <ele>420.9</ele>
        <time>2014-03-23T08:53:43Z</time>
      </trkpt>
      <trkpt lat="46.92181" lon="4.67209">
        <ele>419.41</ele>
        <time>2014-03-23T08:53:47Z</time>
      </trkpt>
      <trkpt lat="46.9219" lon="4.67241">
        <ele>417.73</ele>
        <time>2014-03-23T08:53:50Z</time>
      </trkpt>
      <trkpt lat="46.92201" lon="4.67273">
        <ele>416.76</ele>
        <time>2014-03-23T08:53:53Z</time>
      </trkpt>
      <trkpt lat="46.92217" lon="4.67294">
        <ele>415.94</ele>
        <time>2014-03-23T08:53:56Z</time>
      </trkpt>
      <trkpt lat="46.92234" lon="4.67317">
        <ele>414.75</ele>
        <time>2014-03-23T08:54:00Z</time>
      </trkpt>
      <trkpt lat="46.92249" lon="4.67333">
        <ele>413.3</ele>
        <time>2014-03-23T08:54:04Z</time>
      </trkpt>
      <trkpt lat="46.92259" lon="4.67357">
        <ele>412.06</ele>
        <time>2014-03-23T08:54:10Z</time>
      </trkpt>
      <trkpt lat="46.92271" lon="4.67384">
        <ele>410.56</ele>
        <time>2014-03-23T08:54:16Z</time>
      </trkpt>
      <trkpt lat="46.92286" lon="4.67409">
        <ele>408.5</ele>
        <time>2014-03-23T08:54:20Z</time>
      </trkpt>
      <trkpt lat="46.92301" lon="4.67427">
        <ele>407.37</ele>
        <time>2014-03-23T08:54:23Z</time>
      </trkpt>
      <trkpt lat="46.92315" lon="4.67446">
        <ele>406.58</ele>
        <time>2014-03-23T08:54:27Z</time>
      </trkpt>
      <trkpt lat="46.92332" lon="4.67463">
        <ele>405.23</ele>
        <time>2014-03-23T08:54:32Z</time>
      </trkpt>
      <trkpt lat="46.92351" lon="4.67468">
        <ele>405.12</ele>
        <time>2014-03-23T08:54:37Z</time>
      </trkpt>
      <trkpt lat="46.92357" lon="4.67496">
        <ele>404.04</ele>
        <time>2014-03-23T08:54:46Z</time>
      </trkpt>
      <trkpt lat="46.92364" lon="4.6752">
        <ele>404.01</ele>
        <time>2014-03-23T08:54:58Z</time>
      </trkpt>
      <trkpt lat="46.9237" lon="4.67545">
        <ele>407.6</ele>
        <time>2014-03-23T08:55:13Z</time>
      </trkpt>
      <trkpt lat="46.92367" lon="4.67573">
        <ele>411.16</ele>
        <time>2014-03-23T08:55:35Z</time>
      </trkpt>
      <trkpt lat="46.92356" lon="4.67595">
        <ele>415.09</ele>
        <time>2014-03-23T08:55:53Z</time>
      </trkpt>
      <trkpt lat="46.9235" lon="4.67621">
        <ele>418.12</ele>
        <time>2014-03-23T08:56:07Z</time>
      </trkpt>
      <trkpt lat="46.92341" lon="4.67645">
        <ele>421.48</ele>
        <time>2014-03-23T08:56:20Z</time>
      </trkpt>
      <trkpt lat="46.92334" lon="4.67671">
        <ele>422.7</ele>
        <time>2014-03-23T08:58:17Z</time>
      </trkpt>
      <trkpt lat="46.92343" lon="4.67694">
        <ele>424.32</ele>
        <time>2014-03-23T08:58:36Z</time>
      </trkpt>
      <trkpt lat="46.92351" lon="4.67721">
        <ele>425.41</ele>
        <time>2014-03-23T08:58:49Z</time>
      </trkpt>
      <trkpt lat="46.92359" lon="4.67745">
        <ele>425.72</ele>
        <time>2014-03-23T08:58:55Z</time>
      </trkpt>
      <trkpt lat="46.92357" lon="4.67775">
        <ele>426.67</ele>
        <time>2014-03-23T08:59:02Z</time>
      </trkpt>
      <trkpt lat="46.92355" lon="4.67805">
        <ele>427.46</ele>
        <time>2014-03-23T08:59:08Z</time>
      </trkpt>
      <trkpt lat="46.92358" lon="4.67832">
        <ele>427.35</ele>
        <time>2014-03-23T08:59:12Z</time>
      </trkpt>
      <trkpt lat="46.92365" lon="4.67856">
        <ele>424.86</ele>
        <time>2014-03-23T08:59:20Z</time>
      </trkpt>
      <trkpt lat="46.92379" lon="4.67878">
        <ele>423.15</ele>
        <time>2014-03-23T08:59:29Z</time>
      </trkpt>
      <trkpt lat="46.92389" lon="4.67902">
        <ele>421.95</ele>
        <time>2014-03-23T08:59:34Z</time>
      </trkpt>
      <trkpt lat="46.92399" lon="4.67931">
        <ele>419.36</ele>
        <time>2014-03-23T08:59:39Z</time>
      </trkpt>
      <trkpt lat="46.92389" lon="4.67957">
        <ele>416.84</ele>
        <time>2014-03-23T08:59:44Z</time>
      </trkpt>
      <trkpt lat="46.92373" lon="4.67978">
        <ele>415.72</ele>
        <time>2014-03-23T09:00:04Z</time>
      </trkpt>
      <trkpt lat="46.92355" lon="4.6799">
        <ele>415.21</ele>
        <time>2014-03-23T09:00:12Z</time>
      </trkpt>
      <trkpt lat="46.9234" lon="4.68005">
        <ele>415.51</ele>
        <time>2014-03-23T09:00:23Z</time>
      </trkpt>
      <trkpt lat="46.92324" lon="4.68018">
        <ele>416.28</ele>
        <time>2014-03-23T09:00:30Z</time>
      </trkpt>
      <trkpt lat="46.92307" lon="4.68031">
        <ele>416.91</ele>
        <time>2014-03-23T09:00:36Z</time>
      </trkpt>
      <trkpt lat="46.92291" lon="4.68045">
        <ele>417.38</ele>
        <time>2014-03-23T09:00:42Z</time>
      </trkpt>
      <trkpt lat="46.92278" lon="4.68068">
        <ele>417.55</ele>
        <time>2014-03-23T09:00:50Z</time>
      </trkpt>
      <trkpt lat="46.92268" lon="4.68093">
        <ele>419.63</ele>
        <time>2014-03-23T09:00:59Z</time>
      </trkpt>
      <trkpt lat="46.92249" lon="4.68102">
        <ele>420.68</ele>
        <time>2014-03-23T09:01:08Z</time>
      </trkpt>
      <trkpt lat="46.92238" lon="4.68122">
        <ele>421.72</ele>
        <time>2014-03-23T09:01:18Z</time>
      </trkpt>
      <trkpt lat="46.92245" lon="4.68147">
        <ele>424.41</ele>
        <time>2014-03-23T09:01:33Z</time>
      </trkpt>
      <trkpt lat="46.92256" lon="4.6817">
        <ele>426.72</ele>
        <time>2014-03-23T09:03:37Z</time>
      </trkpt>
      <trkpt lat="46.92251" lon="4.68195">
        <ele>427.8</ele>
        <time>2014-03-23T09:03:55Z</time>
      </trkpt>
      <trkpt lat="46.92247" lon="4.68221">
        <ele>430.07</ele>
        <time>2014-03-23T09:04:19Z</time>
      </trkpt>
      <trkpt lat="46.92234" lon="4.68242">
        <ele>431.02</ele>
        <time>2014-03-23T09:04:28Z</time>
      </trkpt>
      <trkpt lat="46.92231" lon="4.68268">
        <ele>433.07</ele>
        <time>2014-03-23T09:04:36Z</time>
      </trkpt>
      <trkpt lat="46.92245" lon="4.68286">
        <ele>435.4</ele>
        <time>2014-03-23T09:04:48Z</time>
      </trkpt>
      <trkpt lat="46.92255" lon="4.68313">
        <ele>436.14</ele>
        <time>2014-03-23T09:04:55Z</time>
      </trkpt>
      <trkpt lat="46.92264" lon="4.68339">
        <ele>437.43</ele>
        <time>2014-03-23T09:05:01Z</time>
      </trkpt>
      <trkpt lat="46.92271" lon="4.68364">
        <ele>438.56</ele>
        <time>2014-03-23T09:05:06Z</time>
      </trkpt>
      <trkpt lat="46.92277" lon="4.68389">
        <ele>440.5</ele>
        <time>2014-03-23T09:05:11Z</time>
      </trkpt>
      <trkpt lat="46.92284" lon="4.68417">
        <ele>441.69</ele>
        <time>2014-03-23T09:05:17Z</time>
      </trkpt>
      <trkpt lat="46.92292" lon="4.68444">
        <ele>442.22</ele>
        <time>2014-03-23T09:05:23Z</time>
      </trkpt>
      <trkpt lat="46.92302" lon="4.6847">
        <ele>440.77</ele>
        <time>2014-03-23T09:05:29Z</time>
      </trkpt>
      <trkpt lat="46.9231" lon="4.68498">
        <ele>440.07</ele>
        <time>2014-03-23T09:05:35Z</time>
      </trkpt>
      <trkpt lat="46.92319" lon="4.68523">
        <ele>440.77</ele>
        <time>2014-03-23T09:05:41Z</time>
      </trkpt>
      <trkpt lat="46.92325" lon="4.68552">
        <ele>441.42</ele>
        <time>2014-03-23T09:05:48Z</time>
      </trkpt>
      <trkpt lat="46.92318" lon="4.68578">
        <ele>441.56</ele>
        <time>2014-03-23T09:05:54Z</time>
      </trkpt>
      <trkpt lat="46.92307" lon="4.68603">
        <ele>441.24</ele>
        <time>2014-03-23T09:05:59Z</time>
      </trkpt>
      <trkpt lat="46.923" lon="4.68633">
        <ele>440.74</ele>
        <time>2014-03-23T09:06:04Z</time>
      </trkpt>
      <trkpt lat="46.92301" lon="4.68662">
        <ele>440.31</ele>
        <time>2014-03-23T09:06:09Z</time>
      </trkpt>
      <trkpt lat="46.92288" lon="4.68687">
        <ele>440.74</ele>
        <time>2014-03-23T09:06:16Z</time>
      </trkpt>
      <trkpt lat="46.92273" lon="4.68703">
        <ele>440.38</ele>
        <time>2014-03-23T09:06:20Z</time>
      </trkpt>
      <trkpt lat="46.92256" lon="4.68719">
        <ele>439.49</ele>
        <time>2014-03-23T09:06:24Z</time>
      </trkpt>
      <trkpt lat="46.92247" lon="4.68748">
        <ele>438.92</ele>
        <time>2014-03-23T09:06:29Z</time>
      </trkpt>
      <trkpt lat="46.92245" lon="4.68779">
        <ele>439.03</ele>
        <time>2014-03-23T09:06:34Z</time>
      </trkpt>
      <trkpt lat="46.92241" lon="4.68804">
        <ele>438.8</ele>
        <time>2014-03-23T09:06:38Z</time>
      </trkpt>
      <trkpt lat="46.92235" lon="4.68835">
        <ele>438.28</ele>
        <time>2014-03-23T09:06:43Z</time>
      </trkpt>
      <trkpt lat="46.92227" lon="4.68864">
        <ele>438.2</ele>
        <time>2014-03-23T09:06:48Z</time>
      </trkpt>
      <trkpt lat="46.92221" lon="4.68894">
        <ele>437.49</ele>
        <time>2014-03-23T09:06:52Z</time>
      </trkpt>
      <trkpt lat="46.92217" lon="4.68929">
        <ele>436.74</ele>
        <time>2014-03-23T09:06:56Z</time>
      </trkpt>
      <trkpt lat="46.9221" lon="4.68959">
        <ele>436.21</ele>
        <time>2014-03-23T09:06:59Z</time>
      </trkpt>
      <trkpt lat="46.92209" lon="4.68988">
        <ele>434.91</ele>
        <time>2014-03-23T09:07:02Z</time>
      </trkpt>
      <trkpt lat="46.92209" lon="4.69018">
        <ele>433.97</ele>
        <time>2014-03-23T09:07:05Z</time>
      </trkpt>
      <trkpt lat="46.92213" lon="4.69049">
        <ele>432.22</ele>
        <time>2014-03-23T09:07:08Z</time>
      </trkpt>
      <trkpt lat="46.92221" lon="4.6908">
        <ele>430.16</ele>
        <time>2014-03-23T09:07:11Z</time>
      </trkpt>
      <trkpt lat="46.92231" lon="4.69105">
        <ele>429.2</ele>
        <time>2014-03-23T09:07:14Z</time>
      </trkpt>
      <trkpt lat="46.92243" lon="4.6913">
        <ele>427.66</ele>
        <time>2014-03-23T09:07:18Z</time>
      </trkpt>
      <trkpt lat="46.92258" lon="4.69155">
        <ele>426.15</ele>
        <time>2014-03-23T09:07:22Z</time>
      </trkpt>
      <trkpt lat="46.92274" lon="4.69173">
        <ele>425.18</ele>
        <time>2014-03-23T09:07:26Z</time>
      </trkpt>
      <trkpt lat="46.92291" lon="4.69185">
        <ele>423.93</ele>
        <time>2014-03-23T09:07:31Z</time>
      </trkpt>
      <trkpt lat="46.92308" lon="4.69203">
        <ele>423.67</ele>
        <time>2014-03-23T09:07:36Z</time>
      </trkpt>
      <trkpt lat="46.92318" lon="4.6923">
        <ele>423.64</ele>
        <time>2014-03-23T09:07:41Z</time>
      </trkpt>
      <trkpt lat="46.92327" lon="4.69254">
        <ele>423.75</ele>
        <time>2014-03-23T09:07:46Z</time>
      </trkpt>
      <trkpt lat="46.92335" lon="4.69278">
        <ele>423.7</ele>
        <time>2014-03-23T09:07:51Z</time>
      </trkpt>
      <trkpt lat="46.92346" lon="4.69303">
        <ele>424.04</ele>
        <time>2014-03-23T09:07:57Z</time>
      </trkpt>
      <trkpt lat="46.92358" lon="4.6933">
        <ele>424.58</ele>
        <time>2014-03-23T09:08:01Z</time>
      </trkpt>
      <trkpt lat="46.92364" lon="4.69356">
        <ele>424.66</ele>
        <time>2014-03-23T09:08:05Z</time>
      </trkpt>
      <trkpt lat="46.92369" lon="4.69384">
        <ele>423.33</ele>
        <time>2014-03-23T09:08:09Z</time>
      </trkpt>
      <trkpt lat="46.9238" lon="4.6941">
        <ele>422.13</ele>
        <time>2014-03-23T09:08:13Z</time>
      </trkpt>
      <trkpt lat="46.9239" lon="4.69434">
        <ele>421.3</ele>
        <time>2014-03-23T09:08:16Z</time>
      </trkpt>
      <trkpt lat="46.92398" lon="4.6946">
        <ele>420.46</ele>
        <time>2014-03-23T09:08:19Z</time>
      </trkpt>
      <trkpt lat="46.92406" lon="4.69487">
        <ele>419.25</ele>
        <time>2014-03-23T09:08:23Z</time>
      </trkpt>
      <trkpt lat="46.92411" lon="4.69513">
        <ele>418.32</ele>
        <time>2014-03-23T09:08:27Z</time>
      </trkpt>
      <trkpt lat="46.92407" lon="4.69541">
        <ele>417.41</ele>
        <time>2014-03-23T09:08:56Z</time>
      </trkpt>
      <trkpt lat="46.92403" lon="4.69569">
        <ele>417.22</ele>
        <time>2014-03-23T09:09:04Z</time>
      </trkpt>
      <trkpt lat="46.92411" lon="4.69596">
        <ele>416.62</ele>
        <time>2014-03-23T09:09:12Z</time>
      </trkpt>
      <trkpt lat="46.92414" lon="4.69623">
        <ele>415.86</ele>
        <time>2014-03-23T09:09:21Z</time>
      </trkpt>
      <trkpt lat="46.92415" lon="4.6965">
        <ele>415.64</ele>
        <time>2014-03-23T09:09:32Z</time>
      </trkpt>
      <trkpt lat="46.92407" lon="4.69675">
        <ele>415.21</ele>
        <time>2014-03-23T09:09:38Z</time>
      </trkpt>
      <trkpt lat="46.924" lon="4.69702">
        <ele>414.68</ele>
        <time>2014-03-23T09:09:47Z</time>
      </trkpt>
      <trkpt lat="46.92398" lon="4.69728">
        <ele>415.6</ele>
        <time>2014-03-23T09:09:56Z</time>
      </trkpt>
      <trkpt lat="46.92397" lon="4.69757">
        <ele>416.38</ele>
        <time>2014-03-23T09:10:02Z</time>
      </trkpt>
      <trkpt lat="46.92393" lon="4.69786">
        <ele>416.82</ele>
        <time>2014-03-23T09:10:06Z</time>
      </trkpt>
      <trkpt lat="46.92398" lon="4.69812">
        <ele>416.72</ele>
        <time>2014-03-23T09:10:11Z</time>
      </trkpt>
      <trkpt lat="46.92401" lon="4.69843">
        <ele>417.09</ele>
        <time>2014-03-23T09:10:17Z</time>
      </trkpt>
      <trkpt lat="46.92406" lon="4.69873">
        <ele>416.6</ele>
        <time>2014-03-23T09:10:22Z</time>
      </trkpt>
      <trkpt lat="46.92413" lon="4.699">
        <ele>416.12</ele>
        <time>2014-03-23T09:10:26Z</time>
      </trkpt>
      <trkpt lat="46.92423" lon="4.69928">
        <ele>415.04</ele>
        <time>2014-03-23T09:10:30Z</time>
      </trkpt>
      <trkpt lat="46.92432" lon="4.69954">
        <ele>412.81</ele>
        <time>2014-03-23T09:10:34Z</time>
      </trkpt>
      <trkpt lat="46.92438" lon="4.69979">
        <ele>410.41</ele>
        <time>2014-03-23T09:10:37Z</time>
      </trkpt>
      <trkpt lat="46.9245" lon="4.70007">
        <ele>406.98</ele>
        <time>2014-03-23T09:10:41Z</time>
      </trkpt>
      <trkpt lat="46.92462" lon="4.70031">
        <ele>403.08</ele>
        <time>2014-03-23T09:10:44Z</time>
      </trkpt>
      <trkpt lat="46.92475" lon="4.7005">
        <ele>400.02</ele>
        <time>2014-03-23T09:10:47Z</time>
      </trkpt>
      <trkpt lat="46.92491" lon="4.70072">
        <ele>395.16</ele>
        <time>2014-03-23T09:10:51Z</time>
      </trkpt>
      <trkpt lat="46.925" lon="4.70104">
        <ele>390.53</ele>
        <time>2014-03-23T09:10:55Z</time>
      </trkpt>
      <trkpt lat="46.92505" lon="4.70135">
        <ele>387.32</ele>
        <time>2014-03-23T09:10:58Z</time>
      </trkpt>
      <trkpt lat="46.92508" lon="4.70167">
        <ele>383.56</ele>
        <time>2014-03-23T09:11:01Z</time>
      </trkpt>
      <trkpt lat="46.92513" lon="4.70199">
        <ele>378.87</ele>
        <time>2014-03-23T09:11:05Z</time>
      </trkpt>
      <trkpt lat="46.92514" lon="4.70234">
        <ele>374.32</ele>
        <time>2014-03-23T09:11:09Z</time>
      </trkpt>
      <trkpt lat="46.92521" lon="4.70264">
        <ele>370.28</ele>
        <time>2014-03-23T09:11:13Z</time>
      </trkpt>
      <trkpt lat="46.92508" lon="4.7029">
        <ele>367.2</ele>
        <time>2014-03-23T09:11:17Z</time>
      </trkpt>
      <trkpt lat="46.92486" lon="4.70304">
        <ele>365.07</ele>
        <time>2014-03-23T09:11:20Z</time>
      </trkpt>
      <trkpt lat="46.92467" lon="4.70322">
        <ele>362.7</ele>
        <time>2014-03-23T09:11:23Z</time>
      </trkpt>
      <trkpt lat="46.92458" lon="4.70353">
        <ele>359.86</ele>
        <time>2014-03-23T09:11:26Z</time>
      </trkpt>
      <trkpt lat="46.92437" lon="4.70365">
        <ele>356.44</ele>
        <time>2014-03-23T09:11:30Z</time>
      </trkpt>
      <trkpt lat="46.92417" lon="4.70363">
        <ele>353.64</ele>
        <time>2014-03-23T09:11:33Z</time>
      </trkpt>
      <trkpt lat="46.92432" lon="4.7038">
        <ele>346.75</ele>
        <time>2014-03-23T09:13:02Z</time>
      </trkpt>
      <trkpt lat="46.9245" lon="4.70394">
        <ele>346.95</ele>
        <time>2014-03-23T09:13:07Z</time>
      </trkpt>
      <trkpt lat="46.92468" lon="4.70406">
        <ele>347.24</ele>
        <time>2014-03-23T09:13:12Z</time>
      </trkpt>
      <trkpt lat="46.92487" lon="4.70422">
        <ele>347.19</ele>
        <time>2014-03-23T09:13:17Z</time>
      </trkpt>
      <trkpt lat="46.92501" lon="4.70439">
        <ele>346.79</ele>
        <time>2014-03-23T09:13:21Z</time>
      </trkpt>
      <trkpt lat="46.92519" lon="4.70456">
        <ele>346.11</ele>
        <time>2014-03-23T09:13:25Z</time>
      </trkpt>
      <trkpt lat="46.92541" lon="4.70469">
        <ele>345.46</ele>
        <time>2014-03-23T09:13:29Z</time>
      </trkpt>
      <trkpt lat="46.9256" lon="4.70481">
        <ele>345.29</ele>
        <time>2014-03-23T09:13:35Z</time>
      </trkpt>
      <trkpt lat="46.92579" lon="4.70488">
        <ele>346.66</ele>
        <time>2014-03-23T09:13:41Z</time>
      </trkpt>
      <trkpt lat="46.92599" lon="4.7049">
        <ele>347.46</ele>
        <time>2014-03-23T09:13:46Z</time>
      </trkpt>
      <trkpt lat="46.92621" lon="4.70497">
        <ele>348.38</ele>
        <time>2014-03-23T09:13:51Z</time>
      </trkpt>
      <trkpt lat="46.92638" lon="4.70505">
        <ele>349.17</ele>
        <time>2014-03-23T09:13:55Z</time>
      </trkpt>
      <trkpt lat="46.92659" lon="4.70509">
        <ele>350.44</ele>
        <time>2014-03-23T09:14:01Z</time>
      </trkpt>
      <trkpt lat="46.92679" lon="4.70511">
        <ele>351.22</ele>
        <time>2014-03-23T09:14:07Z</time>
      </trkpt>
      <trkpt lat="46.92697" lon="4.70505">
        <ele>350.76</ele>
        <time>2014-03-23T09:14:12Z</time>
      </trkpt>
      <trkpt lat="46.92717" lon="4.70498">
        <ele>351.58</ele>
        <time>2014-03-23T09:14:17Z</time>
      </trkpt>
      <trkpt lat="46.92737" lon="4.70498">
        <ele>352.45</ele>
        <time>2014-03-23T09:14:21Z</time>
      </trkpt>
      <trkpt lat="46.92752" lon="4.70517">
        <ele>354.51</ele>
        <time>2014-03-23T09:14:26Z</time>
      </trkpt>
      <trkpt lat="46.92765" lon="4.70543">
        <ele>357.5</ele>
        <time>2014-03-23T09:14:32Z</time>
      </trkpt>
      <trkpt lat="46.92776" lon="4.70567">
        <ele>359.56</ele>
        <time>2014-03-23T09:14:36Z</time>
      </trkpt>
      <trkpt lat="46.92788" lon="4.70588">
        <ele>360.53</ele>
        <time>2014-03-23T09:14:40Z</time>
      </trkpt>
      <trkpt lat="46.92802" lon="4.70612">
        <ele>360.14</ele>
        <time>2014-03-23T09:14:45Z</time>
      </trkpt>
      <trkpt lat="46.92813" lon="4.7064">
        <ele>358.55</ele>
        <time>2014-03-23T09:14:50Z</time>
      </trkpt>
      <trkpt lat="46.92822" lon="4.70663">
        <ele>356.3</ele>
        <time>2014-03-23T09:14:56Z</time>
      </trkpt>
      <trkpt lat="46.92837" lon="4.70682">
        <ele>353.5</ele>
        <time>2014-03-23T09:15:03Z</time>
      </trkpt>
      <trkpt lat="46.92852" lon="4.707">
        <ele>354.37</ele>
        <time>2014-03-23T09:15:12Z</time>
      </trkpt>
      <trkpt lat="46.92866" lon="4.70722">
        <ele>354.44</ele>
        <time>2014-03-23T09:15:21Z</time>
      </trkpt>
      <trkpt lat="46.92879" lon="4.70741">
        <ele>354.47</ele>
        <time>2014-03-23T09:15:28Z</time>
      </trkpt>
      <trkpt lat="46.92888" lon="4.70767">
        <ele>354.06</ele>
        <time>2014-03-23T09:15:35Z</time>
      </trkpt>
      <trkpt lat="46.92895" lon="4.70794">
        <ele>354.27</ele>
        <time>2014-03-23T09:15:40Z</time>
      </trkpt>
      <trkpt lat="46.929" lon="4.7082">
        <ele>354.29</ele>
        <time>2014-03-23T09:15:44Z</time>
      </trkpt>
      <trkpt lat="46.92901" lon="4.70849">
        <ele>354.24</ele>
        <time>2014-03-23T09:15:48Z</time>
      </trkpt>
      <trkpt lat="46.92902" lon="4.70875">
        <ele>354.4</ele>
        <time>2014-03-23T09:15:52Z</time>
      </trkpt>
      <trkpt lat="46.92905" lon="4.70904">
        <ele>355.27</ele>
        <time>2014-03-23T09:15:56Z</time>
      </trkpt>
      <trkpt lat="46.92911" lon="4.70932">
        <ele>356.44</ele>
        <time>2014-03-23T09:16:00Z</time>
      </trkpt>
      <trkpt lat="46.92917" lon="4.70961">
        <ele>357.43</ele>
        <time>2014-03-23T09:16:04Z</time>
      </trkpt>
      <trkpt lat="46.92926" lon="4.7099">
        <ele>357.6</ele>
        <time>2014-03-23T09:16:08Z</time>
      </trkpt>
      <trkpt lat="46.92932" lon="4.7102">
        <ele>356.01</ele>
        <time>2014-03-23T09:16:12Z</time>
      </trkpt>
      <trkpt lat="46.92937" lon="4.71053">
        <ele>354.89</ele>
        <time>2014-03-23T09:16:16Z</time>
      </trkpt>
      <trkpt lat="46.92947" lon="4.71084">
        <ele>353.8</ele>
        <time>2014-03-23T09:16:20Z</time>
      </trkpt>
      <trkpt lat="46.92958" lon="4.71109">
        <ele>352.37</ele>
        <time>2014-03-23T09:16:24Z</time>
      </trkpt>
      <trkpt lat="46.92971" lon="4.71137">
        <ele>351.9</ele>
        <time>2014-03-23T09:16:28Z</time>
      </trkpt>
      <trkpt lat="46.92986" lon="4.7116">
        <ele>351.26</ele>
        <time>2014-03-23T09:16:32Z</time>
      </trkpt>
      <trkpt lat="46.93" lon="4.71177">
        <ele>350.55</ele>
        <time>2014-03-23T09:16:36Z</time>
      </trkpt>
      <trkpt lat="46.93014" lon="4.71196">
        <ele>349.83</ele>
        <time>2014-03-23T09:16:40Z</time>
      </trkpt>
      <trkpt lat="46.93022" lon="4.71226">
        <ele>349.21</ele>
        <time>2014-03-23T09:16:44Z</time>
      </trkpt>
      <trkpt lat="46.93026" lon="4.71255">
        <ele>348.43</ele>
        <time>2014-03-23T09:16:47Z</time>
      </trkpt>
      <trkpt lat="46.93031" lon="4.71285">
        <ele>347.8</ele>
        <time>2014-03-23T09:16:50Z</time>
      </trkpt>
      <trkpt lat="46.9304" lon="4.71313">
        <ele>347.17</ele>
        <time>2014-03-23T09:16:53Z</time>
      </trkpt>
      <trkpt lat="46.93051" lon="4.71341">
        <ele>346.55</ele>
        <time>2014-03-23T09:16:56Z</time>
      </trkpt>
      <trkpt lat="46.93061" lon="4.7137">
        <ele>345.6</ele>
        <time>2014-03-23T09:16:59Z</time>
      </trkpt>
      <trkpt lat="46.93073" lon="4.71397">
        <ele>344.73</ele>
        <time>2014-03-23T09:17:02Z</time>
      </trkpt>
      <trkpt lat="46.93085" lon="4.71422">
        <ele>343.87</ele>
        <time>2014-03-23T09:17:05Z</time>
      </trkpt>
      <trkpt lat="46.93096" lon="4.71444">
        <ele>343.05</ele>
        <time>2014-03-23T09:17:08Z</time>
      </trkpt>
      <trkpt lat="46.93108" lon="4.71472">
        <ele>341.78</ele>
        <time>2014-03-23T09:17:13Z</time>
      </trkpt>
      <trkpt lat="46.93113" lon="4.71499">
        <ele>340.69</ele>
        <time>2014-03-23T09:17:19Z</time>
      </trkpt>
      <trkpt lat="46.93119" lon="4.71527">
        <ele>339.8</ele>
        <time>2014-03-23T09:17:26Z</time>
      </trkpt>
      <trkpt lat="46.93125" lon="4.71554">
        <ele>338.94</ele>
        <time>2014-03-23T09:17:35Z</time>
      </trkpt>
      <trkpt lat="46.93131" lon="4.71582">
        <ele>338.53</ele>
        <time>2014-03-23T09:17:43Z</time>
      </trkpt>
      <trkpt lat="46.93131" lon="4.7161">
        <ele>338.58</ele>
        <time>2014-03-23T09:17:50Z</time>
      </trkpt>
      <trkpt lat="46.93133" lon="4.71643">
        <ele>338.57</ele>
        <time>2014-03-23T09:17:56Z</time>
      </trkpt>
      <trkpt lat="46.93135" lon="4.71675">
        <ele>338.19</ele>
        <time>2014-03-23T09:18:00Z</time>
      </trkpt>
      <trkpt lat="46.93134" lon="4.71705">
        <ele>337.1</ele>
        <time>2014-03-23T09:18:05Z</time>
      </trkpt>
      <trkpt lat="46.93134" lon="4.71734">
        <ele>328.34</ele>
        <time>2014-03-23T09:18:14Z</time>
      </trkpt>
      <trkpt lat="46.9314" lon="4.71761">
        <ele>323.44</ele>
        <time>2014-03-23T09:18:21Z</time>
      </trkpt>
      <trkpt lat="46.93147" lon="4.71791">
        <ele>316.36</ele>
        <time>2014-03-23T09:18:27Z</time>
      </trkpt>
      <trkpt lat="46.93153" lon="4.71818">
        <ele>310.45</ele>
        <time>2014-03-23T09:18:33Z</time>
      </trkpt>
      <trkpt lat="46.93164" lon="4.71841">
        <ele>305.5</ele>
        <time>2014-03-23T09:18:40Z</time>
      </trkpt>
      <trkpt lat="46.93178" lon="4.7186">
        <ele>301.45</ele>
        <time>2014-03-23T09:18:46Z</time>
      </trkpt>
      <trkpt lat="46.93191" lon="4.7188">
        <ele>296.15</ele>
        <time>2014-03-23T09:18:53Z</time>
      </trkpt>
      <trkpt lat="46.93202" lon="4.71904">
        <ele>289.18</ele>
        <time>2014-03-23T09:19:02Z</time>
      </trkpt>
      <trkpt lat="46.9321" lon="4.71928">
        <ele>281.05</ele>
        <time>2014-03-23T09:19:14Z</time>
      </trkpt>
      <trkpt lat="46.93218" lon="4.71953">
        <ele>277.07</ele>
        <time>2014-03-23T09:19:22Z</time>
      </trkpt>
      <trkpt lat="46.93228" lon="4.71976">
        <ele>273.32</ele>
        <time>2014-03-23T09:19:28Z</time>
      </trkpt>
      <trkpt lat="46.93237" lon="4.71999">
        <ele>269.85</ele>
        <time>2014-03-23T09:19:33Z</time>
      </trkpt>
      <trkpt lat="46.93249" lon="4.72022">
        <ele>265.91</ele>
        <time>2014-03-23T09:19:37Z</time>
      </trkpt>
      <trkpt lat="46.93258" lon="4.72047">
        <ele>262.98</ele>
        <time>2014-03-23T09:19:40Z</time>
      </trkpt>
      <trkpt lat="46.93268" lon="4.72071">
        <ele>260.27</ele>
        <time>2014-03-23T09:19:43Z</time>
      </trkpt>
      <trkpt lat="46.9328" lon="4.72097">
        <ele>257.6</ele>
        <time>2014-03-23T09:19:46Z</time>
      </trkpt>
      <trkpt lat="46.93301" lon="4.72115">
        <ele>254.17</ele>
        <time>2014-03-23T09:19:49Z</time>
      </trkpt>
      <trkpt lat="46.93321" lon="4.72127">
        <ele>250.59</ele>
        <time>2014-03-23T09:19:53Z</time>
      </trkpt>
      <trkpt lat="46.93338" lon="4.72137">
        <ele>247.41</ele>
        <time>2014-03-23T09:19:57Z</time>
      </trkpt>
      <trkpt lat="46.93318" lon="4.72141">
        <ele>242.76</ele>
        <time>2014-03-23T09:20:07Z</time>
      </trkpt>
      <trkpt lat="46.93298" lon="4.72136">
        <ele>242.99</ele>
        <time>2014-03-23T09:20:12Z</time>
      </trkpt>
      <trkpt lat="46.93279" lon="4.72128">
        <ele>243.24</ele>
        <time>2014-03-23T09:20:17Z</time>
      </trkpt>
      <trkpt lat="46.93261" lon="4.72116">
        <ele>244.18</ele>
        <time>2014-03-23T09:20:22Z</time>
      </trkpt>
      <trkpt lat="46.93242" lon="4.72102">
        <ele>246.83</ele>
        <time>2014-03-23T09:20:28Z</time>
      </trkpt>
      <trkpt lat="46.93223" lon="4.72092">
        <ele>247.57</ele>
        <time>2014-03-23T09:20:33Z</time>
      </trkpt>
      <trkpt lat="46.93202" lon="4.72082">
        <ele>248.46</ele>
        <time>2014-03-23T09:20:38Z</time>
      </trkpt>
      <trkpt lat="46.9318" lon="4.72073">
        <ele>249.34</ele>
        <time>2014-03-23T09:20:43Z</time>
      </trkpt>
      <trkpt lat="46.93161" lon="4.72064">
        <ele>249.64</ele>
        <time>2014-03-23T09:20:47Z</time>
      </trkpt>
      <trkpt lat="46.93143" lon="4.72055">
        <ele>249.4</ele>
        <time>2014-03-23T09:20:51Z</time>
      </trkpt>
      <trkpt lat="46.93124" lon="4.72063">
        <ele>248.33</ele>
        <time>2014-03-23T09:20:55Z</time>
      </trkpt>
      <trkpt lat="46.93101" lon="4.72082">
        <ele>246.15</ele>
        <time>2014-03-23T09:20:58Z</time>
      </trkpt>
      <trkpt lat="46.93085" lon="4.72096">
        <ele>244.56</ele>
        <time>2014-03-23T09:21:00Z</time>
      </trkpt>
      <trkpt lat="46.93066" lon="4.72116">
        <ele>241.79</ele>
        <time>2014-03-23T09:21:03Z</time>
      </trkpt>
      <trkpt lat="46.93058" lon="4.7214">
        <ele>231.12</ele>
        <time>2014-03-23T09:21:17Z</time>
      </trkpt>
      <trkpt lat="46.9307" lon="4.72164">
        <ele>229.74</ele>
        <time>2014-03-23T09:21:21Z</time>
      </trkpt>
      <trkpt lat="46.93081" lon="4.72188">
        <ele>228.42</ele>
        <time>2014-03-23T09:21:24Z</time>
      </trkpt>
      <trkpt lat="46.93093" lon="4.72209">
        <ele>226.25</ele>
        <time>2014-03-23T09:21:28Z</time>
      </trkpt>
      <trkpt lat="46.93109" lon="4.72234">
        <ele>223.83</ele>
        <time>2014-03-23T09:21:32Z</time>
      </trkpt>
      <trkpt lat="46.93117" lon="4.72259">
        <ele>222</ele>
        <time>2014-03-23T09:21:35Z</time>
      </trkpt>
      <trkpt lat="46.93112" lon="4.72295">
        <ele>219.86</ele>
        <time>2014-03-23T09:21:38Z</time>
      </trkpt>
      <trkpt lat="46.9311" lon="4.72323">
        <ele>218.18</ele>
        <time>2014-03-23T09:21:40Z</time>
      </trkpt>
      <trkpt lat="46.93112" lon="4.72352">
        <ele>216.02</ele>
        <time>2014-03-23T09:21:42Z</time>
      </trkpt>
      <trkpt lat="46.93114" lon="4.72383">
        <ele>212.77</ele>
        <time>2014-03-23T09:21:45Z</time>
      </trkpt>
      <trkpt lat="46.93105" lon="4.72415">
        <ele>209.17</ele>
        <time>2014-03-23T09:21:49Z</time>
      </trkpt>
      <trkpt lat="46.93096" lon="4.72447">
        <ele>207.14</ele>
        <time>2014-03-23T09:21:52Z</time>
      </trkpt>
      <trkpt lat="46.93088" lon="4.72484">
        <ele>205.05</ele>
        <time>2014-03-23T09:21:55Z</time>
      </trkpt>
      <trkpt lat="46.93078" lon="4.72507">
        <ele>203.83</ele>
        <time>2014-03-23T09:21:57Z</time>
      </trkpt>
      <trkpt lat="46.93064" lon="4.72528">
        <ele>202.51</ele>
        <time>2014-03-23T09:22:01Z</time>
      </trkpt>
      <trkpt lat="46.93046" lon="4.72526">
        <ele>197.59</ele>
        <time>2014-03-23T09:22:10Z</time>
      </trkpt>
      <trkpt lat="46.93024" lon="4.72515">
        <ele>195.78</ele>
        <time>2014-03-23T09:22:17Z</time>
      </trkpt>
      <trkpt lat="46.93002" lon="4.72508">
        <ele>195.63</ele>
        <time>2014-03-23T09:22:21Z</time>
      </trkpt>
      <trkpt lat="46.92979" lon="4.72504">
        <ele>194.67</ele>
        <time>2014-03-23T09:22:25Z</time>
      </trkpt>
      <trkpt lat="46.92962" lon="4.72511">
        <ele>194.5</ele>
        <time>2014-03-23T09:22:28Z</time>
      </trkpt>
      <trkpt lat="46.92943" lon="4.7252">
        <ele>194.62</ele>
        <time>2014-03-23T09:22:31Z</time>
      </trkpt>
      <trkpt lat="46.92923" lon="4.72525">
        <ele>194.56</ele>
        <time>2014-03-23T09:22:34Z</time>
      </trkpt>
      <trkpt lat="46.92902" lon="4.72529">
        <ele>194.06</ele>
        <time>2014-03-23T09:22:37Z</time>
      </trkpt>
      <trkpt lat="46.92883" lon="4.72542">
        <ele>193.89</ele>
        <time>2014-03-23T09:22:40Z</time>
      </trkpt>
      <trkpt lat="46.92871" lon="4.7257">
        <ele>193.59</ele>
        <time>2014-03-23T09:22:43Z</time>
      </trkpt>
      <trkpt lat="46.92863" lon="4.72594">
        <ele>193.12</ele>
        <time>2014-03-23T09:22:45Z</time>
      </trkpt>
      <trkpt lat="46.92853" lon="4.72619">
        <ele>192.92</ele>
        <time>2014-03-23T09:22:47Z</time>
      </trkpt>
      <trkpt lat="46.92842" lon="4.72647">
        <ele>192.4</ele>
        <time>2014-03-23T09:22:49Z</time>
      </trkpt>
      <trkpt lat="46.9283" lon="4.72676">
        <ele>191.42</ele>
        <time>2014-03-23T09:22:51Z</time>
      </trkpt>
      <trkpt lat="46.92818" lon="4.72708">
        <ele>190.15</ele>
        <time>2014-03-23T09:22:53Z</time>
      </trkpt>
      <trkpt lat="46.92805" lon="4.72741">
        <ele>188.41</ele>
        <time>2014-03-23T09:22:55Z</time>
      </trkpt>
      <trkpt lat="46.92791" lon="4.72774">
        <ele>186.65</ele>
        <time>2014-03-23T09:22:57Z</time>
      </trkpt>
      <trkpt lat="46.92776" lon="4.72805">
        <ele>184.81</ele>
        <time>2014-03-23T09:22:59Z</time>
      </trkpt>
      <trkpt lat="46.92762" lon="4.72836">
        <ele>182.97</ele>
        <time>2014-03-23T09:23:01Z</time>
      </trkpt>
      <trkpt lat="46.92749" lon="4.72866">
        <ele>180.89</ele>
        <time>2014-03-23T09:23:03Z</time>
      </trkpt>
      <trkpt lat="46.92736" lon="4.72897">
        <ele>178.79</ele>
        <time>2014-03-23T09:23:05Z</time>
      </trkpt>
      <trkpt lat="46.92724" lon="4.72929">
        <ele>177.44</ele>
        <time>2014-03-23T09:23:07Z</time>
      </trkpt>
      <trkpt lat="46.92711" lon="4.72961">
        <ele>176.21</ele>
        <time>2014-03-23T09:23:09Z</time>
      </trkpt>
      <trkpt lat="46.92698" lon="4.72992">
        <ele>174.97</ele>
        <time>2014-03-23T09:23:11Z</time>
      </trkpt>
      <trkpt lat="46.92687" lon="4.73021">
        <ele>173.69</ele>
        <time>2014-03-23T09:23:13Z</time>
      </trkpt>
      <trkpt lat="46.92675" lon="4.73049">
        <ele>172.29</ele>
        <time>2014-03-23T09:23:15Z</time>
      </trkpt>
      <trkpt lat="46.92663" lon="4.73077">
        <ele>170.94</ele>
        <time>2014-03-23T09:23:17Z</time>
      </trkpt>
      <trkpt lat="46.92651" lon="4.73103">
        <ele>170.01</ele>
        <time>2014-03-23T09:23:19Z</time>
      </trkpt>
      <trkpt lat="46.9264" lon="4.73129">
        <ele>169</ele>
        <time>2014-03-23T09:23:21Z</time>
      </trkpt>
      <trkpt lat="46.92629" lon="4.73153">
        <ele>168.12</ele>
        <time>2014-03-23T09:23:23Z</time>
      </trkpt>
      <trkpt lat="46.92619" lon="4.73177">
        <ele>167.37</ele>
        <time>2014-03-23T09:23:25Z</time>
      </trkpt>
      <trkpt lat="46.92609" lon="4.73199">
        <ele>166.84</ele>
        <time>2014-03-23T09:23:27Z</time>
      </trkpt>
      <trkpt lat="46.92595" lon="4.7323">
        <ele>166</ele>
        <time>2014-03-23T09:23:30Z</time>
      </trkpt>
      <trkpt lat="46.92581" lon="4.73258">
        <ele>165.26</ele>
        <time>2014-03-23T09:23:34Z</time>
      </trkpt>
      <trkpt lat="46.92568" lon="4.73281">
        <ele>164.9</ele>
        <time>2014-03-23T09:23:37Z</time>
      </trkpt>
      <trkpt lat="46.92556" lon="4.73303">
        <ele>164.72</ele>
        <time>2014-03-23T09:23:40Z</time>
      </trkpt>
      <trkpt lat="46.92544" lon="4.73325">
        <ele>163.78</ele>
        <time>2014-03-23T09:23:43Z</time>
      </trkpt>
      <trkpt lat="46.92533" lon="4.73347">
        <ele>162.9</ele>
        <time>2014-03-23T09:23:46Z</time>
      </trkpt>
      <trkpt lat="46.92521" lon="4.73369">
        <ele>162.92</ele>
        <time>2014-03-23T09:23:49Z</time>
      </trkpt>
      <trkpt lat="46.92511" lon="4.73394">
        <ele>162.87</ele>
        <time>2014-03-23T09:23:52Z</time>
      </trkpt>
      <trkpt lat="46.92499" lon="4.73415">
        <ele>163.03</ele>
        <time>2014-03-23T09:23:55Z</time>
      </trkpt>
      <trkpt lat="46.92487" lon="4.73437">
        <ele>163.2</ele>
        <time>2014-03-23T09:23:58Z</time>
      </trkpt>
      <trkpt lat="46.92473" lon="4.73461">
        <ele>163.09</ele>
        <time>2014-03-23T09:24:02Z</time>
      </trkpt>
      <trkpt lat="46.92457" lon="4.73486">
        <ele>163.39</ele>
        <time>2014-03-23T09:24:06Z</time>
      </trkpt>
      <trkpt lat="46.92441" lon="4.73511">
        <ele>164.32</ele>
        <time>2014-03-23T09:24:10Z</time>
      </trkpt>
      <trkpt lat="46.92425" lon="4.73536">
        <ele>165.1</ele>
        <time>2014-03-23T09:24:14Z</time>
      </trkpt>
      <trkpt lat="46.92408" lon="4.7356">
        <ele>166.35</ele>
        <time>2014-03-23T09:24:18Z</time>
      </trkpt>
      <trkpt lat="46.92395" lon="4.73579">
        <ele>167.08</ele>
        <time>2014-03-23T09:24:21Z</time>
      </trkpt>
      <trkpt lat="46.92378" lon="4.73604">
        <ele>167.44</ele>
        <time>2014-03-23T09:24:25Z</time>
      </trkpt>
      <trkpt lat="46.92364" lon="4.73627">
        <ele>167.73</ele>
        <time>2014-03-23T09:24:29Z</time>
      </trkpt>
      <trkpt lat="46.92351" lon="4.73648">
        <ele>168.63</ele>
        <time>2014-03-23T09:24:33Z</time>
      </trkpt>
      <trkpt lat="46.92333" lon="4.73634">
        <ele>170.41</ele>
        <time>2014-03-23T09:24:39Z</time>
      </trkpt>
      <trkpt lat="46.92322" lon="4.7361">
        <ele>171.67</ele>
        <time>2014-03-23T09:24:44Z</time>
      </trkpt>
      <trkpt lat="46.92308" lon="4.73585">
        <ele>172.85</ele>
        <time>2014-03-23T09:24:49Z</time>
      </trkpt>
      <trkpt lat="46.92297" lon="4.73561">
        <ele>172.65</ele>
        <time>2014-03-23T09:24:54Z</time>
      </trkpt>
      <trkpt lat="46.92284" lon="4.7354">
        <ele>172.89</ele>
        <time>2014-03-23T09:25:00Z</time>
      </trkpt>
      <trkpt lat="46.92267" lon="4.7352">
        <ele>173.22</ele>
        <time>2014-03-23T09:25:06Z</time>
      </trkpt>
      <trkpt lat="46.9225" lon="4.73501">
        <ele>172.32</ele>
        <time>2014-03-23T09:25:12Z</time>
      </trkpt>
      <trkpt lat="46.92235" lon="4.73486">
        <ele>171.27</ele>
        <time>2014-03-23T09:25:17Z</time>
      </trkpt>
      <trkpt lat="46.92218" lon="4.73471">
        <ele>170.2</ele>
        <time>2014-03-23T09:25:23Z</time>
      </trkpt>
      <trkpt lat="46.92203" lon="4.73456">
        <ele>169.66</ele>
        <time>2014-03-23T09:25:29Z</time>
      </trkpt>
      <trkpt lat="46.92187" lon="4.73436">
        <ele>168.65</ele>
        <time>2014-03-23T09:25:36Z</time>
      </trkpt>
      <trkpt lat="46.92172" lon="4.73415">
        <ele>167.58</ele>
        <time>2014-03-23T09:25:42Z</time>
      </trkpt>
      <trkpt lat="46.92159" lon="4.73393">
        <ele>167.3</ele>
        <time>2014-03-23T09:25:48Z</time>
      </trkpt>
      <trkpt lat="46.92149" lon="4.73366">
        <ele>166.96</ele>
        <time>2014-03-23T09:25:54Z</time>
      </trkpt>
      <trkpt lat="46.92139" lon="4.7334">
        <ele>167.38</ele>
        <time>2014-03-23T09:26:00Z</time>
      </trkpt>
      <trkpt lat="46.9213" lon="4.73313">
        <ele>167.93</ele>
        <time>2014-03-23T09:26:06Z</time>
      </trkpt>
      <trkpt lat="46.92122" lon="4.73287">
        <ele>168.7</ele>
        <time>2014-03-23T09:26:12Z</time>
      </trkpt>
      <trkpt lat="46.92113" lon="4.73259">
        <ele>169.11</ele>
        <time>2014-03-23T09:26:18Z</time>
      </trkpt>
      <trkpt lat="46.921" lon="4.73237">
        <ele>167.9</ele>
        <time>2014-03-23T09:26:24Z</time>
      </trkpt>
      <trkpt lat="46.92087" lon="4.73216">
        <ele>167.94</ele>
        <time>2014-03-23T09:26:30Z</time>
      </trkpt>
      <trkpt lat="46.92074" lon="4.73192">
        <ele>168.2</ele>
        <time>2014-03-23T09:26:36Z</time>
      </trkpt>
      <trkpt lat="46.92062" lon="4.7317">
        <ele>168.23</ele>
        <time>2014-03-23T09:26:41Z</time>
      </trkpt>
      <trkpt lat="46.9205" lon="4.73144">
        <ele>168.67</ele>
        <time>2014-03-23T09:26:47Z</time>
      </trkpt>
      <trkpt lat="46.92039" lon="4.73123">
        <ele>168.56</ele>
        <time>2014-03-23T09:26:52Z</time>
      </trkpt>
      <trkpt lat="46.92026" lon="4.73099">
        <ele>167.38</ele>
        <time>2014-03-23T09:26:58Z</time>
      </trkpt>
      <trkpt lat="46.92015" lon="4.73078">
        <ele>166.57</ele>
        <time>2014-03-23T09:27:03Z</time>
      </trkpt>
      <trkpt lat="46.92004" lon="4.73053">
        <ele>166.81</ele>
        <time>2014-03-23T09:27:09Z</time>
      </trkpt>
      <trkpt lat="46.91993" lon="4.73027">
        <ele>166.33</ele>
        <time>2014-03-23T09:27:15Z</time>
      </trkpt>
      <trkpt lat="46.91983" lon="4.73003">
        <ele>166.29</ele>
        <time>2014-03-23T09:27:21Z</time>
      </trkpt>
      <trkpt lat="46.91974" lon="4.72977">
        <ele>166.18</ele>
        <time>2014-03-23T09:27:27Z</time>
      </trkpt>
      <trkpt lat="46.91966" lon="4.72952">
        <ele>166.29</ele>
        <time>2014-03-23T09:27:35Z</time>
      </trkpt>
      <trkpt lat="46.91962" lon="4.72926">
        <ele>168.07</ele>
        <time>2014-03-23T09:27:44Z</time>
      </trkpt>
      <trkpt lat="46.91957" lon="4.72897">
        <ele>168.2</ele>
        <time>2014-03-23T09:27:53Z</time>
      </trkpt>
      <trkpt lat="46.91952" lon="4.7287">
        <ele>167.74</ele>
        <time>2014-03-23T09:28:01Z</time>
      </trkpt>
      <trkpt lat="46.91947" lon="4.72842">
        <ele>166.32</ele>
        <time>2014-03-23T09:28:08Z</time>
      </trkpt>
      <trkpt lat="46.91942" lon="4.72815">
        <ele>166.66</ele>
        <time>2014-03-23T09:28:14Z</time>
      </trkpt>
      <trkpt lat="46.91936" lon="4.72786">
        <ele>166.64</ele>
        <time>2014-03-23T09:28:20Z</time>
      </trkpt>
      <trkpt lat="46.91928" lon="4.72761">
        <ele>166.92</ele>
        <time>2014-03-23T09:28:25Z</time>
      </trkpt>
      <trkpt lat="46.91919" lon="4.72736">
        <ele>167.36</ele>
        <time>2014-03-23T09:28:30Z</time>
      </trkpt>
      <trkpt lat="46.91908" lon="4.72711">
        <ele>168.29</ele>
        <time>2014-03-23T09:28:35Z</time>
      </trkpt>
      <trkpt lat="46.91895" lon="4.72687">
        <ele>168.4</ele>
        <time>2014-03-23T09:28:40Z</time>
      </trkpt>
      <trkpt lat="46.91884" lon="4.72662">
        <ele>168.16</ele>
        <time>2014-03-23T09:28:45Z</time>
      </trkpt>
      <trkpt lat="46.91873" lon="4.72638">
        <ele>168.18</ele>
        <time>2014-03-23T09:28:50Z</time>
      </trkpt>
      <trkpt lat="46.91862" lon="4.72613">
        <ele>168.11</ele>
        <time>2014-03-23T09:28:55Z</time>
      </trkpt>
      <trkpt lat="46.91852" lon="4.72588">
        <ele>168.73</ele>
        <time>2014-03-23T09:29:00Z</time>
      </trkpt>
      <trkpt lat="46.91842" lon="4.72567">
        <ele>168.68</ele>
        <time>2014-03-23T09:29:05Z</time>
      </trkpt>
      <trkpt lat="46.91829" lon="4.72546">
        <ele>168.06</ele>
        <time>2014-03-23T09:29:10Z</time>
      </trkpt>
      <trkpt lat="46.91817" lon="4.72526">
        <ele>167.15</ele>
        <time>2014-03-23T09:29:15Z</time>
      </trkpt>
      <trkpt lat="46.91804" lon="4.72502">
        <ele>167.97</ele>
        <time>2014-03-23T09:29:21Z</time>
      </trkpt>
      <trkpt lat="46.9179" lon="4.72483">
        <ele>169.66</ele>
        <time>2014-03-23T09:29:26Z</time>
      </trkpt>
      <trkpt lat="46.91775" lon="4.72462">
        <ele>170.45</ele>
        <time>2014-03-23T09:29:31Z</time>
      </trkpt>
      <trkpt lat="46.9176" lon="4.72438">
        <ele>171.35</ele>
        <time>2014-03-23T09:29:36Z</time>
      </trkpt>
      <trkpt lat="46.91748" lon="4.72418">
        <ele>171.15</ele>
        <time>2014-03-23T09:29:40Z</time>
      </trkpt>
      <trkpt lat="46.91735" lon="4.72397">
        <ele>171.2</ele>
        <time>2014-03-23T09:29:44Z</time>
      </trkpt>
      <trkpt lat="46.91721" lon="4.72379">
        <ele>171.16</ele>
        <time>2014-03-23T09:29:48Z</time>
      </trkpt>
      <trkpt lat="46.91702" lon="4.72361">
        <ele>171.37</ele>
        <time>2014-03-23T09:29:53Z</time>
      </trkpt>
      <trkpt lat="46.91688" lon="4.72344">
        <ele>171.42</ele>
        <time>2014-03-23T09:29:57Z</time>
      </trkpt>
      <trkpt lat="46.91675" lon="4.72325">
        <ele>170.79</ele>
        <time>2014-03-23T09:30:01Z</time>
      </trkpt>
      <trkpt lat="46.9166" lon="4.72301">
        <ele>170.52</ele>
        <time>2014-03-23T09:30:06Z</time>
      </trkpt>
      <trkpt lat="46.91648" lon="4.72278">
        <ele>170.26</ele>
        <time>2014-03-23T09:30:11Z</time>
      </trkpt>
      <trkpt lat="46.91633" lon="4.72258">
        <ele>169.35</ele>
        <time>2014-03-23T09:30:17Z</time>
      </trkpt>
      <trkpt lat="46.91617" lon="4.72237">
        <ele>169.18</ele>
        <time>2014-03-23T09:30:23Z</time>
      </trkpt>
      <trkpt lat="46.91598" lon="4.72221">
        <ele>169.4</ele>
        <time>2014-03-23T09:30:28Z</time>
      </trkpt>
      <trkpt lat="46.9158" lon="4.72212">
        <ele>169.21</ele>
        <time>2014-03-23T09:30:32Z</time>
      </trkpt>
      <trkpt lat="46.91561" lon="4.72209">
        <ele>168.91</ele>
        <time>2014-03-23T09:30:36Z</time>
      </trkpt>
      <trkpt lat="46.91541" lon="4.72214">
        <ele>168.23</ele>
        <time>2014-03-23T09:30:40Z</time>
      </trkpt>
      <trkpt lat="46.9152" lon="4.72222">
        <ele>167.52</ele>
        <time>2014-03-23T09:30:45Z</time>
      </trkpt>
      <trkpt lat="46.91502" lon="4.72231">
        <ele>167.22</ele>
        <time>2014-03-23T09:30:49Z</time>
      </trkpt>
      <trkpt lat="46.91485" lon="4.72242">
        <ele>166.63</ele>
        <time>2014-03-23T09:30:53Z</time>
      </trkpt>
      <trkpt lat="46.91468" lon="4.72257">
        <ele>166.03</ele>
        <time>2014-03-23T09:30:57Z</time>
      </trkpt>
      <trkpt lat="46.9145" lon="4.72273">
        <ele>164.82</ele>
        <time>2014-03-23T09:31:01Z</time>
      </trkpt>
      <trkpt lat="46.91431" lon="4.7229">
        <ele>163.9</ele>
        <time>2014-03-23T09:31:05Z</time>
      </trkpt>
      <trkpt lat="46.91409" lon="4.72297">
        <ele>163.95</ele>
        <time>2014-03-23T09:31:09Z</time>
      </trkpt>
      <trkpt lat="46.91393" lon="4.72278">
        <ele>164.23</ele>
        <time>2014-03-23T09:31:13Z</time>
      </trkpt>
      <trkpt lat="46.91379" lon="4.72255">
        <ele>163.31</ele>
        <time>2014-03-23T09:31:17Z</time>
      </trkpt>
      <trkpt lat="46.9136" lon="4.72241">
        <ele>162.77</ele>
        <time>2014-03-23T09:31:22Z</time>
      </trkpt>
      <trkpt lat="46.91342" lon="4.7223">
        <ele>164.31</ele>
        <time>2014-03-23T09:31:46Z</time>
      </trkpt>
      <trkpt lat="46.91324" lon="4.7223">
        <ele>164.16</ele>
        <time>2014-03-23T09:31:50Z</time>
      </trkpt>
      <trkpt lat="46.91304" lon="4.72231">
        <ele>164.33</ele>
        <time>2014-03-23T09:31:53Z</time>
      </trkpt>
      <trkpt lat="46.91282" lon="4.72231">
        <ele>164.31</ele>
        <time>2014-03-23T09:31:56Z</time>
      </trkpt>
      <trkpt lat="46.9126" lon="4.72232">
        <ele>164.51</ele>
        <time>2014-03-23T09:31:59Z</time>
      </trkpt>
      <trkpt lat="46.91238" lon="4.72234">
        <ele>164.84</ele>
        <time>2014-03-23T09:32:02Z</time>
      </trkpt>
      <trkpt lat="46.91217" lon="4.72237">
        <ele>165.46</ele>
        <time>2014-03-23T09:32:05Z</time>
      </trkpt>
      <trkpt lat="46.91197" lon="4.72241">
        <ele>166.05</ele>
        <time>2014-03-23T09:32:08Z</time>
      </trkpt>
      <trkpt lat="46.91175" lon="4.72236">
        <ele>167.09</ele>
        <time>2014-03-23T09:32:12Z</time>
      </trkpt>
      <trkpt lat="46.91156" lon="4.72222">
        <ele>168.2</ele>
        <time>2014-03-23T09:32:16Z</time>
      </trkpt>
      <trkpt lat="46.91136" lon="4.72205">
        <ele>169.24</ele>
        <time>2014-03-23T09:32:20Z</time>
      </trkpt>
      <trkpt lat="46.91115" lon="4.72192">
        <ele>169.85</ele>
        <time>2014-03-23T09:32:24Z</time>
      </trkpt>
      <trkpt lat="46.91095" lon="4.72179">
        <ele>169.95</ele>
        <time>2014-03-23T09:32:28Z</time>
      </trkpt>
      <trkpt lat="46.91075" lon="4.72164">
        <ele>170.74</ele>
        <time>2014-03-23T09:32:32Z</time>
      </trkpt>
      <trkpt lat="46.91056" lon="4.7215">
        <ele>171.11</ele>
        <time>2014-03-23T09:32:36Z</time>
      </trkpt>
      <trkpt lat="46.91038" lon="4.72134">
        <ele>171.3</ele>
        <time>2014-03-23T09:32:40Z</time>
      </trkpt>
      <trkpt lat="46.91021" lon="4.72119">
        <ele>171.29</ele>
        <time>2014-03-23T09:32:44Z</time>
      </trkpt>
      <trkpt lat="46.91003" lon="4.72101">
        <ele>171.38</ele>
        <time>2014-03-23T09:32:48Z</time>
      </trkpt>
      <trkpt lat="46.90984" lon="4.72085">
        <ele>171.57</ele>
        <time>2014-03-23T09:32:52Z</time>
      </trkpt>
      <trkpt lat="46.90965" lon="4.7207">
        <ele>171.45</ele>
        <time>2014-03-23T09:32:56Z</time>
      </trkpt>
      <trkpt lat="46.90945" lon="4.72057">
        <ele>171.72</ele>
        <time>2014-03-23T09:33:00Z</time>
      </trkpt>
      <trkpt lat="46.90925" lon="4.72043">
        <ele>171.15</ele>
        <time>2014-03-23T09:33:04Z</time>
      </trkpt>
      <trkpt lat="46.90904" lon="4.72031">
        <ele>170.69</ele>
        <time>2014-03-23T09:33:08Z</time>
      </trkpt>
      <trkpt lat="46.90885" lon="4.72022">
        <ele>170.51</ele>
        <time>2014-03-23T09:33:12Z</time>
      </trkpt>
      <trkpt lat="46.90865" lon="4.72024">
        <ele>171.02</ele>
        <time>2014-03-23T09:33:16Z</time>
      </trkpt>
      <trkpt lat="46.90847" lon="4.72039">
        <ele>171.58</ele>
        <time>2014-03-23T09:33:20Z</time>
      </trkpt>
      <trkpt lat="46.90831" lon="4.72059">
        <ele>172.61</ele>
        <time>2014-03-23T09:33:25Z</time>
      </trkpt>
      <trkpt lat="46.90812" lon="4.72073">
        <ele>172.78</ele>
        <time>2014-03-23T09:33:29Z</time>
      </trkpt>
      <trkpt lat="46.90794" lon="4.7208">
        <ele>173.05</ele>
        <time>2014-03-23T09:33:33Z</time>
      </trkpt>
      <trkpt lat="46.90781" lon="4.72097">
        <ele>173.62</ele>
        <time>2014-03-23T09:33:41Z</time>
      </trkpt>
      <trkpt lat="46.90764" lon="4.72112">
        <ele>174.18</ele>
        <time>2014-03-23T09:33:47Z</time>
      </trkpt>
      <trkpt lat="46.90748" lon="4.72127">
        <ele>173.83</ele>
        <time>2014-03-23T09:33:52Z</time>
      </trkpt>
      <trkpt lat="46.90732" lon="4.72139">
        <ele>173.14</ele>
        <time>2014-03-23T09:33:57Z</time>
      </trkpt>
      <trkpt lat="46.90718" lon="4.72159">
        <ele>173.69</ele>
        <time>2014-03-23T09:34:05Z</time>
      </trkpt>
      <trkpt lat="46.907" lon="4.72165">
        <ele>174.12</ele>
        <time>2014-03-23T09:34:13Z</time>
      </trkpt>
      <trkpt lat="46.90681" lon="4.72153">
        <ele>174.07</ele>
        <time>2014-03-23T09:34:23Z</time>
      </trkpt>
      <trkpt lat="46.90665" lon="4.7214">
        <ele>175.61</ele>
        <time>2014-03-23T09:34:32Z</time>
      </trkpt>
      <trkpt lat="46.90658" lon="4.72115">
        <ele>178.78</ele>
        <time>2014-03-23T09:34:41Z</time>
      </trkpt>
      <trkpt lat="46.90652" lon="4.72088">
        <ele>178.54</ele>
        <time>2014-03-23T09:34:49Z</time>
      </trkpt>
      <trkpt lat="46.90635" lon="4.72075">
        <ele>180.97</ele>
        <time>2014-03-23T09:35:02Z</time>
      </trkpt>
      <trkpt lat="46.90618" lon="4.72088">
        <ele>182.13</ele>
        <time>2014-03-23T09:35:11Z</time>
      </trkpt>
      <trkpt lat="46.90617" lon="4.72117">
        <ele>182.37</ele>
        <time>2014-03-23T09:35:16Z</time>
      </trkpt>
      <trkpt lat="46.90614" lon="4.72147">
        <ele>182.71</ele>
        <time>2014-03-23T09:35:20Z</time>
      </trkpt>
      <trkpt lat="46.90612" lon="4.72182">
        <ele>183.04</ele>
        <time>2014-03-23T09:35:24Z</time>
      </trkpt>
      <trkpt lat="46.90613" lon="4.72213">
        <ele>182.81</ele>
        <time>2014-03-23T09:35:27Z</time>
      </trkpt>
      <trkpt lat="46.90611" lon="4.72243">
        <ele>181.76</ele>
        <time>2014-03-23T09:35:30Z</time>
      </trkpt>
      <trkpt lat="46.90611" lon="4.72271">
        <ele>181.24</ele>
        <time>2014-03-23T09:35:33Z</time>
      </trkpt>
      <trkpt lat="46.90613" lon="4.72299">
        <ele>181.45</ele>
        <time>2014-03-23T09:35:36Z</time>
      </trkpt>
      <trkpt lat="46.90612" lon="4.72329">
        <ele>182.24</ele>
        <time>2014-03-23T09:35:40Z</time>
      </trkpt>
      <trkpt lat="46.90603" lon="4.72352">
        <ele>183.99</ele>
        <time>2014-03-23T09:35:45Z</time>
      </trkpt>
      <trkpt lat="46.90587" lon="4.72367">
        <ele>187.5</ele>
        <time>2014-03-23T09:35:52Z</time>
      </trkpt>
      <trkpt lat="46.90569" lon="4.7238">
        <ele>190.64</ele>
        <time>2014-03-23T09:35:59Z</time>
      </trkpt>
      <trkpt lat="46.90553" lon="4.72395">
        <ele>196.63</ele>
        <time>2014-03-23T09:36:08Z</time>
      </trkpt>
      <trkpt lat="46.90541" lon="4.72415">
        <ele>201.2</ele>
        <time>2014-03-23T09:36:17Z</time>
      </trkpt>
      <trkpt lat="46.90539" lon="4.72442">
        <ele>202.87</ele>
        <time>2014-03-23T09:36:26Z</time>
      </trkpt>
      <trkpt lat="46.90539" lon="4.72469">
        <ele>203.57</ele>
        <time>2014-03-23T09:36:34Z</time>
      </trkpt>
      <trkpt lat="46.90537" lon="4.72496">
        <ele>206.06</ele>
        <time>2014-03-23T09:36:43Z</time>
      </trkpt>
      <trkpt lat="46.90532" lon="4.72522">
        <ele>208.18</ele>
        <time>2014-03-23T09:36:52Z</time>
      </trkpt>
      <trkpt lat="46.90522" lon="4.72548">
        <ele>210.6</ele>
        <time>2014-03-23T09:37:01Z</time>
      </trkpt>
      <trkpt lat="46.90512" lon="4.72574">
        <ele>211.93</ele>
        <time>2014-03-23T09:37:09Z</time>
      </trkpt>
      <trkpt lat="46.90503" lon="4.726">
        <ele>212.37</ele>
        <time>2014-03-23T09:37:18Z</time>
      </trkpt>
      <trkpt lat="46.90495" lon="4.72623">
        <ele>212.01</ele>
        <time>2014-03-23T09:37:25Z</time>
      </trkpt>
      <trkpt lat="46.90483" lon="4.72645">
        <ele>211.46</ele>
        <time>2014-03-23T09:37:31Z</time>
      </trkpt>
      <trkpt lat="46.90469" lon="4.72664">
        <ele>211.04</ele>
        <time>2014-03-23T09:37:39Z</time>
      </trkpt>
      <trkpt lat="46.90456" lon="4.72685">
        <ele>209.96</ele>
        <time>2014-03-23T09:37:49Z</time>
      </trkpt>
      <trkpt lat="46.90439" lon="4.72696">
        <ele>212.16</ele>
        <time>2014-03-23T09:38:03Z</time>
      </trkpt>
      <trkpt lat="46.90422" lon="4.72707">
        <ele>214.68</ele>
        <time>2014-03-23T09:38:15Z</time>
      </trkpt>
      <trkpt lat="46.90406" lon="4.72719">
        <ele>215.76</ele>
        <time>2014-03-23T09:38:27Z</time>
      </trkpt>
      <trkpt lat="46.9039" lon="4.72734">
        <ele>217.28</ele>
        <time>2014-03-23T09:38:38Z</time>
      </trkpt>
      <trkpt lat="46.90377" lon="4.72753">
        <ele>220.65</ele>
        <time>2014-03-23T09:38:53Z</time>
      </trkpt>
      <trkpt lat="46.90364" lon="4.72773">
        <ele>225.47</ele>
        <time>2014-03-23T09:39:08Z</time>
      </trkpt>
      <trkpt lat="46.90349" lon="4.72791">
        <ele>228.81</ele>
        <time>2014-03-23T09:39:21Z</time>
      </trkpt>
      <trkpt lat="46.90332" lon="4.72805">
        <ele>231.87</ele>
        <time>2014-03-23T09:39:33Z</time>
      </trkpt>
      <trkpt lat="46.90315" lon="4.72796">
        <ele>234.91</ele>
        <time>2014-03-23T09:39:49Z</time>
      </trkpt>
      <trkpt lat="46.90311" lon="4.7277">
        <ele>235.71</ele>
        <time>2014-03-23T09:40:04Z</time>
      </trkpt>
      <trkpt lat="46.90328" lon="4.72757">
        <ele>237.19</ele>
        <time>2014-03-23T09:40:21Z</time>
      </trkpt>
      <trkpt lat="46.90342" lon="4.72739">
        <ele>238.57</ele>
        <time>2014-03-23T09:40:34Z</time>
      </trkpt>
      <trkpt lat="46.90345" lon="4.72711">
        <ele>239.64</ele>
        <time>2014-03-23T09:40:46Z</time>
      </trkpt>
      <trkpt lat="46.90341" lon="4.72685">
        <ele>240.04</ele>
        <time>2014-03-23T09:40:59Z</time>
      </trkpt>
      <trkpt lat="46.90335" lon="4.7266">
        <ele>241.3</ele>
        <time>2014-03-23T09:41:12Z</time>
      </trkpt>
      <trkpt lat="46.90327" lon="4.72635">
        <ele>243.29</ele>
        <time>2014-03-23T09:41:26Z</time>
      </trkpt>
      <trkpt lat="46.90317" lon="4.72612">
        <ele>244.38</ele>
        <time>2014-03-23T09:41:38Z</time>
      </trkpt>
      <trkpt lat="46.90305" lon="4.72592">
        <ele>247.3</ele>
        <time>2014-03-23T09:41:52Z</time>
      </trkpt>
      <trkpt lat="46.9029" lon="4.72576">
        <ele>251.15</ele>
        <time>2014-03-23T09:42:06Z</time>
      </trkpt>
      <trkpt lat="46.90276" lon="4.72558">
        <ele>253.21</ele>
        <time>2014-03-23T09:42:20Z</time>
      </trkpt>
      <trkpt lat="46.90261" lon="4.7254">
        <ele>255.56</ele>
        <time>2014-03-23T09:42:32Z</time>
      </trkpt>
      <trkpt lat="46.90247" lon="4.72523">
        <ele>257.35</ele>
        <time>2014-03-23T09:42:45Z</time>
      </trkpt>
      <trkpt lat="46.90234" lon="4.72503">
        <ele>258.73</ele>
        <time>2014-03-23T09:42:58Z</time>
      </trkpt>
      <trkpt lat="46.90219" lon="4.72487">
        <ele>260.49</ele>
        <time>2014-03-23T09:43:10Z</time>
      </trkpt>
      <trkpt lat="46.90204" lon="4.72471">
        <ele>263.01</ele>
        <time>2014-03-23T09:43:24Z</time>
      </trkpt>
      <trkpt lat="46.90188" lon="4.72459">
        <ele>265.36</ele>
        <time>2014-03-23T09:43:36Z</time>
      </trkpt>
      <trkpt lat="46.90171" lon="4.72447">
        <ele>266.82</ele>
        <time>2014-03-23T09:43:48Z</time>
      </trkpt>
      <trkpt lat="46.90154" lon="4.72435">
        <ele>268.87</ele>
        <time>2014-03-23T09:43:59Z</time>
      </trkpt>
      <trkpt lat="46.90137" lon="4.72424">
        <ele>270.06</ele>
        <time>2014-03-23T09:44:08Z</time>
      </trkpt>
      <trkpt lat="46.9012" lon="4.72412">
        <ele>271.01</ele>
        <time>2014-03-23T09:44:18Z</time>
      </trkpt>
      <trkpt lat="46.90101" lon="4.72405">
        <ele>271.33</ele>
        <time>2014-03-23T09:44:28Z</time>
      </trkpt>
      <trkpt lat="46.90082" lon="4.72403">
        <ele>271.89</ele>
        <time>2014-03-23T09:44:36Z</time>
      </trkpt>
      <trkpt lat="46.90064" lon="4.72405">
        <ele>272.29</ele>
        <time>2014-03-23T09:44:43Z</time>
      </trkpt>
      <trkpt lat="46.90046" lon="4.72413">
        <ele>272.41</ele>
        <time>2014-03-23T09:44:49Z</time>
      </trkpt>
      <trkpt lat="46.90029" lon="4.72429">
        <ele>272.47</ele>
        <time>2014-03-23T09:44:54Z</time>
      </trkpt>
      <trkpt lat="46.90014" lon="4.72445">
        <ele>272.45</ele>
        <time>2014-03-23T09:44:58Z</time>
      </trkpt>
      <trkpt lat="46.9" lon="4.72465">
        <ele>272.74</ele>
        <time>2014-03-23T09:45:02Z</time>
      </trkpt>
      <trkpt lat="46.89986" lon="4.72486">
        <ele>273.47</ele>
        <time>2014-03-23T09:45:06Z</time>
      </trkpt>
      <trkpt lat="46.89971" lon="4.72509">
        <ele>273.56</ele>
        <time>2014-03-23T09:45:10Z</time>
      </trkpt>
      <trkpt lat="46.89959" lon="4.72534">
        <ele>273.75</ele>
        <time>2014-03-23T09:45:14Z</time>
      </trkpt>
      <trkpt lat="46.89945" lon="4.72557">
        <ele>274.52</ele>
        <time>2014-03-23T09:45:19Z</time>
      </trkpt>
      <trkpt lat="46.89931" lon="4.72579">
        <ele>275.2</ele>
        <time>2014-03-23T09:45:25Z</time>
      </trkpt>
      <trkpt lat="46.89919" lon="4.72601">
        <ele>275.73</ele>
        <time>2014-03-23T09:45:31Z</time>
      </trkpt>
      <trkpt lat="46.89911" lon="4.72628">
        <ele>277.71</ele>
        <time>2014-03-23T09:45:37Z</time>
      </trkpt>
      <trkpt lat="46.89911" lon="4.72658">
        <ele>279.16</ele>
        <time>2014-03-23T09:45:43Z</time>
      </trkpt>
      <trkpt lat="46.89918" lon="4.72687">
        <ele>280.47</ele>
        <time>2014-03-23T09:45:49Z</time>
      </trkpt>
      <trkpt lat="46.8993" lon="4.72714">
        <ele>279.95</ele>
        <time>2014-03-23T09:45:54Z</time>
      </trkpt>
      <trkpt lat="46.89941" lon="4.72736">
        <ele>279.03</ele>
        <time>2014-03-23T09:45:58Z</time>
      </trkpt>
      <trkpt lat="46.89952" lon="4.72757">
        <ele>278.29</ele>
        <time>2014-03-23T09:46:02Z</time>
      </trkpt>
      <trkpt lat="46.89964" lon="4.72779">
        <ele>277.78</ele>
        <time>2014-03-23T09:46:06Z</time>
      </trkpt>
      <trkpt lat="46.89979" lon="4.72806">
        <ele>277.25</ele>
        <time>2014-03-23T09:46:10Z</time>
      </trkpt>
      <trkpt lat="46.89992" lon="4.72828">
        <ele>277.19</ele>
        <time>2014-03-23T09:46:13Z</time>
      </trkpt>
      <trkpt lat="46.90004" lon="4.72851">
        <ele>275.87</ele>
        <time>2014-03-23T09:46:18Z</time>
      </trkpt>
      <trkpt lat="46.90011" lon="4.72876">
        <ele>274.6</ele>
        <time>2014-03-23T09:46:22Z</time>
      </trkpt>
      <trkpt lat="46.90021" lon="4.72905">
        <ele>272.84</ele>
        <time>2014-03-23T09:46:25Z</time>
      </trkpt>
      <trkpt lat="46.90029" lon="4.72929">
        <ele>271.26</ele>
        <time>2014-03-23T09:46:27Z</time>
      </trkpt>
      <trkpt lat="46.90039" lon="4.72956">
        <ele>268.96</ele>
        <time>2014-03-23T09:46:29Z</time>
      </trkpt>
      <trkpt lat="46.90051" lon="4.72985">
        <ele>266.76</ele>
        <time>2014-03-23T09:46:31Z</time>
      </trkpt>
      <trkpt lat="46.90064" lon="4.73013">
        <ele>264.56</ele>
        <time>2014-03-23T09:46:33Z</time>
      </trkpt>
      <trkpt lat="46.90079" lon="4.7304">
        <ele>262.58</ele>
        <time>2014-03-23T09:46:35Z</time>
      </trkpt>
      <trkpt lat="46.9009" lon="4.73061">
        <ele>260.94</ele>
        <time>2014-03-23T09:46:37Z</time>
      </trkpt>
      <trkpt lat="46.90095" lon="4.73094">
        <ele>259.89</ele>
        <time>2014-03-23T09:46:40Z</time>
      </trkpt>
      <trkpt lat="46.90088" lon="4.73126">
        <ele>258.64</ele>
        <time>2014-03-23T09:46:43Z</time>
      </trkpt>
      <trkpt lat="46.90094" lon="4.73152">
        <ele>256.64</ele>
        <time>2014-03-23T09:46:46Z</time>
      </trkpt>
      <trkpt lat="46.90115" lon="4.73172">
        <ele>254.94</ele>
        <time>2014-03-23T09:46:49Z</time>
      </trkpt>
      <trkpt lat="46.9013" lon="4.73189">
        <ele>254.05</ele>
        <time>2014-03-23T09:46:51Z</time>
      </trkpt>
      <trkpt lat="46.90147" lon="4.73207">
        <ele>252.93</ele>
        <time>2014-03-23T09:46:53Z</time>
      </trkpt>
      <trkpt lat="46.90171" lon="4.73219">
        <ele>251.4</ele>
        <time>2014-03-23T09:46:56Z</time>
      </trkpt>
      <trkpt lat="46.90195" lon="4.73224">
        <ele>250.17</ele>
        <time>2014-03-23T09:46:59Z</time>
      </trkpt>
      <trkpt lat="46.90219" lon="4.73226">
        <ele>249.33</ele>
        <time>2014-03-23T09:47:02Z</time>
      </trkpt>
      <trkpt lat="46.9024" lon="4.73236">
        <ele>248.35</ele>
        <time>2014-03-23T09:47:05Z</time>
      </trkpt>
      <trkpt lat="46.9026" lon="4.73256">
        <ele>246.51</ele>
        <time>2014-03-23T09:47:08Z</time>
      </trkpt>
      <trkpt lat="46.9028" lon="4.73278">
        <ele>244.85</ele>
        <time>2014-03-23T09:47:11Z</time>
      </trkpt>
      <trkpt lat="46.90302" lon="4.73302">
        <ele>243.71</ele>
        <time>2014-03-23T09:47:14Z</time>
      </trkpt>
      <trkpt lat="46.90318" lon="4.73317">
        <ele>242.77</ele>
        <time>2014-03-23T09:47:16Z</time>
      </trkpt>
      <trkpt lat="46.90334" lon="4.73334">
        <ele>241.71</ele>
        <time>2014-03-23T09:47:18Z</time>
      </trkpt>
      <trkpt lat="46.90351" lon="4.73354">
        <ele>240.37</ele>
        <time>2014-03-23T09:47:20Z</time>
      </trkpt>
      <trkpt lat="46.90369" lon="4.73374">
        <ele>238.96</ele>
        <time>2014-03-23T09:47:22Z</time>
      </trkpt>
      <trkpt lat="46.90386" lon="4.73396">
        <ele>237.76</ele>
        <time>2014-03-23T09:47:24Z</time>
      </trkpt>
      <trkpt lat="46.90402" lon="4.73419">
        <ele>236.58</ele>
        <time>2014-03-23T09:47:26Z</time>
      </trkpt>
      <trkpt lat="46.90416" lon="4.73443">
        <ele>235.27</ele>
        <time>2014-03-23T09:47:28Z</time>
      </trkpt>
      <trkpt lat="46.90427" lon="4.7347">
        <ele>233.89</ele>
        <time>2014-03-23T09:47:30Z</time>
      </trkpt>
      <trkpt lat="46.90434" lon="4.73498">
        <ele>232.52</ele>
        <time>2014-03-23T09:47:32Z</time>
      </trkpt>
      <trkpt lat="46.90449" lon="4.73529">
        <ele>230.95</ele>
        <time>2014-03-23T09:47:35Z</time>
      </trkpt>
      <trkpt lat="46.90468" lon="4.73555">
        <ele>229.6</ele>
        <time>2014-03-23T09:47:38Z</time>
      </trkpt>
      <trkpt lat="46.90478" lon="4.73578">
        <ele>228.49</ele>
        <time>2014-03-23T09:47:40Z</time>
      </trkpt>
      <trkpt lat="46.90486" lon="4.73606">
        <ele>227.12</ele>
        <time>2014-03-23T09:47:42Z</time>
      </trkpt>
      <trkpt lat="46.90495" lon="4.73637">
        <ele>225.2</ele>
        <time>2014-03-23T09:47:44Z</time>
      </trkpt>
      <trkpt lat="46.90504" lon="4.73667">
        <ele>223.24</ele>
        <time>2014-03-23T09:47:46Z</time>
      </trkpt>
      <trkpt lat="46.90509" lon="4.73703">
        <ele>220.85</ele>
        <time>2014-03-23T09:47:49Z</time>
      </trkpt>
      <trkpt lat="46.90503" lon="4.73729">
        <ele>219.16</ele>
        <time>2014-03-23T09:47:51Z</time>
      </trkpt>
      <trkpt lat="46.90494" lon="4.73758">
        <ele>217.33</ele>
        <time>2014-03-23T09:47:53Z</time>
      </trkpt>
      <trkpt lat="46.90482" lon="4.73791">
        <ele>215.35</ele>
        <time>2014-03-23T09:47:55Z</time>
      </trkpt>
      <trkpt lat="46.9047" lon="4.73826">
        <ele>213.08</ele>
        <time>2014-03-23T09:47:57Z</time>
      </trkpt>
      <trkpt lat="46.90455" lon="4.73862">
        <ele>210.57</ele>
        <time>2014-03-23T09:47:59Z</time>
      </trkpt>
      <trkpt lat="46.90437" lon="4.73897">
        <ele>207.84</ele>
        <time>2014-03-23T09:48:01Z</time>
      </trkpt>
      <trkpt lat="46.90412" lon="4.73925">
        <ele>204.58</ele>
        <time>2014-03-23T09:48:03Z</time>
      </trkpt>
      <trkpt lat="46.9039" lon="4.73948">
        <ele>200.79</ele>
        <time>2014-03-23T09:48:05Z</time>
      </trkpt>
      <trkpt lat="46.90374" lon="4.73963">
        <ele>196.54</ele>
        <time>2014-03-23T09:48:07Z</time>
      </trkpt>
      <trkpt lat="46.90358" lon="4.73979">
        <ele>191.56</ele>
        <time>2014-03-23T09:48:10Z</time>
      </trkpt>
      <trkpt lat="46.90339" lon="4.73996">
        <ele>186.68</ele>
        <time>2014-03-23T09:48:14Z</time>
      </trkpt>
      <trkpt lat="46.90321" lon="4.74016">
        <ele>183.44</ele>
        <time>2014-03-23T09:48:17Z</time>
      </trkpt>
      <trkpt lat="46.903" lon="4.7404">
        <ele>180.26</ele>
        <time>2014-03-23T09:48:20Z</time>
      </trkpt>
      <trkpt lat="46.90285" lon="4.74058">
        <ele>178.44</ele>
        <time>2014-03-23T09:48:22Z</time>
      </trkpt>
      <trkpt lat="46.90271" lon="4.74077">
        <ele>176.68</ele>
        <time>2014-03-23T09:48:24Z</time>
      </trkpt>
      <trkpt lat="46.90255" lon="4.74098">
        <ele>175.24</ele>
        <time>2014-03-23T09:48:26Z</time>
      </trkpt>
      <trkpt lat="46.9024" lon="4.74119">
        <ele>173.85</ele>
        <time>2014-03-23T09:48:28Z</time>
      </trkpt>
      <trkpt lat="46.90223" lon="4.74139">
        <ele>172.81</ele>
        <time>2014-03-23T09:48:30Z</time>
      </trkpt>
      <trkpt lat="46.90207" lon="4.74157">
        <ele>171.82</ele>
        <time>2014-03-23T09:48:32Z</time>
      </trkpt>
      <trkpt lat="46.90192" lon="4.74174">
        <ele>171</ele>
        <time>2014-03-23T09:48:34Z</time>
      </trkpt>
      <trkpt lat="46.90177" lon="4.74189">
        <ele>170.77</ele>
        <time>2014-03-23T09:48:36Z</time>
      </trkpt>
      <trkpt lat="46.90156" lon="4.7421">
        <ele>170.47</ele>
        <time>2014-03-23T09:48:39Z</time>
      </trkpt>
      <trkpt lat="46.90137" lon="4.74227">
        <ele>170.65</ele>
        <time>2014-03-23T09:48:42Z</time>
      </trkpt>
      <trkpt lat="46.90119" lon="4.74242">
        <ele>171.19</ele>
        <time>2014-03-23T09:48:45Z</time>
      </trkpt>
      <trkpt lat="46.90101" lon="4.74259">
        <ele>171.79</ele>
        <time>2014-03-23T09:48:49Z</time>
      </trkpt>
      <trkpt lat="46.90083" lon="4.74279">
        <ele>172.63</ele>
        <time>2014-03-23T09:48:54Z</time>
      </trkpt>
      <trkpt lat="46.90066" lon="4.74298">
        <ele>174.2</ele>
        <time>2014-03-23T09:48:59Z</time>
      </trkpt>
      <trkpt lat="46.90051" lon="4.74317">
        <ele>175.9</ele>
        <time>2014-03-23T09:49:05Z</time>
      </trkpt>
      <trkpt lat="46.90038" lon="4.74335">
        <ele>178.51</ele>
        <time>2014-03-23T09:49:11Z</time>
      </trkpt>
      <trkpt lat="46.90025" lon="4.74354">
        <ele>181.44</ele>
        <time>2014-03-23T09:49:20Z</time>
      </trkpt>
      <trkpt lat="46.90006" lon="4.74343">
        <ele>185.98</ele>
        <time>2014-03-23T09:49:39Z</time>
      </trkpt>
      <trkpt lat="46.89988" lon="4.7433">
        <ele>189.99</ele>
        <time>2014-03-23T09:49:48Z</time>
      </trkpt>
      <trkpt lat="46.8997" lon="4.7432">
        <ele>194.15</ele>
        <time>2014-03-23T09:49:57Z</time>
      </trkpt>
      <trkpt lat="46.89954" lon="4.74305">
        <ele>197.56</ele>
        <time>2014-03-23T09:50:06Z</time>
      </trkpt>
      <trkpt lat="46.89936" lon="4.74294">
        <ele>200.05</ele>
        <time>2014-03-23T09:50:15Z</time>
      </trkpt>
      <trkpt lat="46.89921" lon="4.74279">
        <ele>202.28</ele>
        <time>2014-03-23T09:50:27Z</time>
      </trkpt>
      <trkpt lat="46.89906" lon="4.74264">
        <ele>204.49</ele>
        <time>2014-03-23T09:50:38Z</time>
      </trkpt>
      <trkpt lat="46.89889" lon="4.74256">
        <ele>206.13</ele>
        <time>2014-03-23T09:50:50Z</time>
      </trkpt>
      <trkpt lat="46.8987" lon="4.74253">
        <ele>207.9</ele>
        <time>2014-03-23T09:51:05Z</time>
      </trkpt>
      <trkpt lat="46.89852" lon="4.74252">
        <ele>209.62</ele>
        <time>2014-03-23T09:51:19Z</time>
      </trkpt>
      <trkpt lat="46.89834" lon="4.74252">
        <ele>211.52</ele>
        <time>2014-03-23T09:51:33Z</time>
      </trkpt>
      <trkpt lat="46.89816" lon="4.74246">
        <ele>213.63</ele>
        <time>2014-03-23T09:51:47Z</time>
      </trkpt>
      <trkpt lat="46.898" lon="4.74232">
        <ele>216.46</ele>
        <time>2014-03-23T09:52:01Z</time>
      </trkpt>
      <trkpt lat="46.89783" lon="4.74221">
        <ele>220.93</ele>
        <time>2014-03-23T09:52:17Z</time>
      </trkpt>
      <trkpt lat="46.89766" lon="4.74208">
        <ele>226.27</ele>
        <time>2014-03-23T09:52:31Z</time>
      </trkpt>
      <trkpt lat="46.89749" lon="4.74194">
        <ele>230.53</ele>
        <time>2014-03-23T09:52:46Z</time>
      </trkpt>
      <trkpt lat="46.89732" lon="4.74181">
        <ele>233.07</ele>
        <time>2014-03-23T09:52:56Z</time>
      </trkpt>
      <trkpt lat="46.89716" lon="4.74171">
        <ele>235.28</ele>
        <time>2014-03-23T09:53:06Z</time>
      </trkpt>
      <trkpt lat="46.89697" lon="4.74165">
        <ele>237.55</ele>
        <time>2014-03-23T09:53:15Z</time>
      </trkpt>
      <trkpt lat="46.89679" lon="4.74158">
        <ele>239.9</ele>
        <time>2014-03-23T09:53:23Z</time>
      </trkpt>
      <trkpt lat="46.89661" lon="4.7415">
        <ele>242.15</ele>
        <time>2014-03-23T09:53:33Z</time>
      </trkpt>
      <trkpt lat="46.89645" lon="4.74139">
        <ele>243.8</ele>
        <time>2014-03-23T09:53:44Z</time>
      </trkpt>
      <trkpt lat="46.89628" lon="4.74125">
        <ele>245.03</ele>
        <time>2014-03-23T09:53:55Z</time>
      </trkpt>
      <trkpt lat="46.89611" lon="4.74116">
        <ele>245.91</ele>
        <time>2014-03-23T09:54:06Z</time>
      </trkpt>
      <trkpt lat="46.89593" lon="4.74111">
        <ele>245.51</ele>
        <time>2014-03-23T09:54:17Z</time>
      </trkpt>
      <trkpt lat="46.89576" lon="4.74101">
        <ele>243.94</ele>
        <time>2014-03-23T09:54:26Z</time>
      </trkpt>
      <trkpt lat="46.89559" lon="4.74084">
        <ele>242.58</ele>
        <time>2014-03-23T09:54:36Z</time>
      </trkpt>
      <trkpt lat="46.89542" lon="4.7407">
        <ele>241.65</ele>
        <time>2014-03-23T09:54:46Z</time>
      </trkpt>
      <trkpt lat="46.89525" lon="4.74057">
        <ele>241.76</ele>
        <time>2014-03-23T09:54:56Z</time>
      </trkpt>
      <trkpt lat="46.89508" lon="4.74045">
        <ele>244.02</ele>
        <time>2014-03-23T09:55:06Z</time>
      </trkpt>
      <trkpt lat="46.89492" lon="4.74028">
        <ele>247.08</ele>
        <time>2014-03-23T09:55:15Z</time>
      </trkpt>
      <trkpt lat="46.89479" lon="4.74007">
        <ele>249.54</ele>
        <time>2014-03-23T09:55:23Z</time>
      </trkpt>
      <trkpt lat="46.8946" lon="4.73998">
        <ele>251.35</ele>
        <time>2014-03-23T09:55:31Z</time>
      </trkpt>
      <trkpt lat="46.89441" lon="4.73992">
        <ele>250.28</ele>
        <time>2014-03-23T09:55:39Z</time>
      </trkpt>
      <trkpt lat="46.89423" lon="4.73982">
        <ele>249.93</ele>
        <time>2014-03-23T09:55:48Z</time>
      </trkpt>
      <trkpt lat="46.89406" lon="4.7397">
        <ele>251.23</ele>
        <time>2014-03-23T09:55:57Z</time>
      </trkpt>
      <trkpt lat="46.89388" lon="4.73962">
        <ele>251.57</ele>
        <time>2014-03-23T09:56:06Z</time>
      </trkpt>
      <trkpt lat="46.8937" lon="4.73951">
        <ele>252.17</ele>
        <time>2014-03-23T09:56:16Z</time>
      </trkpt>
      <trkpt lat="46.8935" lon="4.73946">
        <ele>252.52</ele>
        <time>2014-03-23T09:56:25Z</time>
      </trkpt>
      <trkpt lat="46.89332" lon="4.73939">
        <ele>253.7</ele>
        <time>2014-03-23T09:56:33Z</time>
      </trkpt>
      <trkpt lat="46.89315" lon="4.7393">
        <ele>254.86</ele>
        <time>2014-03-23T09:56:41Z</time>
      </trkpt>
      <trkpt lat="46.89299" lon="4.73918">
        <ele>255.32</ele>
        <time>2014-03-23T09:56:48Z</time>
      </trkpt>
      <trkpt lat="46.89278" lon="4.73911">
        <ele>255.79</ele>
        <time>2014-03-23T09:56:55Z</time>
      </trkpt>
      <trkpt lat="46.89261" lon="4.73903">
        <ele>255.77</ele>
        <time>2014-03-23T09:57:01Z</time>
      </trkpt>
      <trkpt lat="46.89242" lon="4.73897">
        <ele>255.88</ele>
        <time>2014-03-23T09:57:07Z</time>
      </trkpt>
      <trkpt lat="46.89225" lon="4.73878">
        <ele>256.09</ele>
        <time>2014-03-23T09:57:14Z</time>
      </trkpt>
      <trkpt lat="46.89217" lon="4.73855">
        <ele>256.04</ele>
        <time>2014-03-23T09:57:20Z</time>
      </trkpt>
      <trkpt lat="46.89209" lon="4.73827">
        <ele>255.92</ele>
        <time>2014-03-23T09:57:27Z</time>
      </trkpt>
      <trkpt lat="46.89207" lon="4.73801">
        <ele>255.19</ele>
        <time>2014-03-23T09:57:33Z</time>
      </trkpt>
      <trkpt lat="46.89209" lon="4.73775">
        <ele>255.01</ele>
        <time>2014-03-23T09:57:39Z</time>
      </trkpt>
      <trkpt lat="46.89204" lon="4.73745">
        <ele>254.93</ele>
        <time>2014-03-23T09:57:45Z</time>
      </trkpt>
      <trkpt lat="46.89203" lon="4.73717">
        <ele>254.86</ele>
        <time>2014-03-23T09:57:50Z</time>
      </trkpt>
      <trkpt lat="46.89199" lon="4.73689">
        <ele>254.4</ele>
        <time>2014-03-23T09:57:55Z</time>
      </trkpt>
      <trkpt lat="46.89191" lon="4.73663">
        <ele>255.4</ele>
        <time>2014-03-23T09:58:01Z</time>
      </trkpt>
      <trkpt lat="46.89178" lon="4.73641">
        <ele>257.62</ele>
        <time>2014-03-23T09:58:08Z</time>
      </trkpt>
      <trkpt lat="46.89166" lon="4.7362">
        <ele>261.54</ele>
        <time>2014-03-23T09:58:15Z</time>
      </trkpt>
      <trkpt lat="46.89153" lon="4.73599">
        <ele>264.65</ele>
        <time>2014-03-23T09:58:22Z</time>
      </trkpt>
      <trkpt lat="46.89142" lon="4.73576">
        <ele>267.34</ele>
        <time>2014-03-23T09:58:29Z</time>
      </trkpt>
      <trkpt lat="46.89129" lon="4.73557">
        <ele>268.44</ele>
        <time>2014-03-23T09:58:35Z</time>
      </trkpt>
      <trkpt lat="46.89118" lon="4.73534">
        <ele>268.31</ele>
        <time>2014-03-23T09:58:42Z</time>
      </trkpt>
      <trkpt lat="46.89107" lon="4.73508">
        <ele>268.53</ele>
        <time>2014-03-23T09:58:49Z</time>
      </trkpt>
      <trkpt lat="46.89096" lon="4.73485">
        <ele>267.51</ele>
        <time>2014-03-23T09:58:55Z</time>
      </trkpt>
      <trkpt lat="46.89086" lon="4.7346">
        <ele>266.47</ele>
        <time>2014-03-23T09:59:01Z</time>
      </trkpt>
      <trkpt lat="46.89066" lon="4.73448">
        <ele>267.37</ele>
        <time>2014-03-23T09:59:08Z</time>
      </trkpt>
      <trkpt lat="46.89046" lon="4.73442">
        <ele>269.61</ele>
        <time>2014-03-23T09:59:15Z</time>
      </trkpt>
      <trkpt lat="46.89027" lon="4.73438">
        <ele>270.88</ele>
        <time>2014-03-23T09:59:22Z</time>
      </trkpt>
      <trkpt lat="46.89008" lon="4.73427">
        <ele>270.86</ele>
        <time>2014-03-23T09:59:31Z</time>
      </trkpt>
      <trkpt lat="46.8899" lon="4.73419">
        <ele>271.28</ele>
        <time>2014-03-23T09:59:41Z</time>
      </trkpt>
      <trkpt lat="46.88976" lon="4.73437">
        <ele>272.69</ele>
        <time>2014-03-23T09:59:51Z</time>
      </trkpt>
      <trkpt lat="46.88964" lon="4.73459">
        <ele>274.9</ele>
        <time>2014-03-23T10:00:00Z</time>
      </trkpt>
      <trkpt lat="46.88953" lon="4.73482">
        <ele>275.42</ele>
        <time>2014-03-23T10:00:08Z</time>
      </trkpt>
      <trkpt lat="46.88947" lon="4.73509">
        <ele>274.46</ele>
        <time>2014-03-23T10:00:16Z</time>
      </trkpt>
      <trkpt lat="46.88943" lon="4.73536">
        <ele>273.26</ele>
        <time>2014-03-23T10:00:23Z</time>
      </trkpt>
      <trkpt lat="46.88937" lon="4.73561">
        <ele>272.85</ele>
        <time>2014-03-23T10:00:29Z</time>
      </trkpt>
      <trkpt lat="46.88932" lon="4.73588">
        <ele>273.67</ele>
        <time>2014-03-23T10:00:36Z</time>
      </trkpt>
      <trkpt lat="46.88932" lon="4.7362">
        <ele>273.82</ele>
        <time>2014-03-23T10:00:42Z</time>
      </trkpt>
      <trkpt lat="46.88932" lon="4.73648">
        <ele>272.59</ele>
        <time>2014-03-23T10:00:47Z</time>
      </trkpt>
      <trkpt lat="46.88925" lon="4.7368">
        <ele>271.74</ele>
        <time>2014-03-23T10:00:52Z</time>
      </trkpt>
      <trkpt lat="46.88918" lon="4.73711">
        <ele>270.64</ele>
        <time>2014-03-23T10:00:56Z</time>
      </trkpt>
      <trkpt lat="46.88912" lon="4.73739">
        <ele>269.31</ele>
        <time>2014-03-23T10:00:59Z</time>
      </trkpt>
      <trkpt lat="46.88903" lon="4.73767">
        <ele>267.68</ele>
        <time>2014-03-23T10:01:02Z</time>
      </trkpt>
      <trkpt lat="46.88893" lon="4.73796">
        <ele>266.15</ele>
        <time>2014-03-23T10:01:05Z</time>
      </trkpt>
      <trkpt lat="46.8888" lon="4.73823">
        <ele>264.69</ele>
        <time>2014-03-23T10:01:08Z</time>
      </trkpt>
      <trkpt lat="46.88863" lon="4.73846">
        <ele>263.29</ele>
        <time>2014-03-23T10:01:11Z</time>
      </trkpt>
      <trkpt lat="46.88846" lon="4.73864">
        <ele>261.96</ele>
        <time>2014-03-23T10:01:14Z</time>
      </trkpt>
      <trkpt lat="46.88829" lon="4.73875">
        <ele>260.09</ele>
        <time>2014-03-23T10:01:17Z</time>
      </trkpt>
      <trkpt lat="46.88808" lon="4.73882">
        <ele>258.18</ele>
        <time>2014-03-23T10:01:20Z</time>
      </trkpt>
      <trkpt lat="46.88788" lon="4.73889">
        <ele>256.43</ele>
        <time>2014-03-23T10:01:23Z</time>
      </trkpt>
      <trkpt lat="46.8877" lon="4.73901">
        <ele>253.35</ele>
        <time>2014-03-23T10:01:28Z</time>
      </trkpt>
      <trkpt lat="46.88753" lon="4.73916">
        <ele>251.1</ele>
        <time>2014-03-23T10:01:33Z</time>
      </trkpt>
      <trkpt lat="46.88737" lon="4.73932">
        <ele>249.49</ele>
        <time>2014-03-23T10:01:51Z</time>
      </trkpt>
      <trkpt lat="46.88721" lon="4.73946">
        <ele>249</ele>
        <time>2014-03-23T10:01:56Z</time>
      </trkpt>
      <trkpt lat="46.88704" lon="4.73963">
        <ele>248.23</ele>
        <time>2014-03-23T10:02:01Z</time>
      </trkpt>
      <trkpt lat="46.88696" lon="4.73986">
        <ele>247.93</ele>
        <time>2014-03-23T10:02:06Z</time>
      </trkpt>
      <trkpt lat="46.8869" lon="4.74013">
        <ele>248.65</ele>
        <time>2014-03-23T10:02:11Z</time>
      </trkpt>
      <trkpt lat="46.88681" lon="4.74044">
        <ele>248.7</ele>
        <time>2014-03-23T10:02:15Z</time>
      </trkpt>
      <trkpt lat="46.88673" lon="4.74067">
        <ele>248.61</ele>
        <time>2014-03-23T10:02:18Z</time>
      </trkpt>
      <trkpt lat="46.88659" lon="4.74092">
        <ele>247.13</ele>
        <time>2014-03-23T10:02:21Z</time>
      </trkpt>
      <trkpt lat="46.88646" lon="4.7411">
        <ele>244.56</ele>
        <time>2014-03-23T10:02:24Z</time>
      </trkpt>
      <trkpt lat="46.88623" lon="4.74118">
        <ele>240.35</ele>
        <time>2014-03-23T10:02:28Z</time>
      </trkpt>
      <trkpt lat="46.88604" lon="4.74124">
        <ele>236.09</ele>
        <time>2014-03-23T10:02:33Z</time>
      </trkpt>
      <trkpt lat="46.88584" lon="4.74142">
        <ele>232.45</ele>
        <time>2014-03-23T10:02:38Z</time>
      </trkpt>
      <trkpt lat="46.88568" lon="4.7416">
        <ele>230.07</ele>
        <time>2014-03-23T10:02:41Z</time>
      </trkpt>
      <trkpt lat="46.88554" lon="4.74178">
        <ele>228.3</ele>
        <time>2014-03-23T10:02:44Z</time>
      </trkpt>
      <trkpt lat="46.88539" lon="4.74193">
        <ele>226.21</ele>
        <time>2014-03-23T10:02:47Z</time>
      </trkpt>
      <trkpt lat="46.8852" lon="4.74193">
        <ele>220.98</ele>
        <time>2014-03-23T10:02:51Z</time>
      </trkpt>
      <trkpt lat="46.88499" lon="4.74202">
        <ele>216.56</ele>
        <time>2014-03-23T10:02:55Z</time>
      </trkpt>
      <trkpt lat="46.88481" lon="4.74222">
        <ele>213.71</ele>
        <time>2014-03-23T10:02:58Z</time>
      </trkpt>
      <trkpt lat="46.88466" lon="4.7424">
        <ele>211.18</ele>
        <time>2014-03-23T10:03:01Z</time>
      </trkpt>
      <trkpt lat="46.8845" lon="4.74264">
        <ele>207.49</ele>
        <time>2014-03-23T10:03:05Z</time>
      </trkpt>
      <trkpt lat="46.88437" lon="4.74287">
        <ele>204.59</ele>
        <time>2014-03-23T10:03:08Z</time>
      </trkpt>
      <trkpt lat="46.88424" lon="4.74317">
        <ele>201.77</ele>
        <time>2014-03-23T10:03:11Z</time>
      </trkpt>
      <trkpt lat="46.88411" lon="4.74345">
        <ele>199.19</ele>
        <time>2014-03-23T10:03:14Z</time>
      </trkpt>
      <trkpt lat="46.88394" lon="4.74372">
        <ele>197.09</ele>
        <time>2014-03-23T10:03:17Z</time>
      </trkpt>
      <trkpt lat="46.88378" lon="4.74402">
        <ele>194.61</ele>
        <time>2014-03-23T10:03:20Z</time>
      </trkpt>
      <trkpt lat="46.88363" lon="4.74433">
        <ele>192.72</ele>
        <time>2014-03-23T10:03:23Z</time>
      </trkpt>
      <trkpt lat="46.88351" lon="4.74454">
        <ele>191.47</ele>
        <time>2014-03-23T10:03:25Z</time>
      </trkpt>
      <trkpt lat="46.88333" lon="4.74476">
        <ele>189.13</ele>
        <time>2014-03-23T10:03:28Z</time>
      </trkpt>
      <trkpt lat="46.88313" lon="4.74481">
        <ele>186.9</ele>
        <time>2014-03-23T10:03:31Z</time>
      </trkpt>
      <trkpt lat="46.88297" lon="4.74469">
        <ele>183.86</ele>
        <time>2014-03-23T10:03:34Z</time>
      </trkpt>
      <trkpt lat="46.88276" lon="4.74452">
        <ele>181.05</ele>
        <time>2014-03-23T10:03:38Z</time>
      </trkpt>
      <trkpt lat="46.88255" lon="4.74437">
        <ele>179.23</ele>
        <time>2014-03-23T10:03:42Z</time>
      </trkpt>
      <trkpt lat="46.88237" lon="4.7443">
        <ele>177.74</ele>
        <time>2014-03-23T10:03:45Z</time>
      </trkpt>
      <trkpt lat="46.8822" lon="4.74419">
        <ele>177.2</ele>
        <time>2014-03-23T10:03:48Z</time>
      </trkpt>
      <trkpt lat="46.88203" lon="4.74407">
        <ele>176.87</ele>
        <time>2014-03-23T10:03:51Z</time>
      </trkpt>
      <trkpt lat="46.88188" lon="4.74394">
        <ele>176.01</ele>
        <time>2014-03-23T10:03:54Z</time>
      </trkpt>
      <trkpt lat="46.88167" lon="4.74377">
        <ele>175.38</ele>
        <time>2014-03-23T10:03:58Z</time>
      </trkpt>
      <trkpt lat="46.88151" lon="4.74362">
        <ele>174.92</ele>
        <time>2014-03-23T10:04:02Z</time>
      </trkpt>
      <trkpt lat="46.88169" lon="4.74378">
        <ele>176.15</ele>
        <time>2014-03-23T10:04:37Z</time>
      </trkpt>
      <trkpt lat="46.88186" lon="4.74392">
        <ele>176.89</ele>
        <time>2014-03-23T10:04:43Z</time>
      </trkpt>
      <trkpt lat="46.88203" lon="4.74405">
        <ele>177.26</ele>
        <time>2014-03-23T10:04:48Z</time>
      </trkpt>
      <trkpt lat="46.8822" lon="4.74418">
        <ele>178.2</ele>
        <time>2014-03-23T10:04:53Z</time>
      </trkpt>
      <trkpt lat="46.88236" lon="4.74429">
        <ele>179.05</ele>
        <time>2014-03-23T10:04:58Z</time>
      </trkpt>
      <trkpt lat="46.88256" lon="4.74441">
        <ele>180.22</ele>
        <time>2014-03-23T10:05:04Z</time>
      </trkpt>
      <trkpt lat="46.88274" lon="4.74451">
        <ele>181.66</ele>
        <time>2014-03-23T10:05:10Z</time>
      </trkpt>
      <trkpt lat="46.88292" lon="4.74466">
        <ele>183.49</ele>
        <time>2014-03-23T10:05:16Z</time>
      </trkpt>
      <trkpt lat="46.8831" lon="4.74482">
        <ele>185.07</ele>
        <time>2014-03-23T10:05:22Z</time>
      </trkpt>
      <trkpt lat="46.8833" lon="4.74485">
        <ele>187.8</ele>
        <time>2014-03-23T10:05:29Z</time>
      </trkpt>
      <trkpt lat="46.88346" lon="4.74471">
        <ele>192.81</ele>
        <time>2014-03-23T10:05:40Z</time>
      </trkpt>
      <trkpt lat="46.88359" lon="4.7445">
        <ele>197.14</ele>
        <time>2014-03-23T10:05:49Z</time>
      </trkpt>
      <trkpt lat="46.8837" lon="4.74428">
        <ele>201.85</ele>
        <time>2014-03-23T10:06:00Z</time>
      </trkpt>
      <trkpt lat="46.88381" lon="4.74405">
        <ele>203.89</ele>
        <time>2014-03-23T10:06:10Z</time>
      </trkpt>
      <trkpt lat="46.88376" lon="4.74377">
        <ele>206.21</ele>
        <time>2014-03-23T10:06:23Z</time>
      </trkpt>
      <trkpt lat="46.88366" lon="4.7435">
        <ele>207.3</ele>
        <time>2014-03-23T10:06:32Z</time>
      </trkpt>
      <trkpt lat="46.88353" lon="4.74329">
        <ele>208.14</ele>
        <time>2014-03-23T10:06:41Z</time>
      </trkpt>
      <trkpt lat="46.8834" lon="4.74307">
        <ele>209.85</ele>
        <time>2014-03-23T10:06:49Z</time>
      </trkpt>
      <trkpt lat="46.88329" lon="4.74286">
        <ele>209.24</ele>
        <time>2014-03-23T10:06:57Z</time>
      </trkpt>
      <trkpt lat="46.88316" lon="4.74268">
        <ele>207.48</ele>
        <time>2014-03-23T10:07:04Z</time>
      </trkpt>
      <trkpt lat="46.88297" lon="4.74253">
        <ele>204.69</ele>
        <time>2014-03-23T10:07:09Z</time>
      </trkpt>
      <trkpt lat="46.88278" lon="4.74236">
        <ele>200.1</ele>
        <time>2014-03-23T10:07:14Z</time>
      </trkpt>
      <trkpt lat="46.88263" lon="4.74222">
        <ele>197.99</ele>
        <time>2014-03-23T10:07:18Z</time>
      </trkpt>
      <trkpt lat="46.88243" lon="4.74218">
        <ele>195.71</ele>
        <time>2014-03-23T10:07:23Z</time>
      </trkpt>
      <trkpt lat="46.88225" lon="4.74202">
        <ele>195.92</ele>
        <time>2014-03-23T10:07:29Z</time>
      </trkpt>
      <trkpt lat="46.8822" lon="4.74174">
        <ele>197.06</ele>
        <time>2014-03-23T10:07:35Z</time>
      </trkpt>
      <trkpt lat="46.88214" lon="4.74146">
        <ele>195.33</ele>
        <time>2014-03-23T10:07:43Z</time>
      </trkpt>
      <trkpt lat="46.88215" lon="4.74118">
        <ele>195.6</ele>
        <time>2014-03-23T10:07:53Z</time>
      </trkpt>
      <trkpt lat="46.88215" lon="4.74092">
        <ele>197.68</ele>
        <time>2014-03-23T10:08:03Z</time>
      </trkpt>
      <trkpt lat="46.88212" lon="4.74064">
        <ele>199.7</ele>
        <time>2014-03-23T10:08:16Z</time>
      </trkpt>
      <trkpt lat="46.88216" lon="4.74038">
        <ele>201.48</ele>
        <time>2014-03-23T10:08:34Z</time>
      </trkpt>
      <trkpt lat="46.88216" lon="4.74012">
        <ele>202.83</ele>
        <time>2014-03-23T10:08:52Z</time>
      </trkpt>
      <trkpt lat="46.88213" lon="4.73984">
        <ele>204.63</ele>
        <time>2014-03-23T10:09:08Z</time>
      </trkpt>
      <trkpt lat="46.88202" lon="4.73961">
        <ele>205.65</ele>
        <time>2014-03-23T10:09:20Z</time>
      </trkpt>
      <trkpt lat="46.88188" lon="4.73943">
        <ele>206.37</ele>
        <time>2014-03-23T10:09:31Z</time>
      </trkpt>
      <trkpt lat="46.88171" lon="4.73932">
        <ele>206.81</ele>
        <time>2014-03-23T10:09:38Z</time>
      </trkpt>
      <trkpt lat="46.88158" lon="4.73909">
        <ele>206.26</ele>
        <time>2014-03-23T10:09:44Z</time>
      </trkpt>
      <trkpt lat="46.88143" lon="4.73887">
        <ele>205.45</ele>
        <time>2014-03-23T10:09:49Z</time>
      </trkpt>
      <trkpt lat="46.88128" lon="4.73872">
        <ele>204.88</ele>
        <time>2014-03-23T10:09:53Z</time>
      </trkpt>
      <trkpt lat="46.8811" lon="4.73862">
        <ele>204.75</ele>
        <time>2014-03-23T10:09:57Z</time>
      </trkpt>
      <trkpt lat="46.88093" lon="4.73852">
        <ele>204.52</ele>
        <time>2014-03-23T10:10:01Z</time>
      </trkpt>
      <trkpt lat="46.8807" lon="4.73844">
        <ele>203.14</ele>
        <time>2014-03-23T10:10:05Z</time>
      </trkpt>
      <trkpt lat="46.88051" lon="4.73838">
        <ele>201.51</ele>
        <time>2014-03-23T10:10:08Z</time>
      </trkpt>
      <trkpt lat="46.88032" lon="4.73835">
        <ele>200.01</ele>
        <time>2014-03-23T10:10:11Z</time>
      </trkpt>
      <trkpt lat="46.8801" lon="4.73831">
        <ele>198.66</ele>
        <time>2014-03-23T10:10:14Z</time>
      </trkpt>
      <trkpt lat="46.87991" lon="4.73811">
        <ele>197.19</ele>
        <time>2014-03-23T10:10:17Z</time>
      </trkpt>
      <trkpt lat="46.87976" lon="4.7379">
        <ele>195.37</ele>
        <time>2014-03-23T10:10:20Z</time>
      </trkpt>
      <trkpt lat="46.87963" lon="4.73771">
        <ele>194.46</ele>
        <time>2014-03-23T10:10:23Z</time>
      </trkpt>
      <trkpt lat="46.87948" lon="4.73747">
        <ele>193.13</ele>
        <time>2014-03-23T10:10:27Z</time>
      </trkpt>
      <trkpt lat="46.87937" lon="4.7372">
        <ele>191.74</ele>
        <time>2014-03-23T10:10:31Z</time>
      </trkpt>
      <trkpt lat="46.87924" lon="4.73691">
        <ele>190.2</ele>
        <time>2014-03-23T10:10:35Z</time>
      </trkpt>
      <trkpt lat="46.87905" lon="4.73673">
        <ele>188.34</ele>
        <time>2014-03-23T10:10:38Z</time>
      </trkpt>
      <trkpt lat="46.8788" lon="4.73669">
        <ele>186.96</ele>
        <time>2014-03-23T10:10:41Z</time>
      </trkpt>
      <trkpt lat="46.87854" lon="4.73668">
        <ele>184.83</ele>
        <time>2014-03-23T10:10:44Z</time>
      </trkpt>
      <trkpt lat="46.87829" lon="4.73672">
        <ele>182.93</ele>
        <time>2014-03-23T10:10:47Z</time>
      </trkpt>
      <trkpt lat="46.8781" lon="4.73676">
        <ele>181.65</ele>
        <time>2014-03-23T10:10:49Z</time>
      </trkpt>
      <trkpt lat="46.87791" lon="4.73681">
        <ele>180.61</ele>
        <time>2014-03-23T10:10:51Z</time>
      </trkpt>
      <trkpt lat="46.87771" lon="4.73685">
        <ele>179.62</ele>
        <time>2014-03-23T10:10:53Z</time>
      </trkpt>
      <trkpt lat="46.87746" lon="4.73689">
        <ele>178.78</ele>
        <time>2014-03-23T10:10:56Z</time>
      </trkpt>
      <trkpt lat="46.87729" lon="4.7368">
        <ele>177.68</ele>
        <time>2014-03-23T10:11:01Z</time>
      </trkpt>
      <trkpt lat="46.8773" lon="4.73652">
        <ele>177.85</ele>
        <time>2014-03-23T10:11:06Z</time>
      </trkpt>
      <trkpt lat="46.87717" lon="4.73633">
        <ele>177.47</ele>
        <time>2014-03-23T10:11:11Z</time>
      </trkpt>
      <trkpt lat="46.87701" lon="4.73619">
        <ele>178.39</ele>
        <time>2014-03-23T10:11:17Z</time>
      </trkpt>
      <trkpt lat="46.87688" lon="4.73597">
        <ele>178.91</ele>
        <time>2014-03-23T10:11:22Z</time>
      </trkpt>
      <trkpt lat="46.87678" lon="4.73574">
        <ele>178.99</ele>
        <time>2014-03-23T10:11:26Z</time>
      </trkpt>
      <trkpt lat="46.87662" lon="4.73551">
        <ele>179.37</ele>
        <time>2014-03-23T10:11:30Z</time>
      </trkpt>
      <trkpt lat="46.87647" lon="4.73534">
        <ele>179.35</ele>
        <time>2014-03-23T10:11:34Z</time>
      </trkpt>
      <trkpt lat="46.87632" lon="4.73517">
        <ele>179.5</ele>
        <time>2014-03-23T10:11:38Z</time>
      </trkpt>
      <trkpt lat="46.87617" lon="4.73501">
        <ele>179.51</ele>
        <time>2014-03-23T10:11:42Z</time>
      </trkpt>
      <trkpt lat="46.87603" lon="4.73481">
        <ele>179.38</ele>
        <time>2014-03-23T10:11:46Z</time>
      </trkpt>
      <trkpt lat="46.87592" lon="4.7346">
        <ele>179.89</ele>
        <time>2014-03-23T10:11:50Z</time>
      </trkpt>
      <trkpt lat="46.87585" lon="4.73435">
        <ele>180.83</ele>
        <time>2014-03-23T10:11:54Z</time>
      </trkpt>
      <trkpt lat="46.8758" lon="4.73406">
        <ele>182.16</ele>
        <time>2014-03-23T10:11:59Z</time>
      </trkpt>
      <trkpt lat="46.87576" lon="4.73376">
        <ele>182.55</ele>
        <time>2014-03-23T10:12:04Z</time>
      </trkpt>
      <trkpt lat="46.87566" lon="4.73351">
        <ele>183.17</ele>
        <time>2014-03-23T10:12:09Z</time>
      </trkpt>
      <trkpt lat="46.87553" lon="4.7333">
        <ele>185.22</ele>
        <time>2014-03-23T10:12:14Z</time>
      </trkpt>
      <trkpt lat="46.87536" lon="4.73312">
        <ele>185.91</ele>
        <time>2014-03-23T10:12:19Z</time>
      </trkpt>
      <trkpt lat="46.87519" lon="4.73294">
        <ele>186.43</ele>
        <time>2014-03-23T10:12:24Z</time>
      </trkpt>
      <trkpt lat="46.87505" lon="4.73273">
        <ele>186.88</ele>
        <time>2014-03-23T10:12:29Z</time>
      </trkpt>
      <trkpt lat="46.8749" lon="4.73254">
        <ele>186.89</ele>
        <time>2014-03-23T10:12:34Z</time>
      </trkpt>
      <trkpt lat="46.87477" lon="4.73234">
        <ele>185.7</ele>
        <time>2014-03-23T10:12:39Z</time>
      </trkpt>
      <trkpt lat="46.87462" lon="4.73211">
        <ele>185.72</ele>
        <time>2014-03-23T10:12:45Z</time>
      </trkpt>
      <trkpt lat="46.87449" lon="4.73191">
        <ele>186.3</ele>
        <time>2014-03-23T10:12:51Z</time>
      </trkpt>
      <trkpt lat="46.87433" lon="4.73173">
        <ele>187.23</ele>
        <time>2014-03-23T10:12:57Z</time>
      </trkpt>
      <trkpt lat="46.87417" lon="4.73159">
        <ele>189.14</ele>
        <time>2014-03-23T10:13:03Z</time>
      </trkpt>
      <trkpt lat="46.874" lon="4.73147">
        <ele>189.51</ele>
        <time>2014-03-23T10:13:09Z</time>
      </trkpt>
      <trkpt lat="46.87385" lon="4.73133">
        <ele>191.37</ele>
        <time>2014-03-23T10:13:15Z</time>
      </trkpt>
      <trkpt lat="46.87368" lon="4.73119">
        <ele>192.73</ele>
        <time>2014-03-23T10:13:21Z</time>
      </trkpt>
      <trkpt lat="46.87351" lon="4.73107">
        <ele>193.24</ele>
        <time>2014-03-23T10:13:28Z</time>
      </trkpt>
      <trkpt lat="46.87334" lon="4.73096">
        <ele>195.46</ele>
        <time>2014-03-23T10:13:37Z</time>
      </trkpt>
      <trkpt lat="46.87318" lon="4.73082">
        <ele>197.98</ele>
        <time>2014-03-23T10:13:47Z</time>
      </trkpt>
      <trkpt lat="46.87301" lon="4.73073">
        <ele>200.06</ele>
        <time>2014-03-23T10:13:56Z</time>
      </trkpt>
      <trkpt lat="46.87285" lon="4.73057">
        <ele>202.37</ele>
        <time>2014-03-23T10:14:06Z</time>
      </trkpt>
      <trkpt lat="46.87277" lon="4.73033">
        <ele>209.33</ele>
        <time>2014-03-23T10:14:29Z</time>
      </trkpt>
      <trkpt lat="46.87285" lon="4.73008">
        <ele>211.63</ele>
        <time>2014-03-23T10:14:41Z</time>
      </trkpt>
      <trkpt lat="46.8729" lon="4.72982">
        <ele>212.79</ele>
        <time>2014-03-23T10:14:55Z</time>
      </trkpt>
      <trkpt lat="46.87297" lon="4.72958">
        <ele>214.14</ele>
        <time>2014-03-23T10:15:09Z</time>
      </trkpt>
      <trkpt lat="46.87301" lon="4.72931">
        <ele>215.58</ele>
        <time>2014-03-23T10:15:23Z</time>
      </trkpt>
      <trkpt lat="46.87292" lon="4.72906">
        <ele>215.93</ele>
        <time>2014-03-23T10:15:37Z</time>
      </trkpt>
      <trkpt lat="46.87275" lon="4.72894">
        <ele>216.74</ele>
        <time>2014-03-23T10:15:46Z</time>
      </trkpt>
      <trkpt lat="46.87254" lon="4.7289">
        <ele>215.35</ele>
        <time>2014-03-23T10:15:51Z</time>
      </trkpt>
      <trkpt lat="46.87237" lon="4.7288">
        <ele>214.92</ele>
        <time>2014-03-23T10:15:55Z</time>
      </trkpt>
      <trkpt lat="46.87222" lon="4.72862">
        <ele>214.76</ele>
        <time>2014-03-23T10:16:02Z</time>
      </trkpt>
      <trkpt lat="46.8721" lon="4.72841">
        <ele>215.03</ele>
        <time>2014-03-23T10:16:10Z</time>
      </trkpt>
      <trkpt lat="46.87202" lon="4.72816">
        <ele>216.19</ele>
        <time>2014-03-23T10:16:23Z</time>
      </trkpt>
      <trkpt lat="46.87211" lon="4.72791">
        <ele>216.89</ele>
        <time>2014-03-23T10:18:54Z</time>
      </trkpt>
      <trkpt lat="46.87218" lon="4.72766">
        <ele>217.5</ele>
        <time>2014-03-23T10:19:04Z</time>
      </trkpt>
      <trkpt lat="46.8722" lon="4.72739">
        <ele>219.34</ele>
        <time>2014-03-23T10:19:25Z</time>
      </trkpt>
      <trkpt lat="46.87214" lon="4.72714">
        <ele>221.03</ele>
        <time>2014-03-23T10:19:42Z</time>
      </trkpt>
      <trkpt lat="46.87212" lon="4.72688">
        <ele>222.46</ele>
        <time>2014-03-23T10:20:00Z</time>
      </trkpt>
      <trkpt lat="46.87216" lon="4.72662">
        <ele>223.18</ele>
        <time>2014-03-23T10:20:08Z</time>
      </trkpt>
      <trkpt lat="46.87216" lon="4.72635">
        <ele>224.24</ele>
        <time>2014-03-23T10:20:22Z</time>
      </trkpt>
      <trkpt lat="46.8722" lon="4.72602">
        <ele>225.53</ele>
        <time>2014-03-23T10:20:35Z</time>
      </trkpt>
      <trkpt lat="46.87217" lon="4.72576">
        <ele>226.18</ele>
        <time>2014-03-23T10:20:44Z</time>
      </trkpt>
      <trkpt lat="46.87213" lon="4.72543">
        <ele>229.54</ele>
        <time>2014-03-23T10:21:27Z</time>
      </trkpt>
      <trkpt lat="46.8721" lon="4.72516">
        <ele>232.02</ele>
        <time>2014-03-23T10:21:47Z</time>
      </trkpt>
      <trkpt lat="46.8721" lon="4.7249">
        <ele>235.14</ele>
        <time>2014-03-23T10:22:05Z</time>
      </trkpt>
      <trkpt lat="46.87219" lon="4.72465">
        <ele>236.86</ele>
        <time>2014-03-23T10:23:14Z</time>
      </trkpt>
      <trkpt lat="46.87219" lon="4.72436">
        <ele>238.64</ele>
        <time>2014-03-23T10:23:21Z</time>
      </trkpt>
      <trkpt lat="46.87221" lon="4.72408">
        <ele>242.59</ele>
        <time>2014-03-23T10:23:34Z</time>
      </trkpt>
      <trkpt lat="46.87227" lon="4.72383">
        <ele>244.63</ele>
        <time>2014-03-23T10:23:43Z</time>
      </trkpt>
      <trkpt lat="46.87222" lon="4.72355">
        <ele>247.81</ele>
        <time>2014-03-23T10:23:51Z</time>
      </trkpt>
      <trkpt lat="46.87217" lon="4.7233">
        <ele>252.83</ele>
        <time>2014-03-23T10:24:00Z</time>
      </trkpt>
      <trkpt lat="46.87203" lon="4.72311">
        <ele>266.31</ele>
        <time>2014-03-23T10:27:31Z</time>
      </trkpt>
      <trkpt lat="46.87185" lon="4.72314">
        <ele>267.33</ele>
        <time>2014-03-23T10:27:40Z</time>
      </trkpt>
      <trkpt lat="46.87165" lon="4.72318">
        <ele>270.35</ele>
        <time>2014-03-23T10:27:52Z</time>
      </trkpt>
      <trkpt lat="46.87148" lon="4.72324">
        <ele>274.39</ele>
        <time>2014-03-23T10:28:06Z</time>
      </trkpt>
      <trkpt lat="46.8713" lon="4.72327">
        <ele>278.29</ele>
        <time>2014-03-23T10:28:22Z</time>
      </trkpt>
      <trkpt lat="46.87111" lon="4.72318">
        <ele>281.26</ele>
        <time>2014-03-23T10:28:36Z</time>
      </trkpt>
      <trkpt lat="46.87096" lon="4.72302">
        <ele>284.32</ele>
        <time>2014-03-23T10:28:49Z</time>
      </trkpt>
      <trkpt lat="46.87078" lon="4.72296">
        <ele>287.19</ele>
        <time>2014-03-23T10:29:01Z</time>
      </trkpt>
      <trkpt lat="46.87061" lon="4.72287">
        <ele>289.67</ele>
        <time>2014-03-23T10:29:14Z</time>
      </trkpt>
      <trkpt lat="46.87042" lon="4.72282">
        <ele>292.09</ele>
        <time>2014-03-23T10:29:27Z</time>
      </trkpt>
      <trkpt lat="46.87026" lon="4.72265">
        <ele>293.32</ele>
        <time>2014-03-23T10:29:39Z</time>
      </trkpt>
      <trkpt lat="46.87012" lon="4.72247">
        <ele>295.29</ele>
        <time>2014-03-23T10:29:48Z</time>
      </trkpt>
      <trkpt lat="46.86997" lon="4.72233">
        <ele>297.93</ele>
        <time>2014-03-23T10:29:57Z</time>
      </trkpt>
      <trkpt lat="46.86981" lon="4.72219">
        <ele>300.85</ele>
        <time>2014-03-23T10:30:06Z</time>
      </trkpt>
      <trkpt lat="46.86966" lon="4.72203">
        <ele>302.95</ele>
        <time>2014-03-23T10:30:15Z</time>
      </trkpt>
      <trkpt lat="46.86949" lon="4.72189">
        <ele>304.35</ele>
        <time>2014-03-23T10:30:24Z</time>
      </trkpt>
      <trkpt lat="46.86932" lon="4.72175">
        <ele>305.44</ele>
        <time>2014-03-23T10:30:34Z</time>
      </trkpt>
      <trkpt lat="46.86916" lon="4.72161">
        <ele>306.22</ele>
        <time>2014-03-23T10:30:42Z</time>
      </trkpt>
      <trkpt lat="46.86898" lon="4.72149">
        <ele>307.71</ele>
        <time>2014-03-23T10:30:51Z</time>
      </trkpt>
      <trkpt lat="46.86881" lon="4.7214">
        <ele>308.19</ele>
        <time>2014-03-23T10:31:00Z</time>
      </trkpt>
      <trkpt lat="46.86861" lon="4.72133">
        <ele>307.67</ele>
        <time>2014-03-23T10:31:08Z</time>
      </trkpt>
      <trkpt lat="46.86842" lon="4.7213">
        <ele>307.03</ele>
        <time>2014-03-23T10:31:14Z</time>
      </trkpt>
      <trkpt lat="46.86824" lon="4.7212">
        <ele>305.76</ele>
        <time>2014-03-23T10:31:20Z</time>
      </trkpt>
      <trkpt lat="46.86807" lon="4.7211">
        <ele>304.94</ele>
        <time>2014-03-23T10:31:25Z</time>
      </trkpt>
      <trkpt lat="46.86788" lon="4.72096">
        <ele>304.16</ele>
        <time>2014-03-23T10:31:29Z</time>
      </trkpt>
      <trkpt lat="46.86765" lon="4.72086">
        <ele>303.02</ele>
        <time>2014-03-23T10:31:33Z</time>
      </trkpt>
      <trkpt lat="46.86742" lon="4.72081">
        <ele>301.31</ele>
        <time>2014-03-23T10:31:36Z</time>
      </trkpt>
      <trkpt lat="46.8672" lon="4.7208">
        <ele>299.56</ele>
        <time>2014-03-23T10:31:39Z</time>
      </trkpt>
      <trkpt lat="46.86699" lon="4.72076">
        <ele>298.4</ele>
        <time>2014-03-23T10:31:42Z</time>
      </trkpt>
      <trkpt lat="46.86677" lon="4.72072">
        <ele>297.63</ele>
        <time>2014-03-23T10:31:45Z</time>
      </trkpt>
      <trkpt lat="46.86655" lon="4.7207">
        <ele>296.86</ele>
        <time>2014-03-23T10:31:48Z</time>
      </trkpt>
      <trkpt lat="46.86631" lon="4.72069">
        <ele>296.01</ele>
        <time>2014-03-23T10:31:51Z</time>
      </trkpt>
      <trkpt lat="46.86607" lon="4.72066">
        <ele>294.92</ele>
        <time>2014-03-23T10:31:54Z</time>
      </trkpt>
      <trkpt lat="46.86582" lon="4.72061">
        <ele>293.2</ele>
        <time>2014-03-23T10:31:57Z</time>
      </trkpt>
      <trkpt lat="46.86558" lon="4.72055">
        <ele>289.74</ele>
        <time>2014-03-23T10:32:00Z</time>
      </trkpt>
      <trkpt lat="46.86535" lon="4.72044">
        <ele>286.29</ele>
        <time>2014-03-23T10:32:03Z</time>
      </trkpt>
      <trkpt lat="46.86516" lon="4.72032">
        <ele>284.84</ele>
        <time>2014-03-23T10:32:06Z</time>
      </trkpt>
      <trkpt lat="46.86499" lon="4.72018">
        <ele>284.06</ele>
        <time>2014-03-23T10:32:09Z</time>
      </trkpt>
      <trkpt lat="46.86478" lon="4.72002">
        <ele>282.3</ele>
        <time>2014-03-23T10:32:13Z</time>
      </trkpt>
      <trkpt lat="46.86456" lon="4.71989">
        <ele>280.76</ele>
        <time>2014-03-23T10:32:17Z</time>
      </trkpt>
      <trkpt lat="46.8644" lon="4.71977">
        <ele>280.11</ele>
        <time>2014-03-23T10:32:20Z</time>
      </trkpt>
      <trkpt lat="46.86421" lon="4.71962">
        <ele>279.86</ele>
        <time>2014-03-23T10:32:24Z</time>
      </trkpt>
      <trkpt lat="46.86404" lon="4.71949">
        <ele>279.39</ele>
        <time>2014-03-23T10:32:28Z</time>
      </trkpt>
      <trkpt lat="46.86387" lon="4.71933">
        <ele>279.46</ele>
        <time>2014-03-23T10:32:32Z</time>
      </trkpt>
      <trkpt lat="46.8637" lon="4.71914">
        <ele>279.22</ele>
        <time>2014-03-23T10:32:36Z</time>
      </trkpt>
      <trkpt lat="46.86354" lon="4.71896">
        <ele>279.38</ele>
        <time>2014-03-23T10:32:40Z</time>
      </trkpt>
      <trkpt lat="46.86333" lon="4.7188">
        <ele>279.14</ele>
        <time>2014-03-23T10:32:44Z</time>
      </trkpt>
      <trkpt lat="46.86311" lon="4.71875">
        <ele>278.03</ele>
        <time>2014-03-23T10:32:48Z</time>
      </trkpt>
      <trkpt lat="46.86289" lon="4.71872">
        <ele>276.82</ele>
        <time>2014-03-23T10:32:52Z</time>
      </trkpt>
      <trkpt lat="46.86269" lon="4.71868">
        <ele>275.95</ele>
        <time>2014-03-23T10:32:55Z</time>
      </trkpt>
      <trkpt lat="46.86246" lon="4.71861">
        <ele>275.21</ele>
        <time>2014-03-23T10:32:58Z</time>
      </trkpt>
      <trkpt lat="46.86222" lon="4.71853">
        <ele>274.18</ele>
        <time>2014-03-23T10:33:01Z</time>
      </trkpt>
      <trkpt lat="46.86196" lon="4.71845">
        <ele>273.42</ele>
        <time>2014-03-23T10:33:04Z</time>
      </trkpt>
      <trkpt lat="46.8617" lon="4.71837">
        <ele>272.25</ele>
        <time>2014-03-23T10:33:07Z</time>
      </trkpt>
      <trkpt lat="46.86146" lon="4.71829">
        <ele>270.95</ele>
        <time>2014-03-23T10:33:10Z</time>
      </trkpt>
      <trkpt lat="46.86122" lon="4.71822">
        <ele>269.86</ele>
        <time>2014-03-23T10:33:13Z</time>
      </trkpt>
      <trkpt lat="46.86099" lon="4.71816">
        <ele>268.76</ele>
        <time>2014-03-23T10:33:16Z</time>
      </trkpt>
      <trkpt lat="46.86077" lon="4.71814">
        <ele>267.39</ele>
        <time>2014-03-23T10:33:19Z</time>
      </trkpt>
      <trkpt lat="46.86056" lon="4.71811">
        <ele>265.84</ele>
        <time>2014-03-23T10:33:22Z</time>
      </trkpt>
      <trkpt lat="46.86037" lon="4.71798">
        <ele>264.26</ele>
        <time>2014-03-23T10:33:25Z</time>
      </trkpt>
      <trkpt lat="46.86019" lon="4.71787">
        <ele>262.68</ele>
        <time>2014-03-23T10:33:28Z</time>
      </trkpt>
      <trkpt lat="46.86007" lon="4.71761">
        <ele>259.94</ele>
        <time>2014-03-23T10:33:33Z</time>
      </trkpt>
      <trkpt lat="46.85997" lon="4.71732">
        <ele>258.22</ele>
        <time>2014-03-23T10:33:37Z</time>
      </trkpt>
      <trkpt lat="46.85989" lon="4.71706">
        <ele>256.01</ele>
        <time>2014-03-23T10:33:40Z</time>
      </trkpt>
      <trkpt lat="46.85987" lon="4.71669">
        <ele>253.36</ele>
        <time>2014-03-23T10:33:43Z</time>
      </trkpt>
      <trkpt lat="46.85983" lon="4.71641">
        <ele>251.51</ele>
        <time>2014-03-23T10:33:45Z</time>
      </trkpt>
      <trkpt lat="46.85978" lon="4.71612">
        <ele>249.5</ele>
        <time>2014-03-23T10:33:47Z</time>
      </trkpt>
      <trkpt lat="46.85973" lon="4.71585">
        <ele>247.47</ele>
        <time>2014-03-23T10:33:49Z</time>
      </trkpt>
      <trkpt lat="46.85962" lon="4.71553">
        <ele>245.13</ele>
        <time>2014-03-23T10:33:52Z</time>
      </trkpt>
      <trkpt lat="46.85947" lon="4.71529">
        <ele>243.05</ele>
        <time>2014-03-23T10:33:55Z</time>
      </trkpt>
      <trkpt lat="46.85939" lon="4.71501">
        <ele>241.43</ele>
        <time>2014-03-23T10:33:59Z</time>
      </trkpt>
      <trkpt lat="46.85933" lon="4.71471">
        <ele>240.1</ele>
        <time>2014-03-23T10:34:04Z</time>
      </trkpt>
      <trkpt lat="46.85929" lon="4.71444">
        <ele>240.9</ele>
        <time>2014-03-23T10:34:09Z</time>
      </trkpt>
      <trkpt lat="46.85927" lon="4.71412">
        <ele>243.14</ele>
        <time>2014-03-23T10:34:15Z</time>
      </trkpt>
      <trkpt lat="46.85924" lon="4.71381">
        <ele>244.75</ele>
        <time>2014-03-23T10:34:21Z</time>
      </trkpt>
      <trkpt lat="46.85927" lon="4.71352">
        <ele>245.3</ele>
        <time>2014-03-23T10:34:25Z</time>
      </trkpt>
      <trkpt lat="46.85929" lon="4.71321">
        <ele>245.18</ele>
        <time>2014-03-23T10:34:29Z</time>
      </trkpt>
      <trkpt lat="46.85932" lon="4.71293">
        <ele>245.05</ele>
        <time>2014-03-23T10:34:32Z</time>
      </trkpt>
      <trkpt lat="46.85929" lon="4.71262">
        <ele>245.29</ele>
        <time>2014-03-23T10:34:35Z</time>
      </trkpt>
      <trkpt lat="46.85916" lon="4.71238">
        <ele>246.27</ele>
        <time>2014-03-23T10:34:39Z</time>
      </trkpt>
      <trkpt lat="46.85895" lon="4.71225">
        <ele>246.35</ele>
        <time>2014-03-23T10:34:43Z</time>
      </trkpt>
      <trkpt lat="46.85871" lon="4.71223">
        <ele>246.18</ele>
        <time>2014-03-23T10:34:47Z</time>
      </trkpt>
      <trkpt lat="46.85849" lon="4.71225">
        <ele>245.18</ele>
        <time>2014-03-23T10:34:50Z</time>
      </trkpt>
      <trkpt lat="46.85825" lon="4.71232">
        <ele>244.42</ele>
        <time>2014-03-23T10:34:53Z</time>
      </trkpt>
      <trkpt lat="46.858" lon="4.71236">
        <ele>243.21</ele>
        <time>2014-03-23T10:34:56Z</time>
      </trkpt>
      <trkpt lat="46.85781" lon="4.71244">
        <ele>242.74</ele>
        <time>2014-03-23T10:34:59Z</time>
      </trkpt>
      <trkpt lat="46.85767" lon="4.71263">
        <ele>242.7</ele>
        <time>2014-03-23T10:35:02Z</time>
      </trkpt>
      <trkpt lat="46.85756" lon="4.71294">
        <ele>241.74</ele>
        <time>2014-03-23T10:35:05Z</time>
      </trkpt>
      <trkpt lat="46.85739" lon="4.71326">
        <ele>239.47</ele>
        <time>2014-03-23T10:35:08Z</time>
      </trkpt>
      <trkpt lat="46.85724" lon="4.71342">
        <ele>237.49</ele>
        <time>2014-03-23T10:35:10Z</time>
      </trkpt>
      <trkpt lat="46.85708" lon="4.71363">
        <ele>235.09</ele>
        <time>2014-03-23T10:35:12Z</time>
      </trkpt>
      <trkpt lat="46.85689" lon="4.71384">
        <ele>232.59</ele>
        <time>2014-03-23T10:35:14Z</time>
      </trkpt>
      <trkpt lat="46.85674" lon="4.71403">
        <ele>230.42</ele>
        <time>2014-03-23T10:35:16Z</time>
      </trkpt>
      <trkpt lat="46.85661" lon="4.71422">
        <ele>228.75</ele>
        <time>2014-03-23T10:35:18Z</time>
      </trkpt>
      <trkpt lat="46.85645" lon="4.7144">
        <ele>226.51</ele>
        <time>2014-03-23T10:35:20Z</time>
      </trkpt>
      <trkpt lat="46.85631" lon="4.7146">
        <ele>224.7</ele>
        <time>2014-03-23T10:35:22Z</time>
      </trkpt>
      <trkpt lat="46.85613" lon="4.71487">
        <ele>222.31</ele>
        <time>2014-03-23T10:35:25Z</time>
      </trkpt>
      <trkpt lat="46.85598" lon="4.71508">
        <ele>219.18</ele>
        <time>2014-03-23T10:35:29Z</time>
      </trkpt>
      <trkpt lat="46.85583" lon="4.71484">
        <ele>216.73</ele>
        <time>2014-03-23T10:35:34Z</time>
      </trkpt>
      <trkpt lat="46.8557" lon="4.71461">
        <ele>215.08</ele>
        <time>2014-03-23T10:35:38Z</time>
      </trkpt>
      <trkpt lat="46.85554" lon="4.71434">
        <ele>213.49</ele>
        <time>2014-03-23T10:35:42Z</time>
      </trkpt>
      <trkpt lat="46.85538" lon="4.71416">
        <ele>212.21</ele>
        <time>2014-03-23T10:35:45Z</time>
      </trkpt>
      <trkpt lat="46.85521" lon="4.71406">
        <ele>210.99</ele>
        <time>2014-03-23T10:35:48Z</time>
      </trkpt>
      <trkpt lat="46.855" lon="4.71406">
        <ele>209.19</ele>
        <time>2014-03-23T10:35:52Z</time>
      </trkpt>
      <trkpt lat="46.85488" lon="4.71428">
        <ele>207.96</ele>
        <time>2014-03-23T10:35:56Z</time>
      </trkpt>
      <trkpt lat="46.85468" lon="4.71434">
        <ele>207.71</ele>
        <time>2014-03-23T10:35:59Z</time>
      </trkpt>
      <trkpt lat="46.8545" lon="4.71415">
        <ele>207.83</ele>
        <time>2014-03-23T10:36:03Z</time>
      </trkpt>
      <trkpt lat="46.8544" lon="4.71387">
        <ele>208.68</ele>
        <time>2014-03-23T10:36:08Z</time>
      </trkpt>
      <trkpt lat="46.85438" lon="4.71359">
        <ele>209.13</ele>
        <time>2014-03-23T10:36:13Z</time>
      </trkpt>
      <trkpt lat="46.85436" lon="4.7133">
        <ele>210.33</ele>
        <time>2014-03-23T10:36:20Z</time>
      </trkpt>
      <trkpt lat="46.85419" lon="4.71318">
        <ele>211.38</ele>
        <time>2014-03-23T10:36:24Z</time>
      </trkpt>
      <trkpt lat="46.85401" lon="4.71323">
        <ele>210.72</ele>
        <time>2014-03-23T10:36:26Z</time>
      </trkpt>
      <trkpt lat="46.85383" lon="4.71331">
        <ele>210.05</ele>
        <time>2014-03-23T10:36:29Z</time>
      </trkpt>
      <trkpt lat="46.85365" lon="4.71338">
        <ele>208.11</ele>
        <time>2014-03-23T10:36:37Z</time>
      </trkpt>
      <trkpt lat="46.85353" lon="4.7136">
        <ele>207.98</ele>
        <time>2014-03-23T10:36:50Z</time>
      </trkpt>
      <trkpt lat="46.85342" lon="4.71383">
        <ele>209.94</ele>
        <time>2014-03-23T10:37:03Z</time>
      </trkpt>
      <trkpt lat="46.85332" lon="4.71407">
        <ele>215.02</ele>
        <time>2014-03-23T10:37:17Z</time>
      </trkpt>
      <trkpt lat="46.85324" lon="4.71432">
        <ele>220.62</ele>
        <time>2014-03-23T10:37:33Z</time>
      </trkpt>
      <trkpt lat="46.85321" lon="4.71458">
        <ele>224.42</ele>
        <time>2014-03-23T10:37:43Z</time>
      </trkpt>
      <trkpt lat="46.85319" lon="4.71431">
        <ele>226.99</ele>
        <time>2014-03-23T10:38:18Z</time>
      </trkpt>
      <trkpt lat="46.85304" lon="4.71413">
        <ele>228.06</ele>
        <time>2014-03-23T10:38:30Z</time>
      </trkpt>
      <trkpt lat="46.85288" lon="4.71402">
        <ele>229.38</ele>
        <time>2014-03-23T10:38:43Z</time>
      </trkpt>
      <trkpt lat="46.85279" lon="4.71379">
        <ele>231.11</ele>
        <time>2014-03-23T10:38:57Z</time>
      </trkpt>
      <trkpt lat="46.85276" lon="4.71351">
        <ele>232.02</ele>
        <time>2014-03-23T10:39:09Z</time>
      </trkpt>
      <trkpt lat="46.85261" lon="4.71338">
        <ele>233.41</ele>
        <time>2014-03-23T10:39:20Z</time>
      </trkpt>
      <trkpt lat="46.85244" lon="4.71327">
        <ele>235.75</ele>
        <time>2014-03-23T10:39:34Z</time>
      </trkpt>
      <trkpt lat="46.85226" lon="4.71325">
        <ele>238.47</ele>
        <time>2014-03-23T10:39:54Z</time>
      </trkpt>
      <trkpt lat="46.85215" lon="4.71347">
        <ele>243.91</ele>
        <time>2014-03-23T10:40:13Z</time>
      </trkpt>
      <trkpt lat="46.85211" lon="4.71376">
        <ele>247.22</ele>
        <time>2014-03-23T10:40:25Z</time>
      </trkpt>
      <trkpt lat="46.8521" lon="4.71403">
        <ele>249.58</ele>
        <time>2014-03-23T10:40:32Z</time>
      </trkpt>
      <trkpt lat="46.85214" lon="4.71434">
        <ele>252.1</ele>
        <time>2014-03-23T10:40:40Z</time>
      </trkpt>
      <trkpt lat="46.8522" lon="4.71463">
        <ele>255.25</ele>
        <time>2014-03-23T10:40:48Z</time>
      </trkpt>
      <trkpt lat="46.85226" lon="4.71492">
        <ele>258.95</ele>
        <time>2014-03-23T10:40:56Z</time>
      </trkpt>
      <trkpt lat="46.85227" lon="4.71521">
        <ele>264.52</ele>
        <time>2014-03-23T10:41:07Z</time>
      </trkpt>
      <trkpt lat="46.85233" lon="4.71546">
        <ele>267.71</ele>
        <time>2014-03-23T10:41:14Z</time>
      </trkpt>
      <trkpt lat="46.85239" lon="4.71572">
        <ele>270.37</ele>
        <time>2014-03-23T10:41:20Z</time>
      </trkpt>
      <trkpt lat="46.85245" lon="4.71599">
        <ele>273.22</ele>
        <time>2014-03-23T10:41:25Z</time>
      </trkpt>
      <trkpt lat="46.85252" lon="4.71627">
        <ele>275.75</ele>
        <time>2014-03-23T10:41:28Z</time>
      </trkpt>
      <trkpt lat="46.85258" lon="4.71654">
        <ele>279.16</ele>
        <time>2014-03-23T10:41:33Z</time>
      </trkpt>
      <trkpt lat="46.85183" lon="4.71821">
        <ele>286.54</ele>
        <time>2014-03-23T10:45:18Z</time>
      </trkpt>
      <trkpt lat="46.8517" lon="4.71883">
        <ele>289.72</ele>
        <time>2014-03-23T10:45:19Z</time>
      </trkpt>
      <trkpt lat="46.85155" lon="4.71901">
        <ele>291.9</ele>
        <time>2014-03-23T10:45:21Z</time>
      </trkpt>
      <trkpt lat="46.85142" lon="4.7192">
        <ele>298.73</ele>
        <time>2014-03-23T10:45:27Z</time>
      </trkpt>
      <trkpt lat="46.8513" lon="4.71944">
        <ele>301.81</ele>
        <time>2014-03-23T10:45:35Z</time>
      </trkpt>
      <trkpt lat="46.85126" lon="4.71971">
        <ele>304.84</ele>
        <time>2014-03-23T10:45:44Z</time>
      </trkpt>
      <trkpt lat="46.85127" lon="4.71999">
        <ele>308.33</ele>
        <time>2014-03-23T10:45:52Z</time>
      </trkpt>
      <trkpt lat="46.85126" lon="4.72026">
        <ele>308.35</ele>
        <time>2014-03-23T10:46:01Z</time>
      </trkpt>
      <trkpt lat="46.8512" lon="4.72054">
        <ele>308.52</ele>
        <time>2014-03-23T10:46:09Z</time>
      </trkpt>
      <trkpt lat="46.85114" lon="4.72079">
        <ele>308.15</ele>
        <time>2014-03-23T10:46:17Z</time>
      </trkpt>
      <trkpt lat="46.85109" lon="4.72105">
        <ele>308.27</ele>
        <time>2014-03-23T10:46:26Z</time>
      </trkpt>
      <trkpt lat="46.85103" lon="4.7213">
        <ele>305.3</ele>
        <time>2014-03-23T10:46:39Z</time>
      </trkpt>
      <trkpt lat="46.85097" lon="4.72157">
        <ele>299.44</ele>
        <time>2014-03-23T10:46:51Z</time>
      </trkpt>
      <trkpt lat="46.85099" lon="4.72184">
        <ele>287.44</ele>
        <time>2014-03-23T10:46:56Z</time>
      </trkpt>
      <trkpt lat="46.85085" lon="4.72201">
        <ele>276.93</ele>
        <time>2014-03-23T10:47:07Z</time>
      </trkpt>
      <trkpt lat="46.85066" lon="4.72197">
        <ele>274.48</ele>
        <time>2014-03-23T10:47:17Z</time>
      </trkpt>
      <trkpt lat="46.85048" lon="4.72197">
        <ele>272.79</ele>
        <time>2014-03-23T10:47:29Z</time>
      </trkpt>
      <trkpt lat="46.85032" lon="4.72185">
        <ele>269.95</ele>
        <time>2014-03-23T10:49:15Z</time>
      </trkpt>
      <trkpt lat="46.85012" lon="4.72177">
        <ele>269.6</ele>
        <time>2014-03-23T10:49:23Z</time>
      </trkpt>
      <trkpt lat="46.84994" lon="4.7217">
        <ele>270.14</ele>
        <time>2014-03-23T10:49:30Z</time>
      </trkpt>
      <trkpt lat="46.84974" lon="4.72158">
        <ele>270.08</ele>
        <time>2014-03-23T10:49:37Z</time>
      </trkpt>
      <trkpt lat="46.84956" lon="4.7215">
        <ele>270.2</ele>
        <time>2014-03-23T10:49:43Z</time>
      </trkpt>
      <trkpt lat="46.84936" lon="4.72145">
        <ele>270.26</ele>
        <time>2014-03-23T10:49:49Z</time>
      </trkpt>
      <trkpt lat="46.84916" lon="4.72141">
        <ele>270.71</ele>
        <time>2014-03-23T10:49:55Z</time>
      </trkpt>
      <trkpt lat="46.84899" lon="4.72132">
        <ele>270.4</ele>
        <time>2014-03-23T10:50:00Z</time>
      </trkpt>
      <trkpt lat="46.84878" lon="4.72122">
        <ele>270.51</ele>
        <time>2014-03-23T10:50:05Z</time>
      </trkpt>
      <trkpt lat="46.84861" lon="4.72112">
        <ele>271.06</ele>
        <time>2014-03-23T10:50:10Z</time>
      </trkpt>
      <trkpt lat="46.84844" lon="4.72101">
        <ele>271.5</ele>
        <time>2014-03-23T10:50:15Z</time>
      </trkpt>
      <trkpt lat="46.84827" lon="4.72091">
        <ele>272.78</ele>
        <time>2014-03-23T10:50:21Z</time>
      </trkpt>
      <trkpt lat="46.8481" lon="4.72084">
        <ele>273.61</ele>
        <time>2014-03-23T10:50:27Z</time>
      </trkpt>
      <trkpt lat="46.84802" lon="4.72109">
        <ele>280.04</ele>
        <time>2014-03-23T10:50:42Z</time>
      </trkpt>
      <trkpt lat="46.84815" lon="4.72134">
        <ele>280.25</ele>
        <time>2014-03-23T10:50:48Z</time>
      </trkpt>
      <trkpt lat="46.84826" lon="4.72158">
        <ele>279.61</ele>
        <time>2014-03-23T10:50:53Z</time>
      </trkpt>
      <trkpt lat="46.84837" lon="4.72186">
        <ele>279.34</ele>
        <time>2014-03-23T10:50:58Z</time>
      </trkpt>
      <trkpt lat="46.84847" lon="4.72213">
        <ele>278.68</ele>
        <time>2014-03-23T10:51:02Z</time>
      </trkpt>
      <trkpt lat="46.84859" lon="4.72239">
        <ele>277.23</ele>
        <time>2014-03-23T10:51:06Z</time>
      </trkpt>
      <trkpt lat="46.8487" lon="4.72264">
        <ele>275.95</ele>
        <time>2014-03-23T10:51:10Z</time>
      </trkpt>
      <trkpt lat="46.84872" lon="4.72291">
        <ele>275.23</ele>
        <time>2014-03-23T10:51:14Z</time>
      </trkpt>
      <trkpt lat="46.84871" lon="4.72318">
        <ele>274.55</ele>
        <time>2014-03-23T10:51:18Z</time>
      </trkpt>
      <trkpt lat="46.84872" lon="4.72348">
        <ele>274.82</ele>
        <time>2014-03-23T10:51:22Z</time>
      </trkpt>
      <trkpt lat="46.84872" lon="4.72379">
        <ele>275.04</ele>
        <time>2014-03-23T10:51:26Z</time>
      </trkpt>
      <trkpt lat="46.84872" lon="4.72406">
        <ele>275.07</ele>
        <time>2014-03-23T10:51:29Z</time>
      </trkpt>
      <trkpt lat="46.84874" lon="4.72433">
        <ele>274.82</ele>
        <time>2014-03-23T10:51:32Z</time>
      </trkpt>
      <trkpt lat="46.84874" lon="4.72461">
        <ele>274.36</ele>
        <time>2014-03-23T10:51:35Z</time>
      </trkpt>
      <trkpt lat="46.84868" lon="4.72492">
        <ele>273.28</ele>
        <time>2014-03-23T10:51:39Z</time>
      </trkpt>
      <trkpt lat="46.84859" lon="4.72521">
        <ele>273.13</ele>
        <time>2014-03-23T10:51:43Z</time>
      </trkpt>
      <trkpt lat="46.8485" lon="4.7255">
        <ele>273.11</ele>
        <time>2014-03-23T10:51:47Z</time>
      </trkpt>
      <trkpt lat="46.8484" lon="4.72575">
        <ele>273.46</ele>
        <time>2014-03-23T10:51:51Z</time>
      </trkpt>
      <trkpt lat="46.84831" lon="4.72602">
        <ele>274.02</ele>
        <time>2014-03-23T10:51:58Z</time>
      </trkpt>
      <trkpt lat="46.84824" lon="4.72629">
        <ele>274.83</ele>
        <time>2014-03-23T10:52:04Z</time>
      </trkpt>
      <trkpt lat="46.84814" lon="4.72654">
        <ele>275.71</ele>
        <time>2014-03-23T10:52:08Z</time>
      </trkpt>
      <trkpt lat="46.84804" lon="4.72683">
        <ele>276.42</ele>
        <time>2014-03-23T10:52:12Z</time>
      </trkpt>
      <trkpt lat="46.84796" lon="4.72709">
        <ele>277.33</ele>
        <time>2014-03-23T10:52:17Z</time>
      </trkpt>
      <trkpt lat="46.84787" lon="4.72734">
        <ele>278.68</ele>
        <time>2014-03-23T10:52:24Z</time>
      </trkpt>
      <trkpt lat="46.84778" lon="4.72757">
        <ele>279.17</ele>
        <time>2014-03-23T10:52:31Z</time>
      </trkpt>
      <trkpt lat="46.84768" lon="4.72779">
        <ele>281.53</ele>
        <time>2014-03-23T10:52:40Z</time>
      </trkpt>
      <trkpt lat="46.84748" lon="4.72787">
        <ele>282.93</ele>
        <time>2014-03-23T10:52:49Z</time>
      </trkpt>
      <trkpt lat="46.84729" lon="4.72795">
        <ele>285.05</ele>
        <time>2014-03-23T10:52:59Z</time>
      </trkpt>
      <trkpt lat="46.8471" lon="4.72799">
        <ele>286.43</ele>
        <time>2014-03-23T10:53:07Z</time>
      </trkpt>
      <trkpt lat="46.84691" lon="4.72807">
        <ele>286.49</ele>
        <time>2014-03-23T10:53:13Z</time>
      </trkpt>
      <trkpt lat="46.84671" lon="4.72809">
        <ele>286.6</ele>
        <time>2014-03-23T10:53:19Z</time>
      </trkpt>
      <trkpt lat="46.8465" lon="4.72815">
        <ele>287.08</ele>
        <time>2014-03-23T10:53:22Z</time>
      </trkpt>
      <trkpt lat="46.84628" lon="4.72823">
        <ele>287.97</ele>
        <time>2014-03-23T10:53:25Z</time>
      </trkpt>
      <trkpt lat="46.84611" lon="4.72836">
        <ele>288.54</ele>
        <time>2014-03-23T10:53:30Z</time>
      </trkpt>
      <trkpt lat="46.8459" lon="4.72848">
        <ele>287.51</ele>
        <time>2014-03-23T10:53:36Z</time>
      </trkpt>
      <trkpt lat="46.84568" lon="4.72859">
        <ele>285.6</ele>
        <time>2014-03-23T10:53:40Z</time>
      </trkpt>
      <trkpt lat="46.8455" lon="4.72868">
        <ele>284.37</ele>
        <time>2014-03-23T10:53:43Z</time>
      </trkpt>
      <trkpt lat="46.8453" lon="4.72875">
        <ele>283.65</ele>
        <time>2014-03-23T10:53:46Z</time>
      </trkpt>
      <trkpt lat="46.84511" lon="4.72893">
        <ele>282.63</ele>
        <time>2014-03-23T10:53:50Z</time>
      </trkpt>
      <trkpt lat="46.84497" lon="4.7291">
        <ele>281.55</ele>
        <time>2014-03-23T10:53:53Z</time>
      </trkpt>
      <trkpt lat="46.84474" lon="4.7293">
        <ele>280.2</ele>
        <time>2014-03-23T10:53:57Z</time>
      </trkpt>
      <trkpt lat="46.84453" lon="4.72951">
        <ele>279.22</ele>
        <time>2014-03-23T10:54:00Z</time>
      </trkpt>
      <trkpt lat="46.84433" lon="4.72973">
        <ele>278.5</ele>
        <time>2014-03-23T10:54:03Z</time>
      </trkpt>
      <trkpt lat="46.84417" lon="4.73">
        <ele>278.14</ele>
        <time>2014-03-23T10:54:06Z</time>
      </trkpt>
      <trkpt lat="46.844" lon="4.73027">
        <ele>278.09</ele>
        <time>2014-03-23T10:54:09Z</time>
      </trkpt>
      <trkpt lat="46.84383" lon="4.73052">
        <ele>278.4</ele>
        <time>2014-03-23T10:54:12Z</time>
      </trkpt>
      <trkpt lat="46.84366" lon="4.73075">
        <ele>279.47</ele>
        <time>2014-03-23T10:54:15Z</time>
      </trkpt>
      <trkpt lat="46.84354" lon="4.73098">
        <ele>280.29</ele>
        <time>2014-03-23T10:54:18Z</time>
      </trkpt>
      <trkpt lat="46.84334" lon="4.73119">
        <ele>280.79</ele>
        <time>2014-03-23T10:54:22Z</time>
      </trkpt>
      <trkpt lat="46.84316" lon="4.73143">
        <ele>281.92</ele>
        <time>2014-03-23T10:54:26Z</time>
      </trkpt>
      <trkpt lat="46.84302" lon="4.73164">
        <ele>282.96</ele>
        <time>2014-03-23T10:54:29Z</time>
      </trkpt>
      <trkpt lat="46.84289" lon="4.73185">
        <ele>284.23</ele>
        <time>2014-03-23T10:54:32Z</time>
      </trkpt>
      <trkpt lat="46.84273" lon="4.7321">
        <ele>286.45</ele>
        <time>2014-03-23T10:54:36Z</time>
      </trkpt>
      <trkpt lat="46.84275" lon="4.73239">
        <ele>289.76</ele>
        <time>2014-03-23T10:54:39Z</time>
      </trkpt>
      <trkpt lat="46.84284" lon="4.73265">
        <ele>294.14</ele>
        <time>2014-03-23T10:54:57Z</time>
      </trkpt>
      <trkpt lat="46.84293" lon="4.73293">
        <ele>294.16</ele>
        <time>2014-03-23T10:55:02Z</time>
      </trkpt>
      <trkpt lat="46.8431" lon="4.73316">
        <ele>293.43</ele>
        <time>2014-03-23T10:55:06Z</time>
      </trkpt>
      <trkpt lat="46.84313" lon="4.73342">
        <ele>293</ele>
        <time>2014-03-23T10:55:11Z</time>
      </trkpt>
      <trkpt lat="46.84301" lon="4.73365">
        <ele>293</ele>
        <time>2014-03-23T10:55:17Z</time>
      </trkpt>
      <trkpt lat="46.84291" lon="4.73387">
        <ele>293.12</ele>
        <time>2014-03-23T10:55:22Z</time>
      </trkpt>
      <trkpt lat="46.84278" lon="4.73409">
        <ele>293.33</ele>
        <time>2014-03-23T10:55:27Z</time>
      </trkpt>
      <trkpt lat="46.84269" lon="4.73432">
        <ele>293.63</ele>
        <time>2014-03-23T10:55:31Z</time>
      </trkpt>
      <trkpt lat="46.84257" lon="4.73457">
        <ele>293.99</ele>
        <time>2014-03-23T10:55:37Z</time>
      </trkpt>
      <trkpt lat="46.84244" lon="4.73478">
        <ele>294.26</ele>
        <time>2014-03-23T10:55:41Z</time>
      </trkpt>
      <trkpt lat="46.84229" lon="4.735">
        <ele>294.88</ele>
        <time>2014-03-23T10:55:45Z</time>
      </trkpt>
      <trkpt lat="46.84222" lon="4.73525">
        <ele>295.53</ele>
        <time>2014-03-23T10:55:50Z</time>
      </trkpt>
      <trkpt lat="46.84202" lon="4.73537">
        <ele>292.27</ele>
        <time>2014-03-23T10:55:57Z</time>
      </trkpt>
      <trkpt lat="46.84183" lon="4.73536">
        <ele>290.05</ele>
        <time>2014-03-23T10:56:00Z</time>
      </trkpt>
      <trkpt lat="46.84163" lon="4.73538">
        <ele>287.98</ele>
        <time>2014-03-23T10:56:02Z</time>
      </trkpt>
      <trkpt lat="46.84143" lon="4.73543">
        <ele>284.54</ele>
        <time>2014-03-23T10:56:04Z</time>
      </trkpt>
      <trkpt lat="46.84123" lon="4.73547">
        <ele>280.5</ele>
        <time>2014-03-23T10:56:06Z</time>
      </trkpt>
      <trkpt lat="46.84102" lon="4.73552">
        <ele>276.9</ele>
        <time>2014-03-23T10:56:08Z</time>
      </trkpt>
      <trkpt lat="46.84084" lon="4.73554">
        <ele>274.12</ele>
        <time>2014-03-23T10:56:10Z</time>
      </trkpt>
      <trkpt lat="46.84065" lon="4.73554">
        <ele>272.05</ele>
        <time>2014-03-23T10:56:12Z</time>
      </trkpt>
      <trkpt lat="46.84046" lon="4.73552">
        <ele>270.38</ele>
        <time>2014-03-23T10:56:14Z</time>
      </trkpt>
      <trkpt lat="46.84027" lon="4.7355">
        <ele>268.87</ele>
        <time>2014-03-23T10:56:16Z</time>
      </trkpt>
      <trkpt lat="46.84007" lon="4.73551">
        <ele>266.94</ele>
        <time>2014-03-23T10:56:18Z</time>
      </trkpt>
      <trkpt lat="46.83986" lon="4.73556">
        <ele>264.13</ele>
        <time>2014-03-23T10:56:20Z</time>
      </trkpt>
      <trkpt lat="46.83966" lon="4.73562">
        <ele>261.28</ele>
        <time>2014-03-23T10:56:22Z</time>
      </trkpt>
      <trkpt lat="46.83946" lon="4.73563">
        <ele>258.66</ele>
        <time>2014-03-23T10:56:24Z</time>
      </trkpt>
      <trkpt lat="46.83921" lon="4.73561">
        <ele>255.55</ele>
        <time>2014-03-23T10:56:27Z</time>
      </trkpt>
      <trkpt lat="46.83898" lon="4.73562">
        <ele>252.79</ele>
        <time>2014-03-23T10:56:30Z</time>
      </trkpt>
      <trkpt lat="46.83878" lon="4.73563">
        <ele>250.38</ele>
        <time>2014-03-23T10:56:33Z</time>
      </trkpt>
      <trkpt lat="46.83858" lon="4.73555">
        <ele>248.45</ele>
        <time>2014-03-23T10:56:36Z</time>
      </trkpt>
      <trkpt lat="46.8384" lon="4.73539">
        <ele>246.75</ele>
        <time>2014-03-23T10:56:39Z</time>
      </trkpt>
      <trkpt lat="46.83823" lon="4.73523">
        <ele>245</ele>
        <time>2014-03-23T10:56:42Z</time>
      </trkpt>
      <trkpt lat="46.83806" lon="4.73506">
        <ele>243.02</ele>
        <time>2014-03-23T10:56:45Z</time>
      </trkpt>
      <trkpt lat="46.83792" lon="4.73487">
        <ele>240.85</ele>
        <time>2014-03-23T10:56:48Z</time>
      </trkpt>
      <trkpt lat="46.83775" lon="4.73472">
        <ele>239.27</ele>
        <time>2014-03-23T10:56:51Z</time>
      </trkpt>
      <trkpt lat="46.83757" lon="4.73459">
        <ele>238</ele>
        <time>2014-03-23T10:56:54Z</time>
      </trkpt>
      <trkpt lat="46.83738" lon="4.73445">
        <ele>236.69</ele>
        <time>2014-03-23T10:56:57Z</time>
      </trkpt>
      <trkpt lat="46.83718" lon="4.7343">
        <ele>235.06</ele>
        <time>2014-03-23T10:57:00Z</time>
      </trkpt>
      <trkpt lat="46.83696" lon="4.73418">
        <ele>233.45</ele>
        <time>2014-03-23T10:57:03Z</time>
      </trkpt>
      <trkpt lat="46.83674" lon="4.7342">
        <ele>225.05</ele>
        <time>2014-03-23T10:57:07Z</time>
      </trkpt>
      <trkpt lat="46.83652" lon="4.73406">
        <ele>218.67</ele>
        <time>2014-03-23T10:57:10Z</time>
      </trkpt>
      <trkpt lat="46.83628" lon="4.73391">
        <ele>213.89</ele>
        <time>2014-03-23T10:57:13Z</time>
      </trkpt>
      <trkpt lat="46.83602" lon="4.73383">
        <ele>210.93</ele>
        <time>2014-03-23T10:57:16Z</time>
      </trkpt>
      <trkpt lat="46.83576" lon="4.73381">
        <ele>208.2</ele>
        <time>2014-03-23T10:57:19Z</time>
      </trkpt>
      <trkpt lat="46.83552" lon="4.7338">
        <ele>206.19</ele>
        <time>2014-03-23T10:57:22Z</time>
      </trkpt>
      <trkpt lat="46.83529" lon="4.7338">
        <ele>204.01</ele>
        <time>2014-03-23T10:57:25Z</time>
      </trkpt>
      <trkpt lat="46.83509" lon="4.7338">
        <ele>201.58</ele>
        <time>2014-03-23T10:57:28Z</time>
      </trkpt>
      <trkpt lat="46.8349" lon="4.73385">
        <ele>195.39</ele>
        <time>2014-03-23T10:57:34Z</time>
      </trkpt>
      <trkpt lat="46.83471" lon="4.73394">
        <ele>192.16</ele>
        <time>2014-03-23T10:57:38Z</time>
      </trkpt>
      <trkpt lat="46.83453" lon="4.73407">
        <ele>189.95</ele>
        <time>2014-03-23T10:57:42Z</time>
      </trkpt>
      <trkpt lat="46.83436" lon="4.73395">
        <ele>188.17</ele>
        <time>2014-03-23T10:57:46Z</time>
      </trkpt>
      <trkpt lat="46.83422" lon="4.73376">
        <ele>186.93</ele>
        <time>2014-03-23T10:57:49Z</time>
      </trkpt>
      <trkpt lat="46.83405" lon="4.73358">
        <ele>185.99</ele>
        <time>2014-03-23T10:57:53Z</time>
      </trkpt>
      <trkpt lat="46.83407" lon="4.73326">
        <ele>185.04</ele>
        <time>2014-03-23T10:58:00Z</time>
      </trkpt>
      <trkpt lat="46.83409" lon="4.73296">
        <ele>184.28</ele>
        <time>2014-03-23T10:58:04Z</time>
      </trkpt>
      <trkpt lat="46.8341" lon="4.7327">
        <ele>183.05</ele>
        <time>2014-03-23T10:58:07Z</time>
      </trkpt>
      <trkpt lat="46.83412" lon="4.73241">
        <ele>181.05</ele>
        <time>2014-03-23T10:58:10Z</time>
      </trkpt>
      <trkpt lat="46.83415" lon="4.73213">
        <ele>178.3</ele>
        <time>2014-03-23T10:58:13Z</time>
      </trkpt>
      <trkpt lat="46.83416" lon="4.73183">
        <ele>175.83</ele>
        <time>2014-03-23T10:58:18Z</time>
      </trkpt>
      <trkpt lat="46.83399" lon="4.73168">
        <ele>175.67</ele>
        <time>2014-03-23T10:58:22Z</time>
      </trkpt>
      <trkpt lat="46.83377" lon="4.73156">
        <ele>175.53</ele>
        <time>2014-03-23T10:58:26Z</time>
      </trkpt>
      <trkpt lat="46.83355" lon="4.73143">
        <ele>174.77</ele>
        <time>2014-03-23T10:58:30Z</time>
      </trkpt>
      <trkpt lat="46.83333" lon="4.73129">
        <ele>173.89</ele>
        <time>2014-03-23T10:58:34Z</time>
      </trkpt>
      <trkpt lat="46.83316" lon="4.7312">
        <ele>173.56</ele>
        <time>2014-03-23T10:58:37Z</time>
      </trkpt>
      <trkpt lat="46.83294" lon="4.73108">
        <ele>172.79</ele>
        <time>2014-03-23T10:58:41Z</time>
      </trkpt>
      <trkpt lat="46.83274" lon="4.73093">
        <ele>172.11</ele>
        <time>2014-03-23T10:58:45Z</time>
      </trkpt>
      <trkpt lat="46.83254" lon="4.73082">
        <ele>171.98</ele>
        <time>2014-03-23T10:58:49Z</time>
      </trkpt>
      <trkpt lat="46.83236" lon="4.73066">
        <ele>172.15</ele>
        <time>2014-03-23T10:58:53Z</time>
      </trkpt>
      <trkpt lat="46.83218" lon="4.73048">
        <ele>172.24</ele>
        <time>2014-03-23T10:58:57Z</time>
      </trkpt>
      <trkpt lat="46.832" lon="4.73035">
        <ele>172.48</ele>
        <time>2014-03-23T10:59:01Z</time>
      </trkpt>
      <trkpt lat="46.83182" lon="4.73021">
        <ele>172.76</ele>
        <time>2014-03-23T10:59:05Z</time>
      </trkpt>
      <trkpt lat="46.83164" lon="4.73026">
        <ele>173.05</ele>
        <time>2014-03-23T10:59:10Z</time>
      </trkpt>
      <trkpt lat="46.8315" lon="4.73047">
        <ele>174.43</ele>
        <time>2014-03-23T10:59:17Z</time>
      </trkpt>
      <trkpt lat="46.83132" lon="4.73038">
        <ele>174.91</ele>
        <time>2014-03-23T10:59:22Z</time>
      </trkpt>
      <trkpt lat="46.83116" lon="4.73021">
        <ele>174.83</ele>
        <time>2014-03-23T10:59:26Z</time>
      </trkpt>
      <trkpt lat="46.83111" lon="4.7299">
        <ele>174.33</ele>
        <time>2014-03-23T10:59:31Z</time>
      </trkpt>
      <trkpt lat="46.83108" lon="4.7296">
        <ele>174.66</ele>
        <time>2014-03-23T10:59:35Z</time>
      </trkpt>
      <trkpt lat="46.83094" lon="4.72937">
        <ele>174.85</ele>
        <time>2014-03-23T10:59:38Z</time>
      </trkpt>
      <trkpt lat="46.83076" lon="4.72924">
        <ele>173.64</ele>
        <time>2014-03-23T10:59:41Z</time>
      </trkpt>
      <trkpt lat="46.83057" lon="4.72911">
        <ele>172.66</ele>
        <time>2014-03-23T10:59:44Z</time>
      </trkpt>
      <trkpt lat="46.83042" lon="4.72896">
        <ele>171.96</ele>
        <time>2014-03-23T10:59:47Z</time>
      </trkpt>
      <trkpt lat="46.83023" lon="4.72876">
        <ele>170.74</ele>
        <time>2014-03-23T10:59:51Z</time>
      </trkpt>
      <trkpt lat="46.83002" lon="4.72862">
        <ele>170.39</ele>
        <time>2014-03-23T10:59:55Z</time>
      </trkpt>
      <trkpt lat="46.82984" lon="4.72848">
        <ele>170.04</ele>
        <time>2014-03-23T11:00:19Z</time>
      </trkpt>
      <trkpt lat="46.82971" lon="4.72829">
        <ele>171.39</ele>
        <time>2014-03-23T11:00:24Z</time>
      </trkpt>
      <trkpt lat="46.82957" lon="4.72805">
        <ele>171.95</ele>
        <time>2014-03-23T11:00:29Z</time>
      </trkpt>
      <trkpt lat="46.82945" lon="4.72782">
        <ele>171.7</ele>
        <time>2014-03-23T11:00:34Z</time>
      </trkpt>
      <trkpt lat="46.82932" lon="4.72759">
        <ele>171.36</ele>
        <time>2014-03-23T11:00:39Z</time>
      </trkpt>
      <trkpt lat="46.82921" lon="4.72737">
        <ele>171.79</ele>
        <time>2014-03-23T11:00:46Z</time>
      </trkpt>
      <trkpt lat="46.82937" lon="4.72718">
        <ele>174.45</ele>
        <time>2014-03-23T11:00:55Z</time>
      </trkpt>
      <trkpt lat="46.82953" lon="4.72705">
        <ele>175.4</ele>
        <time>2014-03-23T11:01:00Z</time>
      </trkpt>
      <trkpt lat="46.8297" lon="4.72692">
        <ele>175.12</ele>
        <time>2014-03-23T11:01:05Z</time>
      </trkpt>
      <trkpt lat="46.82988" lon="4.72675">
        <ele>175.2</ele>
        <time>2014-03-23T11:01:11Z</time>
      </trkpt>
      <trkpt lat="46.83003" lon="4.72656">
        <ele>175.69</ele>
        <time>2014-03-23T11:01:16Z</time>
      </trkpt>
      <trkpt lat="46.83019" lon="4.72638">
        <ele>176.52</ele>
        <time>2014-03-23T11:01:21Z</time>
      </trkpt>
      <trkpt lat="46.83036" lon="4.72619">
        <ele>177.36</ele>
        <time>2014-03-23T11:01:26Z</time>
      </trkpt>
      <trkpt lat="46.83052" lon="4.72602">
        <ele>178.07</ele>
        <time>2014-03-23T11:01:31Z</time>
      </trkpt>
      <trkpt lat="46.83067" lon="4.72583">
        <ele>178.02</ele>
        <time>2014-03-23T11:01:36Z</time>
      </trkpt>
      <trkpt lat="46.83081" lon="4.72563">
        <ele>178.28</ele>
        <time>2014-03-23T11:01:41Z</time>
      </trkpt>
      <trkpt lat="46.83096" lon="4.72543">
        <ele>177.87</ele>
        <time>2014-03-23T11:01:47Z</time>
      </trkpt>
      <trkpt lat="46.83112" lon="4.72521">
        <ele>178.81</ele>
        <time>2014-03-23T11:01:54Z</time>
      </trkpt>
      <trkpt lat="46.83124" lon="4.72501">
        <ele>180.78</ele>
        <time>2014-03-23T11:01:58Z</time>
      </trkpt>
      <trkpt lat="46.83133" lon="4.72475">
        <ele>181.74</ele>
        <time>2014-03-23T11:02:04Z</time>
      </trkpt>
      <trkpt lat="46.83138" lon="4.72448">
        <ele>180.61</ele>
        <time>2014-03-23T11:02:11Z</time>
      </trkpt>
      <trkpt lat="46.83147" lon="4.72423">
        <ele>181.56</ele>
        <time>2014-03-23T11:02:17Z</time>
      </trkpt>
      <trkpt lat="46.83153" lon="4.72395">
        <ele>183.99</ele>
        <time>2014-03-23T11:02:23Z</time>
      </trkpt>
      <trkpt lat="46.83156" lon="4.72366">
        <ele>187.6</ele>
        <time>2014-03-23T11:02:29Z</time>
      </trkpt>
      <trkpt lat="46.83151" lon="4.7234">
        <ele>190.41</ele>
        <time>2014-03-23T11:02:35Z</time>
      </trkpt>
      <trkpt lat="46.83146" lon="4.72312">
        <ele>192.42</ele>
        <time>2014-03-23T11:02:42Z</time>
      </trkpt>
      <trkpt lat="46.83142" lon="4.72284">
        <ele>193.9</ele>
        <time>2014-03-23T11:02:49Z</time>
      </trkpt>
      <trkpt lat="46.83132" lon="4.72259">
        <ele>194.72</ele>
        <time>2014-03-23T11:02:55Z</time>
      </trkpt>
      <trkpt lat="46.83132" lon="4.72232">
        <ele>192.66</ele>
        <time>2014-03-23T11:03:01Z</time>
      </trkpt>
      <trkpt lat="46.83133" lon="4.72203">
        <ele>193.07</ele>
        <time>2014-03-23T11:03:07Z</time>
      </trkpt>
      <trkpt lat="46.83134" lon="4.72172">
        <ele>191.93</ele>
        <time>2014-03-23T11:03:13Z</time>
      </trkpt>
      <trkpt lat="46.83142" lon="4.72146">
        <ele>191.2</ele>
        <time>2014-03-23T11:03:18Z</time>
      </trkpt>
      <trkpt lat="46.83155" lon="4.72124">
        <ele>190.13</ele>
        <time>2014-03-23T11:03:24Z</time>
      </trkpt>
      <trkpt lat="46.83165" lon="4.72101">
        <ele>189.64</ele>
        <time>2014-03-23T11:03:29Z</time>
      </trkpt>
      <trkpt lat="46.83177" lon="4.72079">
        <ele>190.06</ele>
        <time>2014-03-23T11:03:37Z</time>
      </trkpt>
      <trkpt lat="46.83197" lon="4.72074">
        <ele>189.83</ele>
        <time>2014-03-23T11:03:44Z</time>
      </trkpt>
      <trkpt lat="46.83213" lon="4.72087">
        <ele>187.93</ele>
        <time>2014-03-23T11:03:52Z</time>
      </trkpt>
      <trkpt lat="46.83228" lon="4.72102">
        <ele>185.16</ele>
        <time>2014-03-23T11:04:03Z</time>
      </trkpt>
    </trkseg>
  </trk>
</gpx>